[[{"header":{"parameterUnit":"m.s-1","parameterCategory":1,"la1":30.6,"la2":29.2853,"lo1":-89.7004,"lo2":-87.6739,"dy":0.0162,"dx":0.0183,"nx":112,"ny":82,"refTime":"2023-06-24T12:00:00:Z","depth":0,"parameterNumber":2,"parameterNumberName":"U-component_of_WINDS"},"data":[0.0,0.0,0.0,0.0,0.0,0.0,0.0,0.0,0.0,0.0,0.0,0.0,0.0,0.0,0.0,0.0,0.0,0.0,0.0,0.0,0.0,0.0,0.0,0.0,0.0,0.0,0.0,0.0,0.0,0.0,0.0,0.0,0.0,0.0,0.0,0.0,0.0,0.0,0.0,0.0,0.0,0.0,0.0,0.0,0.0,0.0,0.0,0.0,0.0,0.0,0.0,0.0,0.0,0.0,0.0,0.0,0.0,0.0,0.0,0.0,0.0,0.0,0.0,0.0,0.0,0.0,0.0,0.0,0.0,0.0,0.0,0.0,0.0,0.0,0.0,0.0,0.0,0.0,0.0,0.0,0.0,0.0,0.0,0.0,0.0,0.0,0.0,0.0,0.0,0.0,-3.1165,-3.4895,-4.2537,-4.8383,-5.099,-5.1566,-5.0547,-4.7466,0.0,0.0,0.0,0.0,0.0,0.0,0.0,0.0,0.0,0.0,0.0,0.0,0.0,0.0,0.0,0.0,0.0,0.0,0.0,0.0,0.0,0.0,0.0,0.0,0.0,0.0,0.0,0.0,0.0,0.0,0.0,0.0,0.0,0.0,0.0,0.0,0.0,0.0,0.0,0.0,0.0,0.0,0.0,0.0,0.0,0.0,0.0,0.0,0.0,0.0,0.0,0.0,0.0,0.0,0.0,0.0,0.0,0.0,0.0,0.0,0.0,0.0,0.0,0.0,0.0,0.0,0.0,0.0,0.0,0.0,0.0,0.0,0.0,0.0,0.0,0.0,0.0,0.0,0.0,0.0,0.0,0.0,0.0,0.0,0.0,0.0,0.0,0.0,0.0,0.0,0.0,0.0,0.0,0.0,0.0,0.0,0.0,0.0,0.0,0.0,0.0,0.0,0.0,0.0,-3.3747,-4.4078,-4.6461,-4.8324,-5.0998,-5.3254,-5.2513,-4.7638,0.0,0.0,0.0,0.0,0.0,0.0,0.0,0.0,0.0,0.0,0.0,0.0,0.0,0.0,0.0,0.0,0.0,0.0,0.0,0.0,0.0,0.0,0.0,0.0,0.0,0.0,0.0,0.0,0.0,0.0,0.0,0.0,0.0,0.0,0.0,0.0,0.0,0.0,0.0,0.0,0.0,0.0,0.0,0.0,0.0,0.0,0.0,0.0,0.0,0.0,0.0,0.0,0.0,0.0,0.0,0.0,0.0,0.0,0.0,0.0,0.0,0.0,0.0,0.0,0.0,0.0,0.0,0.0,0.0,0.0,0.0,0.0,0.0,0.0,0.0,0.0,0.0,0.0,0.0,0.0,0.0,0.0,0.0,0.0,0.0,0.0,0.0,0.0,0.0,0.0,0.0,0.0,0.0,0.0,0.0,0.0,0.0,0.0,0.0,0.0,0.0,0.0,0.0,-3.544,-3.9779,-4.6581,-4.7318,-4.8316,-5.0986,-5.3647,-5.3498,-4.9674,-4.2012,0.0,0.0,0.0,0.0,0.0,0.0,0.0,0.0,0.0,0.0,0.0,0.0,0.0,0.0,0.0,0.0,0.0,0.0,0.0,0.0,0.0,0.0,0.0,0.0,0.0,0.0,0.0,0.0,0.0,0.0,0.0,0.0,0.0,0.0,0.0,0.0,0.0,0.0,0.0,0.0,0.0,0.0,0.0,0.0,0.0,0.0,0.0,0.0,0.0,0.0,0.0,0.0,0.0,0.0,0.0,0.0,0.0,0.0,0.0,0.0,0.0,0.0,0.0,0.0,0.0,0.0,0.0,0.0,0.0,0.0,0.0,0.0,0.0,0.0,0.0,0.0,0.0,0.0,0.0,0.0,0.0,0.0,0.0,0.0,0.0,0.0,0.0,0.0,0.0,0.0,0.0,0.0,0.0,0.0,0.0,0.0,0.0,0.0,0.0,0.0,0.0,0.0,-3.9304,-4.5281,-4.794,-4.8239,-4.9262,-5.1912,-5.4074,-5.4298,-5.2309,-4.4116,0.0,0.0,0.0,0.0,0.0,0.0,0.0,0.0,0.0,0.0,0.0,0.0,0.0,0.0,0.0,0.0,0.0,0.0,0.0,0.0,0.0,0.0,0.0,0.0,0.0,0.0,0.0,0.0,0.0,0.0,0.0,0.0,0.0,0.0,0.0,0.0,0.0,0.0,0.0,0.0,0.0,0.0,0.0,0.0,0.0,0.0,0.0,0.0,0.0,0.0,0.0,0.0,0.0,0.0,0.0,0.0,0.0,0.0,0.0,0.0,0.0,0.0,0.0,0.0,0.0,0.0,0.0,0.0,0.0,0.0,0.0,0.0,0.0,0.0,0.0,0.0,0.0,0.0,0.0,0.0,0.0,0.0,0.0,0.0,0.0,0.0,0.0,0.0,0.0,0.0,0.0,0.0,0.0,0.0,0.0,0.0,0.0,0.0,0.0,0.0,0.0,0.0,-3.9952,-4.8055,-5.0667,-5.094,-5.1987,-5.4718,-5.5039,-5.5113,-5.4917,-4.5172,0.0,0.0,0.0,0.0,0.0,0.0,0.0,0.0,0.0,0.0,0.0,0.0,0.0,0.0,0.0,0.0,0.0,0.0,0.0,0.0,0.0,0.0,0.0,0.0,0.0,0.0,0.0,0.0,0.0,0.0,0.0,0.0,0.0,0.0,0.0,0.0,0.0,0.0,0.0,0.0,0.0,0.0,0.0,0.0,0.0,0.0,0.0,0.0,0.0,0.0,0.0,0.0,0.0,0.0,0.0,0.0,0.0,0.0,0.0,0.0,0.0,0.0,0.0,0.0,0.0,0.0,0.0,0.0,0.0,0.0,0.0,0.0,0.0,0.0,0.0,0.0,0.0,0.0,0.0,0.0,0.0,0.0,0.0,0.0,0.0,0.0,0.0,0.0,0.0,0.0,0.0,0.0,0.0,0.0,0.0,0.0,0.0,0.0,0.0,0.0,0.0,0.0,-4.3604,-4.8355,-5.0949,-5.1183,-5.2329,-5.5018,-5.5214,-5.2428,-4.5784,0.0,0.0,0.0,0.0,0.0,0.0,0.0,0.0,0.0,0.0,0.0,0.0,0.0,0.0,0.0,0.0,0.0,0.0,0.0,0.0,0.0,0.0,0.0,0.0,0.0,0.0,0.0,0.0,0.0,0.0,0.0,0.0,0.0,0.0,0.0,0.0,0.0,0.0,0.0,0.0,0.0,0.0,0.0,0.0,0.0,0.0,0.0,0.0,0.0,0.0,0.0,0.0,0.0,0.0,0.0,0.0,0.0,0.0,0.0,0.0,0.0,0.0,0.0,0.0,0.0,0.0,0.0,0.0,0.0,0.0,0.0,0.0,0.0,0.0,0.0,0.0,0.0,0.0,0.0,0.0,0.0,0.0,0.0,0.0,0.0,0.0,0.0,0.0,0.0,0.0,0.0,0.0,0.0,0.0,0.0,0.0,0.0,0.0,0.0,0.0,0.0,0.0,-4.1376,-4.4509,-4.7516,-5.0449,-5.1061,-5.1931,-5.3742,-5.4718,-5.1787,-4.3689,0.0,0.0,0.0,0.0,0.0,0.0,0.0,0.0,0.0,0.0,0.0,0.0,0.0,0.0,0.0,0.0,0.0,0.0,0.0,0.0,0.0,0.0,0.0,0.0,0.0,0.0,0.0,0.0,0.0,0.0,0.0,0.0,0.0,0.0,0.0,0.0,0.0,0.0,0.0,0.0,0.0,0.0,0.0,0.0,0.0,0.0,0.0,0.0,0.0,0.0,0.0,0.0,0.0,0.0,0.0,0.0,0.0,0.0,0.0,0.0,0.0,0.0,0.0,0.0,0.0,0.0,0.0,0.0,0.0,0.0,0.0,0.0,0.0,0.0,0.0,0.0,0.0,0.0,0.0,0.0,0.0,0.0,0.0,0.0,0.0,0.0,0.0,0.0,0.0,0.0,0.0,0.0,0.0,0.0,0.0,0.0,0.0,0.0,0.0,0.0,0.0,0.0,-3.8608,-4.2018,-4.5747,-4.9494,-5.0663,-5.1225,-5.1208,-5.3651,-5.3996,0.0,0.0,0.0,0.0,0.0,0.0,0.0,0.0,0.0,0.0,0.0,0.0,0.0,0.0,0.0,0.0,0.0,0.0,0.0,0.0,0.0,0.0,0.0,0.0,0.0,0.0,0.0,0.0,0.0,0.0,0.0,0.0,0.0,0.0,0.0,0.0,0.0,0.0,0.0,0.0,0.0,0.0,0.0,0.0,0.0,0.0,0.0,0.0,0.0,0.0,0.0,0.0,0.0,0.0,0.0,0.0,0.0,0.0,0.0,0.0,0.0,0.0,0.0,0.0,0.0,0.0,0.0,0.0,0.0,0.0,0.0,0.0,0.0,0.0,0.0,0.0,0.0,0.0,0.0,0.0,0.0,0.0,0.0,0.0,0.0,0.0,0.0,0.0,0.0,0.0,0.0,0.0,0.0,0.0,0.0,0.0,0.0,0.0,0.0,0.0,0.0,0.0,0.0,-3.9298,-4.193,-4.5095,-4.9044,-4.9734,-5.0239,-5.1149,-5.1969,-5.1273,-4.8623,0.0,0.0,0.0,0.0,0.0,0.0,0.0,0.0,0.0,0.0,0.0,0.0,0.0,0.0,0.0,0.0,0.0,0.0,0.0,0.0,0.0,0.0,0.0,0.0,0.0,0.0,0.0,0.0,0.0,0.0,0.0,0.0,0.0,0.0,0.0,0.0,0.0,0.0,0.0,0.0,0.0,0.0,0.0,0.0,0.0,0.0,0.0,0.0,0.0,0.0,0.0,0.0,0.0,0.0,0.0,0.0,0.0,0.0,0.0,0.0,0.0,0.0,0.0,0.0,0.0,0.0,0.0,0.0,0.0,0.0,0.0,0.0,0.0,0.0,0.0,0.0,0.0,0.0,0.0,0.0,0.0,0.0,0.0,0.0,0.0,0.0,0.0,0.0,0.0,0.0,0.0,0.0,0.0,0.0,0.0,0.0,0.0,0.0,0.0,0.0,0.0,0.0,-3.8894,-4.1324,-4.4413,-4.8835,-4.8771,-4.8904,-5.0066,-5.078,-5.0046,-4.7489,0.0,0.0,0.0,0.0,0.0,0.0,0.0,0.0,0.0,0.0,0.0,0.0,0.0,0.0,0.0,0.0,0.0,0.0,0.0,0.0,0.0,0.0,0.0,0.0,0.0,0.0,0.0,0.0,0.0,0.0,0.0,0.0,0.0,0.0,0.0,0.0,0.0,0.0,0.0,0.0,0.0,0.0,0.0,0.0,0.0,0.0,0.0,0.0,0.0,0.0,0.0,0.0,0.0,0.0,0.0,0.0,0.0,0.0,0.0,0.0,0.0,0.0,0.0,0.0,0.0,0.0,0.0,0.0,0.0,0.0,0.0,0.0,0.0,0.0,0.0,0.0,0.0,0.0,0.0,0.0,0.0,0.0,0.0,0.0,0.0,0.0,0.0,0.0,0.0,0.0,0.0,0.0,0.0,0.0,0.0,0.0,0.0,0.0,0.0,0.0,0.0,0.0,-3.8005,-4.0373,-4.3515,-4.8446,-4.7788,-4.7405,-4.8338,-4.9849,-4.9727,-4.7252,0.0,0.0,0.0,0.0,0.0,0.0,0.0,0.0,0.0,0.0,0.0,0.0,0.0,0.0,0.0,0.0,0.0,0.0,0.0,0.0,0.0,0.0,0.0,0.0,0.0,0.0,0.0,0.0,0.0,0.0,0.0,0.0,0.0,0.0,0.0,0.0,0.0,0.0,0.0,0.0,0.0,0.0,0.0,0.0,0.0,0.0,0.0,0.0,0.0,0.0,0.0,0.0,0.0,0.0,0.0,0.0,0.0,0.0,0.0,0.0,-4.1232,0.0,0.0,0.0,0.0,0.0,0.0,0.0,0.0,0.0,0.0,0.0,0.0,0.0,0.0,0.0,0.0,0.0,0.0,0.0,0.0,0.0,0.0,0.0,0.0,0.0,0.0,0.0,0.0,0.0,0.0,0.0,0.0,0.0,0.0,0.0,0.0,0.0,0.0,0.0,0.0,0.0,-3.7786,-3.9784,-4.2244,-4.5745,-4.5888,-4.6166,-4.7336,-4.77,-4.7376,-4.5994,-3.7808,0.0,0.0,0.0,0.0,0.0,0.0,0.0,0.0,0.0,0.0,0.0,0.0,0.0,0.0,0.0,0.0,0.0,0.0,0.0,0.0,0.0,0.0,0.0,0.0,0.0,0.0,0.0,0.0,0.0,0.0,0.0,0.0,0.0,0.0,0.0,0.0,0.0,0.0,0.0,0.0,0.0,0.0,0.0,0.0,0.0,0.0,0.0,0.0,0.0,0.0,0.0,0.0,0.0,0.0,0.0,0.0,0.0,0.0,0.0,0.0,-4.3215,0.0,0.0,0.0,0.0,0.0,0.0,0.0,0.0,0.0,0.0,0.0,0.0,0.0,0.0,0.0,0.0,0.0,0.0,0.0,0.0,0.0,0.0,0.0,0.0,0.0,0.0,0.0,0.0,0.0,0.0,0.0,0.0,0.0,0.0,0.0,0.0,0.0,0.0,0.0,0.0,-3.7385,-3.904,-4.1175,-4.4581,-4.4266,-4.4246,-4.524,-4.4894,-4.43,-4.3534,-3.7954,0.0,0.0,0.0,0.0,0.0,0.0,0.0,0.0,0.0,0.0,0.0,0.0,0.0,0.0,0.0,0.0,0.0,0.0,0.0,0.0,0.0,0.0,0.0,0.0,0.0,0.0,0.0,0.0,0.0,0.0,0.0,0.0,0.0,0.0,0.0,0.0,0.0,0.0,0.0,0.0,0.0,0.0,0.0,0.0,0.0,0.0,0.0,0.0,0.0,0.0,0.0,0.0,0.0,-4.4529,-4.6863,-4.9735,-5.0369,-5.1199,-5.2127,-4.9823,-4.8147,-4.695,-4.6142,0.0,0.0,0.0,0.0,0.0,0.0,0.0,0.0,0.0,0.0,0.0,0.0,0.0,0.0,0.0,0.0,0.0,0.0,0.0,0.0,0.0,0.0,0.0,0.0,-3.6483,-3.6935,0.0,0.0,0.0,0.0,0.0,0.0,0.0,0.0,0.0,0.0,0.0,0.0,-3.6645,-3.8267,-4.0277,-4.3487,-4.2764,-4.2291,-4.297,-4.2267,-4.1567,-4.1334,-3.8612,-3.6003,0.0,0.0,0.0,0.0,0.0,0.0,0.0,0.0,0.0,0.0,0.0,0.0,0.0,0.0,0.0,0.0,0.0,0.0,0.0,0.0,0.0,0.0,0.0,0.0,0.0,0.0,0.0,0.0,0.0,0.0,0.0,0.0,-2.8858,-3.001,0.0,0.0,0.0,0.0,0.0,0.0,0.0,0.0,0.0,0.0,0.0,0.0,0.0,-3.7705,-4.0304,-4.2457,-4.522,-4.8557,-5.0931,-5.2529,-5.3516,-5.4738,-5.5705,-5.6256,-5.5388,0.0,-4.9613,-4.8386,0.0,0.0,0.0,0.0,0.0,0.0,0.0,0.0,0.0,0.0,0.0,0.0,0.0,0.0,0.0,0.0,0.0,0.0,0.0,0.0,0.0,0.0,-3.8793,-3.7814,-3.8492,-3.8994,0.0,-3.6282,-3.5002,-3.3897,-3.3294,0.0,0.0,0.0,0.0,0.0,0.0,0.0,-3.5612,-3.7627,-3.9525,-4.0872,-4.092,-4.0938,-4.1493,-4.1165,-4.0996,-4.1261,-4.0053,-3.8256,-3.6056,-3.4123,0.0,0.0,0.0,0.0,0.0,0.0,0.0,0.0,0.0,0.0,0.0,0.0,0.0,0.0,0.0,0.0,0.0,0.0,0.0,0.0,0.0,0.0,0.0,0.0,0.0,0.0,0.0,0.0,0.0,-2.8671,-3.0044,-3.0553,-3.1162,-3.1171,0.0,0.0,0.0,0.0,0.0,0.0,0.0,0.0,0.0,-3.9563,-4.0421,-4.2478,-4.5926,-4.7777,-5.0258,-5.3355,-5.5076,-5.672,-5.8112,-5.868,-5.889,-5.877,-5.8501,-5.6974,-5.4491,-5.2037,-4.9853,-4.7878,0.0,0.0,0.0,0.0,-4.1285,-4.0183,-4.035,-3.9622,0.0,-3.8617,0.0,0.0,0.0,0.0,0.0,0.0,0.0,0.0,0.0,0.0,-3.9647,-3.9471,-4.0275,-4.0676,-3.927,-3.8868,-3.8191,0.0,-3.5554,-3.4901,-3.342,0.0,0.0,0.0,0.0,-3.5504,-3.6358,-3.7889,-3.917,-3.9973,-4.0049,-4.0149,-4.04,-4.0224,-4.0282,-4.0413,-3.9981,-3.9267,-3.8307,-3.7271,-3.5633,0.0,0.0,0.0,0.0,0.0,0.0,0.0,0.0,0.0,0.0,0.0,0.0,0.0,0.0,0.0,0.0,0.0,0.0,0.0,0.0,0.0,0.0,0.0,0.0,0.0,0.0,0.0,0.0,-3.0761,-3.1687,-3.168,-3.2742,-3.2893,0.0,0.0,0.0,0.0,0.0,0.0,-3.8191,-3.959,-4.171,-4.4705,-4.5488,-4.7608,-5.1293,-5.274,-5.4825,-5.7488,-5.8487,-5.9673,-6.1104,-6.1104,-6.0835,-6.0326,-5.9967,-5.9368,-5.8381,-5.5239,-5.2785,-5.081,-4.9015,-4.7788,-4.6897,-4.5929,-4.484,-4.3915,-4.3868,-4.2892,-4.161,-4.0933,0.0,-3.8567,-3.7061,0.0,0.0,0.0,0.0,-3.8015,-3.8868,-3.9697,-4.035,-4.0475,-4.1354,-4.1731,-4.0224,-4.0551,-4.0425,0.0,-3.7487,-3.6835,-3.5052,0.0,0.0,0.0,0.0,-3.6458,-3.7287,-3.8391,-3.9245,-3.9647,-3.9697,-3.9697,-3.9697,-3.9697,-3.9697,-3.9697,-3.9676,-3.9728,-3.9674,-3.9737,-3.7919,-3.3999,0.0,0.0,0.0,0.0,0.0,0.0,0.0,0.0,0.0,0.0,0.0,0.0,0.0,0.0,0.0,0.0,0.0,0.0,0.0,0.0,0.0,0.0,0.0,0.0,0.0,0.0,0.0,0.0,0.0,-3.4525,-3.5956,0.0,0.0,0.0,0.0,-3.6107,-3.6804,-3.8979,-4.3114,-4.3375,-4.5434,-4.9657,-5.0988,-5.2938,-5.5776,-5.6936,-5.8662,-6.0843,-6.153,-6.1559,-6.1104,-6.1104,-6.1104,-6.0984,-5.9697,-5.9458,-5.9787,-5.7124,-5.485,-5.2905,-5.1558,-5.0242,-4.9104,-4.8406,-4.8038,-4.7738,-4.5759,-4.5049,-4.4807,-4.3838,-4.2509,-4.0953,-3.9823,-3.8743,0.0,0.0,-3.912,-3.9572,-3.9647,-4.0827,-4.1781,-4.0752,-4.1354,-4.1856,-4.0727,-4.0526,-4.0199,0.0,-3.8341,-3.7764,-3.7136,0.0,-3.6232,-3.6232,-3.7186,-3.7914,-3.7965,-3.8944,-3.9672,-3.9697,-3.9697,-3.9697,-3.9697,-3.9697,-3.9697,-3.9697,-3.9672,-3.9647,-3.975,-3.9715,-3.8589,-3.623,-3.4209,0.0,0.0,0.0,0.0,0.0,0.0,0.0,0.0,0.0,0.0,0.0,0.0,0.0,0.0,0.0,0.0,0.0,0.0,0.0,0.0,0.0,0.0,0.0,0.0,0.0,0.0,0.0,0.0,-3.583,-3.7563,0.0,-3.7236,-3.902,-4.0461,-4.1036,-4.4757,-4.7604,-4.8925,-5.0649,-5.2622,-5.5109,-5.5594,-5.7164,-5.9924,-5.9984,-6.0595,-6.1732,-6.1553,-6.1343,-6.1104,-6.1104,-6.0864,-6.0416,-5.9488,-5.9249,-5.9338,-5.7992,-5.6526,-5.5029,-5.4132,-5.2965,-5.1703,-5.0493,-4.9677,-4.898,-4.7267,-4.5831,-4.4633,-4.3235,-4.2108,-4.1204,-4.045,-4.0199,-4.0124,-3.9973,-4.0576,-4.1204,-4.0852,-4.1455,-4.1882,-4.0777,-4.1078,-4.1329,-4.0224,-4.0275,-4.03,-3.9546,-3.9245,-3.8793,-3.7864,-3.7864,-3.7739,-3.701,-3.7839,-3.8567,-3.8567,-3.922,-3.9697,-3.9697,-3.9697,-3.9697,-3.9697,-3.9697,-3.9546,-3.9195,-3.9018,-3.9171,-3.9675,-3.9731,-3.8659,-3.6463,-3.5596,-3.4152,0.0,0.0,0.0,0.0,0.0,0.0,0.0,0.0,0.0,0.0,0.0,0.0,0.0,0.0,0.0,0.0,0.0,0.0,0.0,0.0,0.0,0.0,0.0,0.0,0.0,0.0,-3.7337,-3.696,-3.9044,-4.0224,-3.9471,-4.258,-4.4943,-4.5608,-5.0202,-5.3257,-5.3923,-5.5593,-5.7162,-5.86,-5.8863,-5.9758,-6.1403,-6.1224,-6.1343,-6.1762,-6.1313,-6.1104,-6.1104,-6.0864,-6.0505,-6.0057,-5.9398,-5.9099,-5.9069,-5.8411,-5.7483,-5.6436,-5.5987,-5.5149,-5.4062,-5.2326,-5.1327,-5.054,-4.8364,-4.6269,-4.4418,-4.3137,-4.2333,-4.1831,-4.1455,-4.148,-4.158,-4.1404,-4.1731,-4.2082,-4.1706,-4.2032,-4.2158,-4.1053,-4.1078,-4.1078,-4.0174,-4.0124,-4.0124,-3.9772,-3.9697,-3.9446,-3.8693,-3.8894,-3.8894,-3.814,-3.8668,-3.9145,-3.9145,-3.9471,-3.9697,-3.9697,-3.9697,-3.9697,-3.9697,-3.9521,-3.927,-3.8894,-3.8191,-3.8265,-3.9107,-3.8743,-3.7884,-3.6477,-3.5672,-3.4219,-3.1947,0.0,0.0,0.0,0.0,0.0,0.0,0.0,0.0,0.0,0.0,0.0,0.0,0.0,0.0,0.0,0.0,0.0,0.0,0.0,0.0,0.0,0.0,0.0,-3.5002,-3.6759,-3.8165,-3.8216,-4.0732,-4.2393,-4.2418,-4.6029,-4.8699,-4.9844,-5.252,-5.5249,-5.7858,-5.8089,-5.8717,-6.0116,-6.0775,-6.0805,-6.0116,-6.0745,-6.1074,-6.1074,-6.1074,-6.1044,-6.1044,-6.0356,-6.0057,-6.0027,-5.9368,-5.9069,-5.9069,-5.8381,-5.7723,-5.7124,-5.7094,-5.6675,-5.5944,-5.3751,-5.2963,-5.2288,-4.8834,-4.6269,-4.4518,-4.3966,-4.3413,-4.2986,-4.2986,-4.261,-4.2283,-4.2836,-4.2585,-4.2183,-4.2133,-4.2534,-4.266,-4.1555,-4.1279,-4.1153,-4.0601,-4.0074,-3.9697,-3.9697,-3.9697,-3.9697,-3.9697,-3.9697,-3.9697,-3.9697,-3.9697,0.0,-3.9697,-3.9697,-3.9697,-3.9697,-3.9697,-3.9697,-3.9697,-3.9195,-3.8843,-3.8818,-3.7269,-3.6818,-3.7825,-3.6925,-3.6332,-3.6427,-3.4255,-3.2043,-2.9882,0.0,0.0,0.0,0.0,0.0,0.0,0.0,0.0,0.0,0.0,0.0,0.0,0.0,0.0,0.0,0.0,0.0,0.0,0.0,0.0,0.0,0.0,-3.8065,-3.7764,-3.9622,-4.1455,-4.266,-4.5278,-4.7074,-4.7492,-5.1728,-5.4516,-5.4884,-5.7915,-5.9964,-6.0215,-6.1104,-6.1451,-6.0864,-6.1493,-6.1493,-6.0835,-6.0535,-6.0356,-6.0356,-5.9877,-5.9668,-5.9638,-5.9458,-5.9368,-5.9338,-5.868,-5.865,-5.9009,-5.7842,-5.7573,-5.7752,-5.6795,-5.6017,-5.5317,-5.3576,-5.1365,-4.8807,-4.6357,-4.4814,-4.394,-4.3388,-4.3112,-4.2986,-4.2986,-4.2861,-4.2785,-4.2936,-4.2861,-4.2559,-4.1781,-4.1681,-4.1505,-4.04,-4.0149,-4.0099,-3.9948,-3.9798,-3.9697,-3.9697,-3.9697,-3.9697,-3.9697,-3.9697,-3.9697,-3.9697,-3.9697,0.0,-3.9697,-3.9697,-3.9697,-3.9697,-3.9697,-3.9697,-3.9697,-3.9195,-3.8517,-3.7688,-3.6839,-3.6213,-3.5575,-3.5376,-3.5579,-3.6416,-3.4209,-3.2773,0.0,0.0,0.0,0.0,0.0,0.0,0.0,0.0,0.0,0.0,0.0,0.0,0.0,0.0,0.0,0.0,0.0,0.0,0.0,0.0,0.0,0.0,-3.804,-3.9873,-4.0802,-4.2032,-4.3588,-4.5693,-4.7519,-4.9169,-5.0551,-5.4486,-5.6964,-5.7224,-6.0018,-6.1523,-6.1134,-6.1852,-6.1762,-6.0715,-6.1044,-6.0924,-6.0266,-5.9877,-5.9668,-5.9668,-5.9279,-5.9099,-5.9099,-5.9099,-5.9099,0.0,-5.871,-5.874,-5.9009,-5.7663,-5.7334,0.0,0.0,0.0,0.0,0.0,-4.927,-4.6604,-4.5143,-4.4267,-4.3714,-4.3162,-4.2986,-4.2986,-4.2986,-4.2986,-4.2986,-4.2986,-4.2986,-4.2785,-4.1907,-4.1681,-4.1404,-4.03,-4.0049,-3.9973,-3.9747,-3.9697,-3.9697,-3.9697,-3.9697,0.0,-3.9697,-3.9697,-3.9697,-3.9697,-3.9697,-3.9697,-3.9697,-3.9697,-3.9697,-3.9697,-3.9697,-3.9697,-3.9697,-3.8969,0.0,0.0,0.0,-3.5403,-3.4735,-3.5127,0.0,0.0,0.0,-3.3104,-3.3107,0.0,0.0,0.0,-3.2525,-3.2794,0.0,0.0,0.0,0.0,0.0,0.0,0.0,0.0,0.0,0.0,0.0,0.0,0.0,0.0,0.0,0.0,-3.9697,-4.1605,-4.3689,-4.4041,-4.4992,-4.7547,-4.8497,-5.0047,-5.2512,-5.531,-5.7278,-5.7973,-5.9782,-6.1014,-6.1014,0.0,0.0,0.0,0.0,-5.9757,-5.9129,-5.9099,-5.9099,-5.9099,-5.9099,-5.9099,-5.9099,-5.9099,-5.9099,-5.9099,-5.9099,-5.9099,-5.9009,-5.7663,-5.69,-5.6482,-5.4749,-5.3984,-5.336,-5.0037,-4.747,-4.5531,-4.4794,0.0,0.0,-4.3137,-4.2986,-4.2986,-4.2986,-4.2986,-4.2961,-4.2911,-4.2886,-4.2735,-4.2133,-4.1982,-4.1706,-4.0676,-4.0425,-4.03,-3.9798,-3.9697,-3.9697,-3.9697,-3.9697,-3.9697,-3.9697,-3.9697,-3.9697,-3.9697,-3.9697,-3.9697,-3.9697,-3.9697,-3.9697,-3.9697,0.0,0.0,-3.9697,-3.8668,-3.799,-3.7914,-3.5837,-3.46,-3.454,-3.5519,-3.6134,-3.6393,-3.4428,-3.346,-3.3506,-3.442,-3.4916,-3.4826,-3.3792,-3.3503,0.0,0.0,0.0,0.0,0.0,0.0,0.0,0.0,0.0,0.0,0.0,0.0,0.0,0.0,0.0,-3.9145,-4.1505,-4.3639,-4.497,-4.5547,-4.6467,-4.8116,-5.0,-5.1988,-5.4198,-5.6573,-5.8337,-5.9525,-6.0066,-6.0266,-6.0266,-6.0805,-6.0565,-5.9338,-5.9817,-5.9757,-5.9129,-5.9099,-5.9099,-5.9099,0.0,0.0,-5.9099,-5.9099,-5.9099,-5.9099,-5.9099,-5.9099,-5.9009,-5.7663,-5.5811,-5.3867,-5.4643,-5.4244,-5.2894,-5.0989,-4.8722,-4.6413,-4.5106,-4.3966,-4.3112,-4.3011,-4.2986,-4.2986,-4.2986,-4.2986,0.0,-4.2434,-4.2308,-4.2082,-4.1078,-4.0827,-4.0676,-3.9998,-3.9848,-3.9823,-3.9722,-3.9697,-3.9697,-3.9697,-3.9697,-3.9697,-3.9697,-3.9697,-3.9697,-3.9697,-3.9697,-3.9697,-3.9697,-3.9697,-3.9697,-3.9697,-3.9697,-3.9697,-3.9697,-3.8668,-3.7814,-3.7362,-3.5456,-3.4004,-3.3436,-3.3591,-3.4588,-3.6386,-3.5982,-3.5755,-3.5788,-3.5981,-3.6069,-3.6024,-3.4931,-3.4488,0.0,0.0,0.0,0.0,0.0,0.0,0.0,0.0,0.0,0.0,0.0,-3.5303,0.0,0.0,-3.8994,-4.0651,-4.2308,-4.3689,-4.4518,-4.577,-4.7325,-4.9314,-5.0816,-5.2798,-5.5674,-5.6941,-5.8171,-5.9488,-5.9279,-5.9249,-5.9578,-5.9937,-5.9787,-5.9129,-5.9428,-5.9428,-5.9099,-5.9099,-5.9099,-5.9099,-5.9099,-5.9099,-5.9099,-5.9099,-5.9099,-5.9099,-5.9099,-5.9099,-5.9009,-5.7663,-5.608,-5.4642,-5.5096,-5.3413,-5.074,-5.0713,-4.883,-4.6128,-4.5819,-4.515,-4.4292,-4.3285,-4.3492,-4.3907,-4.3184,-4.2785,-4.2509,-4.2233,-4.1957,-4.1555,-4.0727,-4.0526,-4.0375,-3.9823,-3.9697,-3.9697,-3.9697,-3.9697,-3.9697,-3.9697,-3.9697,-3.9697,-3.9697,-3.9697,-3.9697,-3.9697,-3.9697,-3.9697,-3.9697,-3.9697,-3.9697,-3.9697,-3.9697,-3.9572,-3.9295,-3.8241,-3.7236,-3.6408,-3.5712,-3.486,-3.3949,-3.4495,-3.5288,-3.637,-3.642,-3.642,-3.637,-3.637,-3.6447,-3.6413,-3.5823,-3.5554,0.0,0.0,0.0,0.0,0.0,0.0,0.0,0.0,-3.1066,-3.4867,-3.6207,-3.7086,-3.8417,-3.922,-4.0325,-4.2308,-4.3112,-4.3664,-4.4217,-4.5628,-4.7675,-5.0381,-5.1266,-5.3148,-5.6616,-5.6795,-5.7274,-5.862,-5.8231,-5.8201,-5.889,-5.9039,-5.9099,-5.9099,-5.9099,-5.9099,-5.9099,-5.9099,-5.9099,-5.9099,-5.9099,-5.9099,-5.9099,-5.9099,-5.9099,-5.9099,-5.9099,-5.9039,-5.883,-5.7603,-5.6735,-5.6107,-5.5448,-5.2857,-4.9535,-5.0713,-4.8905,-4.6076,-4.7001,-4.6861,-4.6058,-4.4002,-4.4126,-4.4725,-4.3381,-4.2585,-4.2133,-4.2032,-4.1605,-4.1053,-4.0501,-4.035,-4.0249,-3.9798,-3.9697,-3.9697,-3.9697,-3.9697,-3.9697,-3.9697,-3.9697,-3.9697,-3.9697,-3.9697,-3.9697,-3.9697,-3.9697,-3.9697,-3.9697,-3.9697,-3.9697,-3.9697,-3.9697,-3.9471,-3.8919,-3.7839,-3.686,-3.6081,-3.6286,-3.6033,-3.5061,-3.5931,-3.6615,-3.7031,-3.6584,-3.6443,-3.6358,-3.6358,-3.6358,-3.6358,-3.6358,-3.6358,-2.1139,-2.2546,-2.4219,-2.5723,-2.5879,-2.712,0.0,0.0,-3.468,-3.8361,-3.9973,-4.0752,-4.0927,-4.1806,-4.2911,-4.4141,-4.4819,-4.5397,-4.5949,-4.6194,-4.7379,-5.0352,-5.1412,-5.3152,-5.6034,-5.5748,-5.5927,-5.7214,-5.7244,-5.7513,-5.8201,-5.88,-5.9099,-5.9099,-5.9099,-5.9099,-5.9099,-5.9099,-5.9099,-5.9099,-5.9099,-5.9099,-5.9099,-5.9099,-5.9099,-5.9099,-5.9099,-5.877,-5.8171,-5.7423,-5.6735,-5.6107,-5.5448,-5.4068,-5.2509,-5.2644,-5.0463,-4.7581,-4.8382,-4.8291,-4.7476,-4.5448,-4.4833,-4.4725,-4.3381,-4.2585,-4.2057,-4.1555,-4.1028,-4.0475,-3.9923,-3.9798,-3.9772,-3.9697,-3.9697,-3.9697,-3.9697,-3.9697,-3.9697,-3.9697,-3.9697,-3.9697,-3.9697,-3.9697,-3.9697,-3.9697,-3.9697,-3.9697,-3.9697,-3.9697,-3.9697,-3.9697,-3.9697,-3.9471,-3.8919,-3.7839,-3.7337,-3.7713,-3.693,-3.6313,-3.6227,-3.6363,-3.7304,-3.9265,-3.7381,-3.6383,-3.6358,-3.6358,-3.6358,-3.6358,-3.6358,-3.6358,-2.156,-2.3617,0.0,0.0,-2.6621,-2.8117,-3.1742,-3.3099,-3.4647,-3.8128,-4.0219,-4.143,-4.1756,-4.271,-4.3614,0.0,-4.4895,-4.5447,-4.5347,-4.6254,-4.7325,-4.8427,-5.0556,-5.3082,-5.5944,-5.5568,-5.5718,-5.7004,-5.7094,-5.7393,-5.8082,-5.874,-5.9279,-5.9668,-5.9308,-5.9279,-5.9668,-5.9308,-5.9099,-5.9099,-5.9099,-5.9099,-5.9099,-5.9099,-5.9099,-5.9069,-5.871,-5.8381,-5.8052,-5.7004,-5.6406,-5.6107,-5.5448,-5.4304,-5.3069,-5.3964,-5.2003,-4.898,-4.9855,-4.9784,-4.8855,-4.6873,-4.6161,-4.5897,-4.4225,-4.2735,-4.1663,-4.1903,-4.1518,-4.123,-4.1769,-4.1319,-4.0844,-4.0844,-4.0262,-3.9697,-3.9697,-3.9697,-3.9597,-3.927,-3.9471,-3.9597,-3.927,-3.9471,-3.9697,-3.9697,-3.9697,-3.9697,-3.9697,-3.9697,-3.9697,-3.9697,-3.9094,-3.8617,-3.8391,-3.7638,-3.7136,-3.7061,-3.6609,-3.6433,-3.6368,-3.6418,-3.683,-3.7792,-3.6843,-3.5724,-3.4495,-3.5762,-3.6193,-3.5762,-3.6207,-3.6358,-2.1772,0.0,0.0,-2.5937,-2.7109,-2.8846,-3.085,-3.2634,-3.4781,-3.7854,-4.0011,-4.1605,-4.2459,-4.3137,-4.374,-4.4192,-4.4945,-4.5347,-4.492,-4.6078,-4.6882,-4.6869,-4.9439,-5.2185,-5.4835,-5.5126,-5.5568,-5.6496,-5.6885,-5.7304,-5.7812,-5.865,-5.9308,-5.9787,-5.9338,-5.9338,-5.9817,-5.9338,-5.9099,-5.9099,-5.9099,-5.9099,-5.9099,-5.9099,-5.9009,-5.88,-5.8321,-5.8022,-5.7752,-5.6645,-5.6166,-5.6107,-5.5448,-5.442,-5.3464,-5.4577,-5.2966,-5.0472,-5.1164,-5.1017,-5.0295,-4.8336,-4.7595,-4.7068,-4.5223,-4.3467,-4.2216,-4.277,-4.2538,-4.235,-4.3218,-4.2834,-4.2084,-4.169,-4.0945,-4.0185,-3.98,-3.9572,-3.9396,-3.9145,-3.9295,-3.9396,-3.9145,-3.9421,-3.9697,-3.9697,-3.9572,-3.9521,-3.9672,-3.9697,-3.9697,-3.9697,-3.8693,-3.8065,-3.8241,-3.7462,-3.691,-3.6835,-3.6533,-3.6553,-3.6874,-3.6614,-3.6418,-3.6358,-3.6358,-3.565,-3.4039,-3.5301,-3.5805,-3.5637,-3.6157,-3.6358,-2.155,0.0,-2.5312,-2.6152,-2.7344,-2.8926,-3.1266,-3.3661,-3.615,-3.854,-4.0281,-4.1831,-4.3463,-4.3338,-4.3539,-4.5171,-4.5472,-4.5472,-4.5472,-4.5472,-4.5948,-4.6784,-4.8192,-4.9805,0.0,-5.4022,-5.5209,-5.5239,-5.6406,-5.7094,-5.7124,-5.8381,-5.9129,-5.9129,-5.9129,-5.9129,-5.9129,-5.9129,-5.9099,-5.9099,-5.9099,-5.9099,-5.9099,-5.9099,-5.877,-5.8141,-5.8141,-5.7752,-5.7064,-5.6436,-5.6166,-5.6107,-5.5448,-5.479,-5.4152,-5.4221,-5.3229,-5.1943,-5.2151,-5.2121,-5.178,-4.9785,-4.8729,-4.7949,-4.6512,-4.5183,-4.4221,-4.4221,-4.3877,-4.3409,-4.3504,-4.3504,-4.3122,-4.1887,-4.1591,-4.1219,-3.9981,-3.927,-3.9044,-3.9572,-3.9245,-3.9069,-3.9572,-3.9697,-3.9697,-3.9697,-3.9245,-3.9094,-3.9622,-3.9697,-3.9697,-3.9697,-3.8693,-3.8241,-3.8793,-3.7337,-3.6835,-3.7889,-3.696,-3.69,-3.7922,-3.695,-3.6383,-3.6358,-3.6358,-3.6332,-3.6307,-3.5223,-3.5342,-3.6332,-3.6358,-3.6358,-2.05,0.0,-2.5723,-2.6582,-2.7559,-2.8623,-3.0018,-3.1954,-3.4098,-3.6287,-3.75,-3.8851,-4.0689,-4.153,-4.2183,-4.3112,-4.4518,-4.5497,-4.5497,-4.5799,-4.5784,-4.4991,-4.7126,0.0,0.0,0.0,0.0,-5.5777,-5.6615,-5.7304,-5.7752,-5.862,-5.9308,-5.9727,-5.9338,-5.9308,-5.9757,-5.9308,-5.9099,-5.9099,-5.9099,-5.9099,-5.9099,-5.9099,-5.874,-5.8112,-5.7633,-5.7064,-5.6406,-5.5329,-5.488,-5.479,-5.4132,-5.3713,-5.3473,-5.3025,-5.2554,-5.2171,-5.2144,-5.1618,-5.0747,-5.0135,-4.8822,-4.7425,-4.6519,-4.5397,-4.4401,-4.4865,-4.489,-4.4932,-4.5779,-4.5389,-4.4442,-4.3122,-4.1957,-4.0848,-3.9905,-3.8944,-3.8467,-3.9044,-3.8994,-3.8919,-3.912,-3.9446,-3.9572,-3.9195,-3.8994,-3.8793,-3.8592,-3.8241,-3.8165,-3.8542,-3.7914,-3.7538,-3.7739,-3.7236,-3.691,-3.691,-3.6558,-3.6578,-3.6925,-3.6603,-3.6358,-3.6358,-3.6344,-3.5991,-3.5278,-3.5655,-3.5629,-3.5303,-3.6031,-3.6358,-2.0781,-2.329,-2.5937,-2.6797,-2.7539,-2.8281,-2.9141,-3.073,-3.2596,-3.4754,-3.5653,-3.6874,-3.9041,-3.9973,-4.0626,-4.1178,-4.2811,-4.4141,-4.4543,-4.4895,-4.4869,-4.4166,-4.6539,-4.8319,0.0,0.0,0.0,-5.5748,-5.6855,-5.7453,-5.7423,-5.8501,-5.9189,-5.9368,-5.9189,-5.9308,-5.9727,-5.9308,-5.9099,-5.9099,-5.886,-5.874,-5.874,-5.8501,-5.8022,-5.7393,-5.6705,-5.6047,-5.5388,-5.4281,-5.3832,-5.3803,-5.3354,-5.3025,-5.2755,-5.2097,-5.1708,-5.1528,-5.1768,-5.1139,-5.0242,-5.0242,-4.9034,-4.7566,-4.7157,-4.6287,-4.5445,-4.5985,-4.6077,-4.6255,-4.7106,-4.6726,-4.5721,-4.416,-4.2587,-4.1213,-4.0282,-3.8943,-3.8191,-3.8768,-3.8868,-3.8868,-3.8868,-3.917,-3.9145,-3.8391,-3.8266,-3.8216,-3.804,-3.7688,-3.7613,-3.7965,-3.7513,-3.7186,-3.7186,-3.701,-3.6734,-3.6383,-3.6358,-3.6358,-3.6358,-3.6358,-3.6358,-3.6358,-3.637,-3.6016,-3.5303,-3.5655,-3.5655,-3.5328,-3.6031,-3.6358,-2.2232,-2.4106,-2.5937,-2.6777,-2.7305,-2.7851,-2.8672,-2.9931,-3.1657,-3.3915,-3.4716,-3.5637,0.0,0.0,-3.8969,-3.9546,-4.0651,-4.1806,-4.2911,-4.3087,-4.3489,0.0,0.0,0.0,0.0,0.0,0.0,-5.5066,0.0,-5.7573,-5.6376,-5.8082,-5.883,-5.8201,-5.877,-5.9099,-5.9099,-5.9099,-5.9099,-5.9039,-5.8411,-5.8112,-5.8052,-5.7393,-5.6735,-5.6077,-5.5478,-5.479,-5.4102,-5.3414,-5.3144,-5.3144,-5.3084,-5.2665,-5.2037,-5.1409,-5.075,-5.0272,-5.09,-5.069,-5.0122,-5.0122,-4.9284,-4.8237,-4.8237,-4.7788,-4.7309,-4.7309,-4.7309,-4.7309,-4.7309,-4.7309,-4.687,-4.4935,-4.363,-4.2406,-4.0967,-3.9257,-3.829,-3.8793,-3.8919,-3.8894,-3.8843,-3.8843,-3.8492,-3.7362,-3.7186,-3.7362,-3.7864,-3.7914,-3.7914,-3.7914,-3.7462,-3.7136,-3.7136,-3.6659,-3.6358,-3.6358,-3.6358,-3.6358,-3.6358,-3.6358,-3.6358,-3.6358,-3.6358,-3.6452,-3.6427,-3.5342,-3.5342,-3.6307,-3.6358,-3.6358,-2.2835,-2.4312,-2.5859,-2.6406,-2.6875,-2.7324,-2.7871,-2.8779,-2.9823,-3.1295,-3.1197,-3.1651,0.0,0.0,0.0,-3.8817,-4.1028,0.0,-4.4041,-4.4568,0.0,-4.4644,0.0,-4.7144,-4.8416,-4.9595,0.0,0.0,-5.6403,-5.7663,-5.8321,-5.883,-5.9039,-5.886,-5.9009,-5.9099,-5.9099,-5.9099,-5.886,-5.8381,-5.8201,-5.7842,-5.7363,-5.7184,-5.6496,-5.5448,-5.5269,-5.4521,-5.3384,-5.2725,-5.2456,-5.2396,-5.1917,-5.1319,-5.072,-5.0541,-5.0062,-4.9523,-4.9703,-4.9344,-4.8775,-4.8775,-4.8237,-4.7549,-4.7549,-4.7429,-4.7309,-4.7309,-4.7309,-4.7309,-4.7309,-4.7309,-4.6989,-4.5486,-4.4604,-4.3561,-4.1763,-4.0297,-3.9395,-3.9474,-3.9496,-3.922,-3.8366,-3.8592,-3.8492,-3.7362,-3.7186,-3.7086,-3.681,-3.6784,-3.6784,-3.6784,-3.6659,-3.6558,-3.6558,-3.6433,-3.6358,-3.6358,-3.6358,-3.6358,-3.6358,-3.6358,-3.6358,-3.6358,-3.6358,-3.6445,-3.6405,-3.6132,-3.5843,-3.5755,-3.6182,-3.6358,-2.3821,-2.489,-2.5879,-2.6504,-2.6836,-2.709,-2.7324,-2.7754,-2.8371,-2.9328,-2.9048,0.0,-3.2089,-3.3935,0.0,0.0,0.0,0.0,-4.3689,-4.4192,-4.4719,0.0,-4.6276,0.0,-4.8472,-4.9389,-5.1152,0.0,-5.5852,-5.7054,-5.8201,-5.8501,-5.868,-5.868,-5.868,-5.88,-5.9099,-5.883,-5.8501,-5.8112,-5.7543,-5.7064,-5.6675,-5.6406,-5.5718,-5.473,0.0,-5.3713,-5.2695,-5.2037,-5.1588,-5.1289,-5.093,-5.0391,-4.9793,-4.9494,-4.9134,-4.8805,-4.8506,-4.8177,-4.7908,-4.8177,-4.7848,-4.7309,-4.7309,-4.7309,-4.7309,-4.7309,-4.71,-4.695,-4.7219,-4.71,-4.6688,-4.5933,-4.4726,-4.3441,-4.2276,-4.0694,-3.9488,-3.9726,-3.9496,-3.912,-3.8492,-3.8442,-3.8191,-3.7312,-3.6985,-3.6709,-3.6408,-3.6358,-3.6358,-3.6358,-3.6358,-3.6358,-3.6358,-3.6358,-3.6358,-3.6358,-3.6358,-3.6358,-3.6358,-3.6358,-3.6358,-3.6358,-3.6358,-3.6377,-3.6387,-3.6377,-3.6207,-3.5906,-3.6207,-3.6358,-2.5006,-2.5605,-2.6094,-2.6836,-2.7051,-2.707,-2.6953,-2.6973,-2.7159,-2.7903,0.0,-2.8459,-3.118,-3.3125,-3.4824,-3.6318,0.0,-4.0526,-4.2861,-4.3187,-4.4141,-4.6728,-4.7029,-4.7431,-4.846,-4.9438,-5.1082,-5.3937,-5.5083,-5.6042,-5.7139,-5.7872,-5.8261,-5.8261,-5.8261,-5.853,-5.9099,-5.8471,-5.8082,-5.7962,-5.6765,-5.6137,-5.6017,-5.5448,-5.479,-5.4042,-5.3443,0.0,-5.2037,-5.1439,-5.084,-5.0242,-5.0242,-4.9793,-4.9075,-4.8506,-4.8237,-4.8087,-4.7489,-4.7309,-4.7399,-4.7967,-4.7758,-4.7309,-4.7309,-4.7309,-4.7309,-4.7309,-4.683,-4.6471,-4.713,-4.68,-4.6352,-4.6441,-4.4878,-4.3194,-4.273,-4.0755,-3.9094,-3.9496,-3.927,-3.8944,-3.8793,-3.8391,-3.7914,-3.7287,-3.6784,-3.6433,-3.6358,-3.6358,-3.6358,-3.6358,-3.6358,-3.6358,-3.6358,-3.6358,-3.6358,-3.6358,-3.6358,-3.6358,-3.6358,-3.6358,-3.6358,-3.6358,-3.6358,-3.6358,-3.6358,-3.6358,-3.6358,-3.6358,-3.6358,-3.6358,-2.6384,-2.6738,-2.6836,-2.6973,-2.7285,-2.7363,-2.666,-2.6758,0.0,0.0,-2.69,-2.807,-2.9622,-3.1646,-3.4219,-3.7217,-3.8818,-4.0777,-4.389,-4.4342,-4.4869,0.0,-4.6451,-4.6702,-4.7355,-4.8273,0.0,0.0,0.0,-5.5284,-5.7766,-5.856,-5.8949,-5.8949,-5.8949,-5.8979,-5.9099,-5.8471,-5.7842,-5.7274,-5.6526,-5.5897,-5.5359,-5.5239,-5.4521,-5.3354,-5.3234,0.0,-5.1379,-5.1259,-5.084,-5.0242,-5.0242,-4.9494,-4.8446,-4.8327,-4.7938,-4.7459,-4.7339,-4.7309,-4.7339,-4.7429,-4.7399,-4.7309,-4.7309,-4.7309,-4.7309,-4.7309,-4.683,-4.6471,-4.713,-4.68,-4.6471,-4.701,-4.684,-4.5902,-4.3808,-4.136,-3.9446,-3.9094,-3.9295,-3.9245,-3.8316,-3.8467,-3.8366,-3.7337,-3.7111,-3.6885,-3.6408,-3.6358,-3.6358,-3.6358,-3.6358,-3.6358,-3.6358,-3.6358,-3.6358,-3.6358,-3.6358,-3.6358,-3.6358,-3.6358,-3.6358,-3.6358,-3.6358,-3.6358,-3.6358,-3.6358,-3.6358,-3.6358,-3.6358,-3.6358,-2.7129,-2.7344,-2.7461,-2.7891,-2.7988,-2.7715,-2.6641,0.0,0.0,-2.5273,-2.6235,-2.7657,-2.9076,-3.1344,0.0,-3.6318,-3.7914,-3.9873,-4.2911,-4.3589,0.0,-4.6502,-4.6476,-4.6627,0.0,-4.7478,0.0,0.0,0.0,-5.4179,-5.7408,-5.7872,-5.7902,-5.7603,-5.7902,-5.8052,-5.8052,-5.7423,-5.6944,-5.6615,-5.5957,-5.5508,-5.5179,-5.485,-5.4132,-5.3144,-5.2815,0.0,-5.075,-5.1079,-5.0631,-4.9733,-4.9733,-4.9134,-4.8237,-4.7908,-4.7578,-4.7309,-4.7309,-4.7309,-4.7309,-4.7309,-4.707,-4.686,-4.7189,-4.707,-4.686,-4.7219,-4.683,-4.6471,-4.713,-4.68,-4.6501,-4.716,-4.6814,-4.5598,-4.3026,-4.1492,-4.0389,-3.955,-3.9521,-3.9521,-3.8969,-3.8868,-3.8693,-3.814,-3.7563,-3.7086,-3.6835,-3.6533,-3.6358,-3.6358,-3.6358,-3.6358,-3.6358,-3.6358,-3.6358,-3.6358,-3.6358,-3.6358,-3.6358,-3.6358,-3.6358,-3.6358,-3.6358,-3.6358,-3.6358,-3.6358,-3.6358,-3.6358,-3.6358,-3.6358,-2.7734,-2.8008,-2.8242,-2.8887,-2.875,-2.8086,-2.6816,-2.6445,-2.6035,-2.4805,-2.5993,-2.7748,-2.9123,0.0,-3.3484,0.0,-3.6734,-3.8668,-4.158,-4.2559,-4.3915,0.0,-4.6502,0.0,-4.733,0.0,0.0,0.0,0.0,0.0,-5.693,-5.6974,-5.6735,-5.6376,-5.6825,-5.7094,-5.7094,-5.6466,-5.6166,-5.6166,-5.5508,-5.5119,-5.497,-5.4431,-5.3683,-5.2725,-5.2217,0.0,0.0,-5.075,-5.0331,-4.9254,-4.9254,-4.8865,-4.8207,-4.7549,-4.7309,-4.7309,-4.7309,-4.7309,-4.7309,-4.7309,-4.695,-4.6621,-4.716,-4.695,-4.6651,-4.716,-4.683,-4.6471,-4.713,-4.68,-4.6501,-4.716,-4.6344,-4.4748,-4.2447,-4.1789,-4.1219,-3.9981,-3.9697,-3.9697,-3.9697,-3.932,-3.9019,-3.8894,-3.8115,-3.7462,-3.7211,-3.691,-3.6659,-3.6558,-3.6433,-3.6408,-3.6533,-3.6433,-3.6358,-3.6358,-3.6358,-3.6358,-3.6358,-3.6358,-3.6358,-3.6358,-3.6358,-3.6358,-3.6358,-3.6358,-3.6358,-3.6358,-3.6358,-3.6358,-2.8672,-2.9101,-2.9414,-2.9492,-2.918,-2.8535,-2.7246,-2.666,-2.6133,-2.5195,-2.6936,-2.8746,-2.9306,0.0,0.0,0.0,0.0,-3.7663,-4.0953,-4.2308,-4.3639,-4.5422,0.0,0.0,-4.5748,0.0,0.0,0.0,0.0,0.0,-5.6974,-5.6555,-5.6496,-5.7004,-5.7064,-5.7094,-5.7094,-5.6466,-5.6166,-5.6166,-5.5508,-5.488,-5.4311,-5.4251,-5.3174,-5.1379,-5.1319,0.0,0.0,-5.0062,-4.9912,-4.9254,-4.9254,-4.8865,-4.8207,-4.7549,-4.7309,-4.7309,-4.7309,-4.7309,-4.7309,-4.7309,-4.7279,-4.7219,-4.7279,-4.7279,-4.7219,-4.7279,-4.683,-4.6471,-4.713,-4.68,-4.6501,-4.716,-4.6344,-4.5024,-4.3598,-4.2447,-4.1219,-3.9981,-3.9697,-3.9697,-3.9697,-3.9647,-3.9446,-3.8944,-3.8793,-3.8341,-3.7312,-3.7588,-3.7663,-3.7161,-3.6659,-3.6558,-3.7061,-3.6659,-3.6358,-3.6358,-3.6358,-3.6358,-3.6358,-3.6358,-3.6358,-3.6358,-3.6358,-3.6358,-3.6358,-3.6358,-3.6358,-3.6358,-3.6358,-3.6358,-2.8984,-2.9824,-3.064,-3.1889,-3.077,-2.9461,-3.0137,-2.8328,-2.6625,-2.7167,-2.8291,-2.9444,-3.0281,-3.1865,0.0,0.0,0.0,0.0,-3.8969,-4.0023,-4.148,-4.4166,-4.4367,0.0,0.0,0.0,0.0,0.0,0.0,0.0,-5.47,-5.491,-5.491,-5.476,-5.5149,-5.5359,-5.5359,-5.5119,-5.5179,-5.5568,-5.491,-5.4461,-5.4192,-5.3354,-5.2336,-5.1199,-5.081,0.0,0.0,-4.9374,-4.9284,-4.8686,-4.8686,-4.8506,-4.8207,-4.7549,-4.7309,-4.7309,-4.7309,-4.7309,-4.7309,-4.7309,-4.7309,-4.7309,-4.7309,-4.6741,-4.6262,-4.707,-4.683,-4.6381,-4.6651,-4.6202,-4.5873,-4.6561,-4.6337,-4.5698,-4.4847,-4.3598,-4.2242,-4.0676,-4.0032,-3.9597,-3.9245,-3.9471,-3.9622,-3.9396,-3.9094,-3.8718,-3.8266,-3.809,-3.8065,-3.8191,-3.7688,-3.7312,-3.7186,-3.6985,-3.6709,-3.6383,-3.6358,-3.6358,-3.6358,-3.6358,-3.6358,-3.6358,-3.6358,-3.6358,-3.6358,-3.6358,-3.6358,-3.6358,-3.6358,-3.6358,-3.016,-3.1411,-3.2539,-3.4104,-3.2721,-3.1179,0.0,-3.0278,-2.8223,-2.9054,-2.9874,-3.0675,-3.1518,-3.2582,-3.3445,0.0,0.0,-3.5378,-3.7262,-3.8316,-3.9848,0.0,0.0,0.0,0.0,0.0,0.0,0.0,0.0,0.0,-5.2875,-5.3354,-5.3473,-5.3204,-5.3653,-5.3892,-5.3892,-5.3892,-5.4132,-5.4581,-5.4132,-5.3803,-5.3563,-5.2426,-5.1439,-5.0601,-4.9942,0.0,0.0,-4.8716,-4.8716,-4.8297,-4.8297,-4.8297,-4.8207,-4.7549,-4.7309,-4.7309,-4.7309,-4.7309,-4.7309,-4.7309,-4.704,-4.677,-4.7189,-4.6651,-4.6052,-4.68,-4.6531,-4.6052,-4.6262,-4.5963,-4.5753,-4.6441,-4.6471,-4.6129,-4.5544,-4.4486,-4.3266,-4.1426,-4.0659,-4.0058,-3.9272,-3.9446,-3.9697,-3.9697,-3.9371,-3.9044,-3.8894,-3.8668,-3.8592,-3.8843,-3.8642,-3.8216,-3.7487,-3.7287,-3.6935,-3.6383,-3.6358,-3.6358,-3.6358,-3.6358,-3.6358,-3.6358,-3.6358,-3.6358,-3.6358,-3.6358,-3.6358,-3.6358,-3.6358,-3.6358,-3.2546,-3.4062,-3.5423,-3.5893,-3.4907,-3.3698,0.0,0.0,-3.1323,-3.0431,-3.1576,-3.2885,-3.2885,-3.3416,-3.3897,-3.3897,-3.4349,-3.5127,-3.6257,-3.7839,0.0,0.0,0.0,0.0,0.0,0.0,0.0,0.0,0.0,0.0,-5.2187,-5.2217,-5.2516,-5.3144,-5.3204,-5.3204,-5.3204,-5.3204,-5.3204,-5.3204,-5.3204,-5.2845,-5.2187,-5.1528,-5.0511,0.0,0.0,0.0,0.0,-4.8027,-4.8297,-4.8297,-4.8297,-4.8297,-4.8207,-4.7549,-4.7309,-4.7309,-4.7309,-4.7309,-4.7309,-4.7309,-4.6411,-4.5574,-4.689,-4.7309,-4.716,-4.6501,-4.5843,-4.5454,-4.6142,-4.6322,-4.6471,-4.713,-4.68,-4.6129,-4.5544,-4.4899,-4.38,-4.195,-4.1591,-4.1219,-3.9878,-3.9697,-3.9697,-3.9697,-3.9697,-3.9496,-3.8944,-3.9346,-3.9471,-3.8919,-3.9346,-3.922,-3.809,-3.7487,-3.6935,-3.6383,-3.6358,-3.6358,-3.6358,-3.6358,-3.6358,-3.6358,-3.6358,-3.6358,-3.6358,-3.6358,-3.6358,-3.6358,-3.6358,-3.6358,-3.1451,-3.2583,-3.3877,-3.5455,-3.4279,-3.3254,-3.5397,0.0,-3.1586,-3.2996,-3.3068,-3.3188,-3.3949,-3.4304,-3.4575,-3.4951,-3.5177,-3.5554,-3.6282,0.0,0.0,0.0,0.0,0.0,0.0,0.0,0.0,0.0,0.0,0.0,-5.087,-5.087,-5.1169,-5.1828,-5.2276,-5.2516,-5.2516,-5.2516,-5.2725,-5.3174,-5.2725,-5.2157,-5.1498,-5.084,-4.9823,0.0,0.0,0.0,0.0,-4.7519,-4.7608,-4.7608,-4.7608,-4.7608,-4.7578,-4.7369,-4.7309,-4.7309,-4.7309,-4.7309,-4.7309,-4.7309,-4.701,-4.6741,-4.7189,-4.6651,-4.5873,-4.5693,-4.5125,-4.4676,-4.4885,-4.4945,-4.5244,-4.6381,-4.6471,-4.6129,-4.5544,-4.4237,-4.2833,-4.1346,-4.0348,-3.96,-3.9221,-3.9446,-3.9697,-3.9697,-3.9697,-3.9622,-3.9446,-3.9597,-3.9622,-3.9446,-3.9597,-3.9245,-3.809,-3.7839,-3.7337,-3.6408,-3.6358,-3.6358,-3.6358,-3.6358,-3.6358,-3.6358,-3.6358,-3.6358,-3.6358,-3.6358,-3.6358,-3.6358,-3.6358,-3.6358,0.0,-3.3184,-3.4481,-3.6146,-3.5222,0.0,0.0,0.0,0.0,0.0,0.0,0.0,-3.5236,-3.5177,-3.5152,-3.5479,-3.5554,-3.573,-3.6282,0.0,0.0,0.0,0.0,0.0,0.0,0.0,0.0,0.0,0.0,0.0,-5.0272,-5.0242,-5.0301,-5.0481,-5.087,-5.1109,-5.1109,-5.1109,-5.1289,-5.1708,-5.1289,-5.087,-5.0451,-4.9793,-4.9045,0.0,0.0,0.0,0.0,-4.7309,-4.7309,-4.7309,-4.7309,-4.7309,-4.7309,-4.7309,-4.7309,-4.7279,-4.701,-4.692,-4.689,-4.6621,-4.6561,-4.6501,-4.6262,-4.5753,-4.5244,-4.5005,-4.4436,-4.3988,-4.4257,-4.4317,-4.4646,-4.5992,-4.6142,-4.5943,-4.5757,-4.4285,-4.2628,-4.1423,-4.0324,-3.942,-3.8969,-3.932,-3.9697,-3.9697,-3.9697,-3.9697,-3.9697,-3.9697,-3.9697,-3.9697,-3.9697,-3.932,-3.8417,-3.814,-3.749,-3.6513,-3.6433,-3.6358,-3.6358,-3.6358,-3.6358,-3.6358,-3.6358,-3.6358,-3.6358,-3.6358,-3.6358,-3.6358,-3.6358,-3.6358,0.0,-3.4926,-3.6383,-3.7487,-3.701,0.0,0.0,0.0,0.0,0.0,0.0,0.0,0.0,-3.5981,-3.5629,-3.5655,-3.5655,-3.583,-3.6358,-3.873,0.0,0.0,0.0,0.0,0.0,0.0,0.0,0.0,0.0,0.0,-5.0122,-5.0092,-4.9793,-4.9164,-4.9134,-4.9164,-4.9254,-4.9254,-4.9254,-4.9254,-4.9254,-4.9254,-4.9164,-4.8566,-4.8267,0.0,0.0,0.0,0.0,-4.7309,-4.7309,-4.7309,-4.7309,-4.7279,-4.7249,-4.7249,-4.7219,-4.707,-4.6471,-4.6262,-4.6142,-4.5514,-4.5304,-4.5155,-4.4496,-4.4736,-4.5095,-4.4496,-4.3838,-4.3479,-4.4137,-4.4317,-4.4646,-4.5933,-4.5753,-4.5371,-4.5858,-4.4645,-4.3022,-4.1763,-4.0992,-4.0233,-3.9095,-3.9346,-3.9697,-3.9697,-3.9697,-3.9697,-3.9697,-3.9697,-3.9697,-3.9697,-3.9672,-3.9421,-3.8919,-3.8341,-3.7565,-3.6525,-3.6343,-3.6358,-3.6358,-3.6358,-3.6358,-3.6358,-3.6358,-3.6358,-3.6358,-3.6358,-3.6358,-3.6358,-3.6358,-3.6358,-3.2541,0.0,-3.4123,-3.5228,-3.5303,-3.5353,0.0,0.0,0.0,0.0,0.0,0.0,0.0,0.0,-3.6307,-3.6734,-3.6784,-3.6835,-3.6985,0.0,0.0,0.0,0.0,0.0,0.0,0.0,0.0,0.0,0.0,-4.9972,-4.8805,-4.8745,-4.8446,-4.7788,-4.7758,-4.8237,-4.9254,-4.9254,-4.9254,-4.9254,-4.9254,-4.9015,-4.8506,-4.8356,-4.8027,0.0,0.0,0.0,-4.7309,-4.7309,-4.7309,-4.7309,-4.7309,-4.701,-4.6561,-4.6561,-4.6232,-4.5753,-4.5603,-4.5544,-4.5514,-4.5334,-4.5304,-4.5155,-4.4496,-4.4436,-4.4496,-4.4347,-4.3838,-4.3479,-4.4137,-4.4317,-4.4526,-4.5334,-4.5394,-4.4803,-4.3162,-4.206,-4.1086,-3.9797,-3.9086,-3.8865,-3.9448,-3.9622,-3.9697,-3.9697,-3.9697,-3.9697,-3.9697,-3.9697,-3.9697,-3.9697,-3.932,-3.9019,-3.8868,-3.8341,-3.7565,-3.6525,-3.6343,-3.6358,-3.6358,-3.6358,-3.6358,-3.6358,-3.6358,-3.6358,-3.6358,-3.6358,-3.6358,-3.6358,-3.6358,-3.6358,-3.2616,-3.3018,-3.3671,-3.45,-3.4926,-3.5328,0.0,0.0,0.0,0.0,0.0,0.0,0.0,0.0,0.0,-3.7136,-3.7387,-3.8201,0.0,0.0,0.0,0.0,0.0,0.0,0.0,0.0,0.0,0.0,0.0,-4.9673,-4.8356,-4.8297,-4.7967,-4.7339,-4.7309,-4.7638,-4.8356,-4.8356,-4.8356,-4.8356,-4.8356,-4.8177,-4.7818,-4.7519,-4.7189,0.0,0.0,0.0,-4.689,-4.7189,-4.713,-4.686,-4.686,-4.6441,-4.5843,-4.5843,-4.5603,-4.5244,-4.4945,-4.4646,-4.4407,-4.4407,-4.4407,-4.4317,-4.3958,-4.3868,-4.3868,-4.3868,-4.3599,-4.3419,-4.3778,-4.3868,-4.4018,-4.4676,-4.4855,-4.4496,-4.3171,-4.1787,-4.0521,-3.9574,-3.862,-3.8191,-3.8818,-3.9346,-3.9622,-3.9346,-3.932,-3.932,-3.932,-3.9094,-3.912,-3.9647,-3.8969,-3.8592,-3.8843,-3.8239,-3.7635,-3.7186,-3.6659,-3.6358,-3.6358,-3.6358,-3.6358,-3.6358,-3.6358,-3.6358,-3.6358,-3.6358,-3.6358,-3.6358,-3.6358,-3.6358,-3.3169,-3.3721,-3.4349,-3.465,-3.5127,-3.568,-3.6232,0.0,0.0,0.0,0.0,0.0,0.0,0.0,0.0,0.0,0.0,0.0,0.0,0.0,0.0,0.0,0.0,0.0,0.0,0.0,0.0,0.0,0.0,-4.9523,-4.8207,-4.8147,-4.7878,-4.7309,-4.7309,-4.7309,-4.7309,-4.7309,-4.7309,-4.7309,-4.7309,-4.7249,-4.713,-4.6591,-4.6262,-4.6172,0.0,0.0,-4.6202,-4.677,-4.6681,-4.6172,-4.6172,-4.5753,-4.5155,-4.5155,-4.5095,-4.4915,-4.4347,-4.3808,-4.3329,-4.3329,-4.3329,-4.3329,-4.3329,-4.3329,-4.3329,-4.3329,-4.3329,-4.3329,-4.3329,-4.3329,-4.3479,-4.4018,-4.4167,-4.4086,-4.3731,-4.2053,-4.0404,-3.9666,-3.8616,-3.7914,-3.799,-3.8793,-3.927,-3.8818,-3.8743,-3.8743,-3.8743,-3.8316,-3.8417,-3.9446,-3.8642,-3.8216,-3.8693,-3.7912,-3.7455,-3.7724,-3.69,-3.6358,-3.6358,-3.6358,-3.6358,-3.6358,-3.6358,-3.6358,-3.6358,-3.6358,-3.6358,-3.6358,-3.6358,-3.6358,-3.3646,-3.4851,-3.578,-3.4926,-3.5127,-3.568,-3.6232,0.0,0.0,0.0,0.0,0.0,0.0,0.0,0.0,0.0,0.0,0.0,0.0,0.0,0.0,0.0,0.0,0.0,0.0,0.0,0.0,0.0,0.0,-4.8835,-4.7519,-4.7459,-4.7429,-4.7309,-4.7309,-4.7309,-4.7309,-4.7309,-4.7309,-4.7309,-4.7309,-4.701,-4.6471,-4.6381,-4.5992,-4.5454,0.0,-4.5454,-4.5454,-4.5574,-4.5544,-4.5454,-4.5454,-4.5035,-4.4466,-4.4466,-4.4107,-4.3629,-4.3509,-4.3419,-4.3329,-4.3329,-4.3329,-4.3329,-4.3329,-4.3329,-4.3329,-4.3329,-4.3329,-4.3329,-4.3329,-4.3329,-4.3359,-4.3449,-4.3479,-4.2887,-4.0972,-4.0284,-3.9543,-3.7887,-3.7475,-3.7462,-3.7914,-3.814,-3.8241,-3.814,-3.814,-3.814,-3.814,-3.8065,-3.8266,-3.8919,-3.8391,-3.804,-3.814,-3.7192,-3.6618,-3.6653,-3.6528,-3.6358,-3.6358,-3.6358,-3.6358,-3.6358,-3.6358,-3.6358,-3.6358,-3.6358,-3.6358,-3.6358,-3.6358,-3.6358,-3.3395,-3.4449,-3.5429,-3.5228,-3.6257,-3.7337,-3.7262,0.0,0.0,0.0,0.0,0.0,0.0,0.0,0.0,0.0,0.0,0.0,0.0,0.0,0.0,0.0,0.0,0.0,0.0,0.0,0.0,0.0,0.0,0.0,-4.7878,-4.7489,-4.7309,-4.7309,-4.7309,-4.7309,-4.7309,-4.7309,-4.7309,-4.7309,-4.695,-4.6621,-4.6292,-4.5574,-4.5065,-4.4766,0.0,-4.4766,-4.4796,-4.5155,-4.5095,-4.4766,-4.4766,-4.4377,-4.3778,-4.3778,-4.3359,-4.2851,-4.321,-4.312,-4.288,-4.321,-4.3329,-4.3329,-4.3329,-4.3329,-4.3329,-4.3329,-4.3329,-4.3329,-4.3329,-4.3329,-4.3329,-4.3329,-4.3329,-4.282,-4.1169,-4.0318,-3.9441,-3.7924,-3.7413,-3.7262,-3.7513,-3.7814,-3.7914,-3.7613,-3.7563,-3.7563,-3.7563,-3.7563,-3.7789,-3.8341,-3.7889,-3.7563,-3.7563,-3.6864,-3.6438,-3.6383,-3.6358,-3.6358,-3.6358,-3.6358,-3.6358,-3.6358,-3.6358,-3.6358,-3.6358,-3.6358,-3.6358,-3.6358,-3.6358,-3.6358,-3.3244,-3.4173,-3.5203,-3.5629,0.0,-3.814,-3.8341,0.0,0.0,0.0,0.0,0.0,0.0,0.0,0.0,0.0,0.0,0.0,0.0,0.0,0.0,0.0,0.0,0.0,0.0,0.0,0.0,0.0,0.0,0.0,-4.8327,-4.7668,-4.7309,-4.7309,-4.7309,-4.7309,-4.7309,-4.716,-4.707,-4.707,-4.6561,-4.6172,-4.5813,-4.4796,-4.4227,-4.4077,-4.4077,-4.4077,-4.4137,-4.4616,-4.4526,-4.4077,-4.4077,-4.3778,-4.3299,-4.315,-4.288,-4.2641,-4.3,-4.2791,-4.2462,-4.294,-4.3,-4.288,-4.288,-4.288,-4.291,-4.306,-4.312,-4.315,-4.3299,-4.3329,-4.3329,-4.3329,-4.3329,-4.2981,-4.1864,-4.0661,-3.9536,-3.8289,-3.7612,-3.7136,-3.701,-3.7563,-3.7789,-3.7086,-3.7111,-3.7136,-3.701,-3.6985,-3.7211,-3.7764,-3.7437,-3.7211,-3.7358,-3.6804,-3.6358,-3.6358,-3.6358,-3.6358,-3.6358,-3.6358,-3.6358,-3.6358,-3.6358,-3.6358,-3.6358,-3.6358,-3.6358,-3.6358,-3.6358,-3.6358,-3.3696,-3.5027,-3.6257,-3.6282,-3.6056,0.0,-3.8994,-3.8768,0.0,0.0,0.0,0.0,0.0,0.0,0.0,0.0,0.0,0.0,0.0,0.0,0.0,0.0,0.0,0.0,0.0,0.0,0.0,0.0,0.0,0.0,-4.8327,-4.7668,-4.7309,-4.7309,-4.7309,-4.7309,-4.7309,-4.6711,-4.6381,-4.6381,-4.6352,-4.5663,-4.4466,-4.4347,-4.3988,-4.3389,-4.3389,-4.3389,-4.3419,-4.3449,-4.3449,-4.3389,-4.3389,-4.3359,-4.3269,-4.2641,-4.2791,-4.318,-4.2611,-4.2402,-4.2372,-4.2402,-4.2013,-4.1534,-4.1534,-4.1534,-4.1654,-4.2252,-4.2432,-4.2581,-4.318,-4.3329,-4.3329,-4.3329,-4.3329,-4.2981,-4.1864,-4.0661,-3.9536,-3.8289,-3.7612,-3.701,-3.6508,-3.7312,-3.7638,-3.6584,-3.686,-3.701,-3.6483,-3.6408,-3.6634,-3.7186,-3.7211,-3.7358,-3.7851,-3.6975,-3.6358,-3.6358,-3.6358,-3.6358,-3.6358,-3.6358,-3.6358,-3.6358,-3.6358,-3.6358,-3.6358,-3.6358,-3.6358,-3.6358,-3.6358,-3.6358,-3.3345,-3.46,-3.5855,-3.5855,0.0,0.0,0.0,0.0,0.0,0.0,0.0,0.0,0.0,0.0,0.0,0.0,0.0,0.0,0.0,0.0,0.0,0.0,0.0,0.0,0.0,0.0,0.0,0.0,0.0,0.0,-4.7013,-4.7519,-4.7525,-4.6661,-4.7051,-4.6723,-4.5669,-4.607,-4.5535,-4.4001,-4.4703,-4.4796,-4.4317,-4.3898,-4.3569,-4.3329,-4.3329,-4.3329,-4.3329,-4.3329,-4.3329,-4.3329,-4.3329,-4.2851,-4.2132,-4.2312,-4.2013,-4.1534,-4.1683,-4.1474,-4.1205,-4.1624,-4.1594,-4.1384,-4.1384,-4.1654,-4.2043,-4.2359,-4.2641,-4.303,-4.3269,-4.3329,-4.3329,-4.3329,-4.2739,-4.1947,-4.0831,-3.9596,-3.8469,-3.7243,-3.7166,-3.7111,-3.691,-3.7211,-3.7362,-3.6935,-3.6759,-3.6609,-3.6383,-3.6659,-3.6835,-3.6684,-3.6684,-3.6804,-3.6975,-3.6628,-3.6358,-3.6358,-3.6358,-3.6358,-3.6358,-3.6358,-3.6358,-3.6358,-3.6358,-3.6358,-3.6358,-3.6358,-3.6358,-3.6358,-3.6358,-3.6358,-3.3395,-3.4424,-3.5579,0.0,0.0,0.0,0.0,0.0,0.0,0.0,0.0,0.0,0.0,0.0,0.0,0.0,0.0,0.0,0.0,0.0,0.0,0.0,0.0,0.0,0.0,0.0,0.0,0.0,0.0,0.0,0.0,-4.6432,-4.6326,-4.5373,-4.5718,-4.5256,-4.3991,-4.4327,-4.3862,-4.2622,-4.2913,-4.3337,-4.3688,-4.3449,-4.324,-4.303,-4.324,-4.3329,-4.3329,-4.3329,-4.321,-4.3,-4.2791,-4.2162,-4.1414,-4.1654,-4.1294,-4.0756,-4.0995,-4.0786,-4.0487,-4.0935,-4.0935,-4.0756,-4.0756,-4.1085,-4.1474,-4.1683,-4.2222,-4.2761,-4.297,-4.318,-4.3329,-4.3329,-4.2467,-4.142,-4.0575,-3.9183,-3.7861,-3.7057,-3.7071,-3.7136,-3.696,-3.7211,-3.7337,-3.6985,-3.6759,-3.6558,-3.6383,-3.6684,-3.6784,-3.6408,-3.6358,-3.6358,-3.6358,-3.6358,-3.6358,-3.6358,-3.6358,-3.6358,-3.6358,-3.6358,-3.6358,-3.6358,-3.6358,-3.6358,-3.6358,-3.6358,-3.6358,-3.6358,-3.6358,-3.6358,-3.4048,-3.47,-3.568,0.0,0.0,0.0,0.0,0.0,0.0,0.0,0.0,0.0,0.0,0.0,0.0,0.0,0.0,0.0,0.0,0.0,0.0,0.0,0.0,0.0,0.0,0.0,0.0,0.0,0.0,0.0,0.0,-4.4166,-4.3504,-4.3504,-4.3017,-4.2685,-4.2685,-4.1439,-4.1359,-4.2509,-4.1241,-4.1259,-4.2372,-4.303,-4.297,-4.2402,-4.303,-4.3329,-4.3329,-4.3329,-4.294,-4.2359,-4.1624,-4.1384,-4.1294,-4.0636,-4.0816,-4.1265,-4.0606,-4.0397,-4.0397,-4.0397,-3.9948,-3.9409,-3.9409,-3.9409,-3.9559,-4.0217,-4.0876,-4.1534,-4.2192,-4.2851,-4.3329,-4.3329,-4.2467,-4.1587,-4.1587,-3.977,-3.8107,-3.8107,-3.7612,-3.701,-3.6458,-3.7287,-3.7638,-3.6533,-3.6835,-3.6985,-3.6433,-3.6358,-3.6358,-3.6358,-3.6358,-3.6358,-3.6358,-3.6358,-3.6358,-3.6358,-3.6358,-3.6358,-3.6358,-3.6358,-3.6358,-3.6358,-3.6358,-3.6358,-3.6358,-3.6358,-3.6358,-3.6358,-3.6358,-3.6358,-3.4048,-3.47,0.0,0.0,0.0,0.0,0.0,0.0,0.0,0.0,0.0,0.0,0.0,0.0,0.0,0.0,0.0,0.0,0.0,0.0,0.0,0.0,0.0,0.0,0.0,0.0,0.0,0.0,0.0,0.0,0.0,-4.3598,-4.356,-4.2181,-4.2547,-4.1901,-4.0226,-4.0576,-4.0151,-3.8863,-4.0067,-4.1259,-4.2372,-4.2581,-4.2551,-4.2372,-4.2581,-4.291,-4.3299,-4.2851,-4.1983,-4.0995,-4.1265,-4.0816,-4.0038,-4.0307,-4.0217,-3.9978,-3.9768,-3.9709,-3.9709,-3.9709,-3.9589,-3.9409,-3.9409,-3.9738,-4.0157,-4.0337,-4.1205,-4.2102,-4.2312,-4.2851,-4.3329,-4.3329,-4.1782,-4.0404,-4.0404,-3.8559,-3.6896,-3.6896,-3.7071,-3.7136,-3.696,-3.7211,-3.7312,-3.6985,-3.6759,-3.6533,-3.6383,-3.6358,-3.6358,-3.6358,-3.6358,-3.6358,-3.6358,-3.6358,-3.6358,-3.6358,-3.6358,-3.6358,-3.6358,-3.6358,-3.6358,-3.6358,-3.6358,-3.6358,-3.6358,-3.6358,-3.6358,-3.6358,-3.6358,-3.6358,-3.5228,0.0,0.0,0.0,0.0,0.0,0.0,0.0,0.0,0.0,0.0,0.0,0.0,0.0,0.0,0.0,0.0,0.0,0.0,0.0,0.0,0.0,0.0,0.0,0.0,0.0,0.0,0.0,0.0,0.0,0.0,-4.1821,-4.1716,-4.0608,-4.0552,-3.9785,-3.835,-3.8833,-3.8432,-3.7325,-3.8358,-3.9634,-4.0997,-4.168,-4.1833,-4.1594,-4.1863,-4.2192,-4.2521,-4.1863,-4.1115,-4.0397,-4.0546,-4.0127,-3.9469,-3.9858,-3.9768,-3.9409,-3.9409,-3.9409,-3.9409,-3.9409,-3.9409,-3.9469,-3.9738,-4.0098,-4.0457,-4.0726,-4.1564,-4.2372,-4.2372,-4.2851,-4.3329,-4.3329,-4.1532,-3.9913,-3.9913,-3.8043,-3.6358,-3.6358,-3.6634,-3.686,-3.686,-3.686,-3.686,-3.686,-3.6584,-3.6358,-3.6358,-3.6358,-3.6358,-3.6358,-3.6358,-3.6358,-3.6358,-3.6358,-3.6358,-3.6358,-3.6358,-3.6358,-3.6358,-3.6358,-3.6358,-3.6358,-3.6358,-3.6358,-3.6358,-3.6358,-3.6358,-3.6358,-3.6358,-3.6358,-3.7036,0.0,0.0,0.0,0.0,0.0,0.0,0.0,0.0,0.0,0.0,0.0,0.0,0.0,0.0,0.0,0.0,0.0,0.0,0.0,0.0,0.0,0.0,0.0,0.0,0.0,0.0,0.0,0.0,0.0,0.0,-3.9421,-3.8818,-3.8718,-3.7713,-3.7136,-3.7036,-3.6584,-3.6565,-3.699,-3.6542,-3.7039,-3.8474,-4.033,-4.089,-4.0427,-4.1025,-4.1235,-4.1055,-4.0457,-4.0217,-4.0157,-3.9559,-3.9379,-3.9409,-3.9409,-3.9409,-3.9409,-3.9409,-3.9409,-3.9409,-3.9409,-3.9409,-3.9559,-4.0217,-4.0397,-4.0546,-4.1205,-4.1863,-4.2372,-4.2372,-4.2851,-4.325,-4.317,-4.1449,-3.9913,-3.9913,-3.8043,-3.6358,-3.6358,-3.6358,-3.6358,-3.6358,-3.6358,-3.6358,-3.6358,-3.6358,-3.6358,-3.6358,-3.6358,-3.6358,-3.6358,-3.6358,-3.6358,-3.6358,-3.6358,-3.6358,-3.6358,-3.6358,-3.6358,-3.6358,-3.6358,-3.6358,-3.6358,-3.6358,-3.6358,-3.6358,-3.6358,-3.6358,-3.6358,-3.6358,-3.6358,0.0,-3.7839,0.0,0.0,0.0,0.0,0.0,0.0,0.0,0.0,0.0,0.0,0.0,0.0,0.0,0.0,0.0,0.0,0.0,0.0,0.0,0.0,0.0,0.0,0.0,0.0,0.0,0.0,0.0,0.0,-3.9245,-3.8994,-3.8467,-3.7563,-3.7312,-3.6759,-3.5906,-3.6207,-3.5814,0.0,-3.5739,-3.6008,-3.5656,-3.8211,-3.9706,-4.0397,-4.0546,-4.0008,-3.902,-3.8871,-3.8811,-3.8811,-3.8661,-3.8931,-3.9409,-3.9409,-3.9409,-3.9409,-3.9409,-3.9409,-3.9409,-3.9409,-3.9409,-3.9559,-4.0217,-4.0397,-4.0546,-4.1205,-4.1863,-4.2372,-4.2372,-4.2851,-4.3061,-4.2193,-4.0916,-3.9913,-3.9913,-3.8043,-3.6358,-3.6358,-3.6358,-3.6358,-3.6358,-3.6358,-3.6358,-3.6358,-3.6358,-3.6358,-3.6358,-3.6358,-3.6358,-3.6358,-3.6358,-3.6358,-3.6358,-3.6358,-3.6358,-3.6358,-3.6358,-3.6358,-3.6358,-3.6358,-3.6358,-3.6358,-3.6358,-3.6358,-3.6358,-3.6358,-3.6358,-3.6358,-3.6358,-3.6358,0.0,0.0,0.0,0.0,0.0,0.0,0.0,0.0,0.0,0.0,0.0,0.0,0.0,0.0,0.0,0.0,0.0,0.0,0.0,0.0,0.0,0.0,0.0,0.0,0.0,0.0,0.0,0.0,0.0,-3.917,-3.8894,-3.8366,-3.7789,-3.7211,-3.6684,-3.6257,-3.5931,-3.5705,-3.5152,-3.4299,-3.4893,-3.5037,-3.4759,-3.7203,-3.8719,-3.9439,-3.9439,-3.8871,-3.7913,-3.7913,-3.7913,-3.7943,-3.8272,-3.8601,-3.896,-3.929,-3.9409,-3.9409,-3.9409,-3.9409,-3.9409,-3.9409,-3.9409,-3.9619,-4.0576,-4.0876,-4.1085,-4.2043,-4.2551,-4.2821,-4.2821,-4.306,-4.2981,-4.1864,-4.0746,-3.9711,-3.9183,-3.7678,-3.6358,-3.6358,-3.6358,-3.6358,-3.6358,-3.6358,-3.6358,-3.6358,-3.6358,-3.6358,-3.6358,-3.6358,-3.6358,-3.6358,-3.6358,-3.6358,-3.6358,-3.6358,-3.6358,-3.6358,-3.6358,-3.6358,-3.6358,-3.6358,-3.6358,-3.6358,-3.6358,-3.6358,-3.6358,-3.6358,-3.6358,-3.6358,-3.6358,-3.6358,0.0,0.0,0.0,0.0,0.0,0.0,0.0,0.0,0.0,0.0,0.0,0.0,0.0,0.0,0.0,0.0,0.0,0.0,0.0,0.0,0.0,0.0,0.0,0.0,0.0,0.0,0.0,0.0,0.0,-3.8818,-3.8718,-3.7739,-3.7086,-3.691,-3.6031,-3.568,-3.5931,-3.5127,-3.4625,-3.4424,-3.3972,-3.4075,-3.4733,-3.6521,-3.768,-3.815,-3.8202,-3.7853,-3.7255,-3.7135,-3.7135,-3.7315,-3.7853,-3.8123,-3.8302,-3.899,-3.923,-3.926,-3.9379,-3.9409,-3.9409,-3.9409,-3.9409,-3.9649,-4.0846,-4.1294,-4.1624,-4.2821,-4.324,-4.3329,-4.3329,-4.3329,-4.2981,-4.1587,-4.0575,-3.9536,-3.8379,-3.7243,-3.6358,-3.6358,-3.6358,-3.6358,-3.6358,-3.6358,-3.6358,-3.6358,-3.6358,-3.6358,-3.6358,-3.6358,-3.6358,-3.6358,-3.6358,-3.6358,-3.6358,-3.6358,-3.6358,-3.6358,-3.6358,-3.6358,-3.6358,-3.6358,-3.6358,-3.6358,-3.6358,-3.6358,-3.6358,-3.6358,-3.6358,-3.6358,-3.6358,-3.6358,0.0,0.0,0.0,0.0,0.0,0.0,0.0,0.0,0.0,0.0,0.0,0.0,0.0,0.0,0.0,0.0,0.0,0.0,0.0,0.0,0.0,0.0,0.0,0.0,0.0,0.0,0.0,0.0,-3.917,-3.8642,-3.814,-3.7538,-3.6734,-3.5805,-3.5629,-3.5127,-3.4248,-3.455,-3.4248,-3.3294,-3.3219,-3.3692,-3.4733,-3.5323,-3.6099,-3.7026,-3.7416,-3.7195,-3.6567,-3.5998,-3.6088,-3.6626,-3.6716,-3.7075,-3.7614,-3.8272,-3.8512,-3.8601,-3.92,-3.9409,-3.9409,-3.9409,-3.9409,-3.9559,-4.0307,-4.0935,-4.1534,-4.2282,-4.291,-4.3329,-4.3329,-4.3329,-4.2739,-4.0661,-3.9972,-3.9536,-3.8379,-3.7243,-3.6358,-3.6358,-3.6358,-3.6358,-3.6358,-3.6358,-3.6358,-3.6358,-3.6358,-3.6358,-3.6358,-3.6358,-3.6358,-3.6358,-3.6358,-3.6358,-3.6358,-3.6358,-3.6358,-3.6358,-3.6358,-3.6358,-3.6358,-3.6358,-3.6358,-3.6358,-3.6358,-3.6358,-3.6358,-3.6358,-3.6358,-3.6358,-3.6358,-3.6358,-3.8542,0.0,0.0,0.0,0.0,0.0,0.0,0.0,0.0,0.0,0.0,0.0,0.0,0.0,0.0,0.0,0.0,0.0,0.0,0.0,0.0,0.0,0.0,0.0,0.0,0.0,0.0,0.0,-3.8718,-3.814,-3.7588,-3.6734,-3.6056,-3.5554,-3.4951,-3.455,-3.4349,-3.3997,-3.3395,-3.2591,-3.2918,-3.2971,-3.2916,-3.3993,-3.5134,-3.6317,-3.6724,-3.6537,-3.5908,-3.5639,-3.5669,-3.5968,-3.6327,-3.6656,-3.7015,-3.8033,-3.8153,-3.8003,-3.905,-3.917,-3.8901,-3.929,-3.9409,-3.9619,-4.0636,-4.1145,-4.1594,-4.2611,-4.312,-4.317,-4.2548,-4.2386,-4.1753,-3.942,-3.8917,-3.8559,-3.7428,-3.6709,-3.6358,-3.6358,-3.6358,-3.6358,-3.6358,-3.6358,-3.6358,-3.6358,-3.6358,-3.6358,-3.6358,-3.6358,-3.6358,-3.6358,-3.6358,-3.6358,-3.6358,-3.6358,-3.6358,-3.6358,-3.6358,-3.6358,-3.6358,-3.6358,-3.6358,-3.6358,-3.6358,-3.6358,-3.6358,-3.6358,-3.6358,-3.6358,-3.6358,-3.6358,0.0,0.0,0.0,0.0,0.0,0.0,0.0,0.0,0.0,0.0,0.0,0.0,0.0,0.0,0.0,0.0,0.0,0.0,0.0,0.0,0.0,0.0,0.0,0.0,0.0,0.0,0.0,0.0,-3.8191,-3.7613,-3.7211,-3.6132,-3.5479,-3.5328,-3.4399,-3.4022,-3.4299,-3.3345,-3.2566,-3.2014,-3.2441,-3.2215,-3.1468,-3.2748,-3.4077,-3.5296,-3.5878,-3.5889,-3.5519,-3.5519,-3.5519,-3.5549,-3.6058,-3.6237,-3.6357,-3.7494,-3.7704,-3.7584,-3.8751,-3.8931,-3.8751,-3.926,-3.9409,-3.9619,-4.0576,-4.1115,-4.1594,-4.2551,-4.2823,-4.2629,-4.1835,-4.142,-4.0632,-3.8622,-3.8107,-3.7769,-3.6615,-3.6358,-3.6358,-3.6358,-3.6358,-3.6358,-3.6358,-3.6358,-3.6358,-3.6358,-3.6358,-3.6358,-3.6358,-3.6358,-3.6358,-3.6358,-3.6358,-3.6358,-3.6358,-3.6358,-3.6358,-3.6358,-3.6358,-3.6358,-3.6358,-3.6358,-3.6358,-3.6358,-3.6358,-3.6358,-3.6358,-3.6358,-3.6358,-3.6358,-3.6358,-3.6358,0.0,0.0,0.0,0.0,0.0,0.0,0.0,0.0,0.0,0.0,0.0,0.0,0.0,0.0,0.0,0.0,0.0,0.0,0.0,0.0,0.0,0.0,0.0,0.0,0.0,0.0,0.0,0.0,-3.7839,-3.7211,-3.7186,-3.6132,-3.5303,-3.4776,-3.4198,-3.3671,-3.3169,-3.2566,-3.1989,-3.1436,-3.1461,-3.1461,-3.1442,-3.1837,-3.2622,-3.3633,-3.4611,-3.5224,-3.5519,-3.5519,-3.5519,-3.5519,-3.5549,-3.5549,-3.5639,-3.6327,-3.6926,-3.7494,-3.8212,-3.8841,-3.9379,-3.9409,-3.9409,-3.9439,-3.9499,-4.0397,-4.1384,-4.1474,-4.1607,-4.167,-4.1587,-4.0831,-3.9623,-3.8379,-3.8107,-3.7769,-3.6615,-3.6358,-3.6358,-3.6358,-3.6358,-3.6358,-3.6358,-3.6358,-3.6358,-3.6358,-3.6358,-3.6358,-3.6358,-3.6358,-3.6358,-3.6358,-3.6358,-3.6358,-3.6358,-3.6358,-3.6358,-3.6358,-3.6358,-3.6358,-3.6358,-3.6358,-3.6358,-3.6358,-3.6358,-3.6358,-3.6358,-3.6358,-3.6358,-3.6358,-3.6358,-3.6358,0.0,0.0,0.0,0.0,0.0,0.0,0.0,0.0,0.0,0.0,0.0,0.0,0.0,0.0,0.0,0.0,0.0,0.0,0.0,0.0,0.0,0.0,0.0,0.0,0.0,0.0,0.0,0.0,0.0,-3.6885,-3.6157,-3.5429,-3.4776,-3.4198,-3.3294,-3.2541,-3.1989,-3.1788,-3.1411,-3.0909,-3.1235,-3.1035,-3.0382,-3.0902,-3.1777,-3.2925,-3.3282,-3.4243,-3.5519,-3.5519,-3.5519,-3.5519,-3.5519,-3.5519,-3.5639,-3.6686,-3.6956,-3.7045,-3.8542,-3.8931,-3.8841,-3.926,-3.9409,-3.9589,-4.0427,-4.0995,-4.1381,-4.1527,-4.1599,-4.1253,-3.977,-3.9067,-3.8469,-3.7335,-3.6964,-3.6896,-3.6452,-3.6358,-3.6358,-3.6358,-3.6358,-3.6358,-3.6358,-3.6358,-3.6358,-3.6358,-3.6358,-3.6358,-3.6358,-3.6358,-3.6358,-3.6358,-3.6358,-3.6358,-3.6358,-3.6358,-3.6358,-3.6358,-3.6358,-3.6358,-3.6358,-3.6358,-3.6358,-3.6358,-3.6358,-3.6358,-3.6358,-3.6358,-3.6358,-3.6358,-3.6358,-3.5953,-3.7487,0.0,0.0,0.0,0.0,0.0,0.0,0.0,0.0,0.0,0.0,0.0,0.0,0.0,0.0,0.0,0.0,0.0,0.0,0.0,0.0,0.0,0.0,0.0,0.0,0.0,0.0,0.0,0.0,0.0,-3.5487,-3.4851,-3.4098,-3.337,-3.2416,-3.1662,-3.1135,-3.1135,-3.0859,-3.0357,-3.0683,-3.0482,-2.9804,-3.0181,-3.0983,-3.2164,-3.2451,-3.3671,-3.5519,-3.5519,-3.5519,-3.5519,-3.5519,-3.5639,-3.5938,-3.6776,-3.7105,-3.7315,-3.8631,-3.8931,-3.8811,-3.926,-3.9409,-3.9546,-4.0321,-4.0613,-4.0764,-4.0735,-4.0548,-4.0118,-3.8469,-3.7861,-3.7335,-3.6546,-3.6358,-3.6358,-3.6358,-3.6358,-3.6358,-3.6358,-3.6358,-3.6408,-3.6609,-3.6483,-3.6433,-3.6609,-3.6483,-3.6358,-3.6358,-3.6358,-3.6358,-3.6358,-3.6358,-3.6358,-3.6358,-3.6358,-3.6358,-3.6358,-3.6358,-3.6358,-3.6358,-3.6358,-3.6358,-3.6358,-3.6358,-3.6358,-3.6358,-3.6358,-3.6358,-3.6358,-3.5808,-3.4606,0.0,0.0,0.0,0.0,0.0,0.0,0.0,0.0,0.0,0.0,0.0,0.0,0.0,0.0,0.0,0.0,0.0,0.0,0.0,0.0,0.0,0.0,0.0,0.0,0.0,0.0,0.0,0.0,-3.6182,-3.5554,-3.5529,-3.4449,-3.3345,-3.2215,-3.1662,-3.111,-3.0608,-3.0583,-3.0331,-2.9804,-2.9804,-2.9804,-2.9804,-2.9804,-3.0266,-3.1241,-3.2164,-3.3699,-3.5424,-3.5519,-3.5519,-3.5519,-3.5519,-3.5908,-3.6477,-3.6507,-3.7285,-3.8362,-3.8392,-3.8871,-3.9409,-3.9337,-3.9337,-3.9311,-3.8851,-3.9068,-3.943,-3.8977,-3.8546,-3.8107,-3.8017,-3.7243,-3.6358,-3.6358,-3.6358,-3.6358,-3.6358,-3.6358,-3.6358,-3.6358,-3.6358,-3.6533,-3.7086,-3.6734,-3.6558,-3.7111,-3.6734,-3.6383,-3.6358,-3.6358,-3.6358,-3.6358,-3.6358,-3.6358,-3.6358,-3.6358,-3.6358,-3.6358,-3.6358,-3.6358,-3.6358,-3.6358,-3.6358,-3.6358,-3.6358,-3.6358,-3.6358,-3.6358,-3.6358,-3.6238,-3.4389,-3.2419,-3.6558,0.0,0.0,0.0,0.0,0.0,0.0,0.0,0.0,0.0,0.0,0.0,0.0,0.0,0.0,0.0,0.0,0.0,0.0,0.0,0.0,0.0,0.0,0.0,0.0,0.0,0.0,0.0,-3.6307,-3.578,-3.5002,-3.352,-3.2365,-3.1637,-3.111,-3.0557,-3.003,-3.003,-2.9955,-2.9804,-2.9804,-2.9804,-2.9804,-2.9804,-3.0266,-3.1241,-3.2164,-3.3325,-3.4476,-3.5198,-3.5519,-3.5519,-3.5519,-3.5609,-3.5878,-3.6806,-3.7375,-3.7823,-3.8811,-3.926,-3.9265,-3.8472,-3.8219,-3.8272,-3.8211,-3.8335,-3.8478,-3.8378,-3.8246,-3.7926,-3.7057,-3.6615,-3.6358,-3.6358,-3.6358,-3.6358,-3.6358,-3.6358,-3.6358,-3.6358,-3.6358,-3.6533,-3.7086,-3.7061,-3.701,-3.7161,-3.7061,-3.681,-3.6408,-3.6358,-3.6358,-3.6358,-3.6358,-3.6358,-3.6358,-3.6358,-3.6358,-3.6358,-3.6358,-3.6358,-3.6358,-3.6358,-3.6358,-3.6358,-3.6358,-3.6358,-3.6358,-3.6358,-3.5375,-3.3452,-3.1951,-3.0884,0.0,0.0,0.0,0.0,0.0,0.0,-3.8291,-3.8517,0.0,0.0,0.0,0.0,0.0,0.0,0.0,0.0,0.0,0.0,0.0,0.0,0.0,0.0,0.0,0.0,0.0,-3.7939,-3.7387,-3.6759,-3.6282,-3.5429,-3.4098,-3.2667,-3.1612,-3.1085,-3.0557,-3.0131,-2.9804,-2.9804,-2.9804,-2.9804,-2.9804,-2.9804,-2.9804,-2.9804,-3.0062,-3.0696,-3.1609,-3.2307,-3.2947,-3.4341,-3.5133,-3.5519,-3.5519,-3.5818,-3.6387,-3.7135,-3.7456,-3.7664,-3.8429,-3.8442,-3.8023,-3.7642,-3.7494,-3.7484,-3.7561,-3.7687,-3.7644,-3.7417,-3.7402,-3.7243,-3.6546,-3.6358,-3.6358,-3.6358,-3.6358,-3.6358,-3.6358,-3.6358,-3.6358,-3.6358,-3.6358,-3.6609,-3.7387,-3.7337,-3.7337,-3.7814,-3.7487,-3.7061,-3.6734,-3.6508,-3.6358,-3.6358,-3.6358,-3.6358,-3.6358,-3.6358,-3.6358,-3.6358,-3.6358,-3.6358,-3.6358,-3.6358,-3.6358,-3.6358,-3.6358,-3.6358,-3.6358,-3.6358,-3.4847,-3.1771,-3.0932,-3.0223,0.0,0.0,0.0,0.0,-3.7236,0.0,-3.8266,-3.7864,-3.7462,0.0,0.0,0.0,0.0,0.0,0.0,0.0,0.0,0.0,0.0,0.0,0.0,0.0,0.0,0.0,-3.8868,-3.7889,-3.7236,-3.7186,-3.6107,-3.4751,-3.3169,-3.2014,-3.116,-3.0633,-3.008,-2.9804,-2.9804,-2.9804,-2.9804,-2.9804,-2.9804,-2.9804,-2.9804,-2.9804,-2.9804,-2.9856,-3.0771,-3.1241,-3.1462,-3.3157,-3.4409,-3.5359,-3.5424,-3.6207,-3.7225,-3.7375,-3.7487,-3.7641,-3.7785,-3.7155,-3.6405,-3.6796,-3.6962,-3.6961,-3.692,-3.6907,-3.6858,-3.6463,-3.6358,-3.6358,-3.6358,-3.6358,-3.6358,-3.6358,-3.6358,-3.6358,-3.6358,-3.6358,-3.6358,-3.6358,-3.6358,-3.6684,-3.7739,-3.7563,-3.7613,-3.8617,-3.7965,-3.7337,-3.7287,-3.6784,-3.6458,-3.6458,-3.6408,-3.6358,-3.6358,-3.6358,-3.6358,-3.6358,-3.6383,-3.6408,-3.6358,-3.6383,-3.6408,-3.6358,-3.6358,-3.6358,-3.6358,-3.6408,-3.4558,-3.1149,-3.0803,-2.9849,0.0,0.0,0.0,0.0,-3.7513,0.0,-3.6985,-3.7036,-3.7236,0.0,0.0,0.0,0.0,0.0,0.0,0.0,0.0,0.0,0.0,0.0,0.0,0.0,0.0,0.0,-3.8919,-3.8241,-3.7663,-3.7211,-3.5755,-3.4349,-3.3144,-3.2014,-3.116,-3.0633,-3.008,-2.9804,-2.9804,-2.9804,-2.9804,-2.9804,-2.9804,-2.9804,-2.9804,-2.9804,-2.9804,-2.9856,-3.0771,-3.1609,-3.2379,-3.2735,-3.3463,-3.438,-3.5198,-3.5669,-3.5998,-3.7015,-3.6899,-3.6388,-3.7469,-3.7438,-3.6823,-3.6055,-3.6093,-3.6339,-3.5941,-3.5805,-3.5907,-3.6301,-3.6358,-3.6358,-3.6358,-3.6358,-3.6358,-3.6358,-3.6358,-3.6358,-3.6358,-3.6358,-3.6358,-3.6358,-3.6358,-3.6558,-3.7236,-3.7613,-3.7914,-3.814,-3.8391,-3.8366,-3.7914,-3.7362,-3.701,-3.701,-3.6634,-3.6358,-3.6358,-3.6358,-3.6358,-3.6358,-3.6418,-3.6443,-3.6383,-3.6418,-3.6443,-3.6358,-3.6358,-3.6358,-3.6358,-3.6376,-3.4915,-3.204,-2.9785,-2.8645,0.0,0.0,0.0,-3.7663,-3.7588,0.0,0.0,-3.6784,-3.686,-3.7136,0.0,0.0,0.0,0.0,0.0,0.0,0.0,0.0,0.0,0.0,0.0,0.0,0.0,0.0,-3.8919,-3.8341,-3.7563,-3.6458,-3.5353,-3.4123,-3.2717,-3.1838,-3.1035,-3.0231,-2.993,-2.9804,-2.9804,-2.9804,-2.9804,-2.9804,-2.9804,-2.9804,-2.9804,-2.9804,-2.9804,-2.9856,-3.0292,-3.0771,-3.1267,-3.1683,-3.2164,-3.2735,-3.4177,-3.4855,-3.5049,-3.6207,-3.6098,-3.5361,-3.6046,-3.5737,-3.5121,-3.5124,-3.5249,-3.5545,-3.5865,-3.5956,-3.6006,-3.6282,-3.6358,-3.6358,-3.6358,-3.6358,-3.6358,-3.6358,-3.6358,-3.6358,-3.6358,-3.6358,-3.6358,-3.6358,-3.6358,-3.6533,-3.7086,-3.7638,-3.809,-3.8391,-3.8693,-3.8768,-3.8467,-3.7939,-3.7487,-3.7211,-3.6935,-3.6659,-3.6383,-3.6358,-3.6358,-3.6358,-3.6413,-3.6925,-3.799,-3.7006,-3.6378,-3.6378,-3.6378,-3.6378,-3.6378,-3.6407,-3.498,-3.2208,-2.9576,-2.8341,0.0,0.0,0.0,0.0,0.0,-3.7588,0.0,0.0,0.0,0.0,0.0,0.0,0.0,0.0,0.0,0.0,0.0,0.0,0.0,0.0,0.0,0.0,0.0,0.0,0.0,-3.8165,-3.7061,-3.5504,-3.4876,-3.3822,-3.2139,-3.1637,-3.0909,-2.9829,-2.9804,-2.9804,-2.9804,-2.9804,-2.9804,-2.9804,-2.9804,-2.9804,-2.9804,-2.9804,-2.9804,-2.9804,-2.9804,-2.9934,-3.0139,-3.0799,-3.1202,-3.1548,-3.3213,-3.4015,-3.4325,-3.5345,-3.5245,-3.4518,-3.4624,-3.4082,-3.3545,-3.4424,-3.4876,-3.5203,-3.6081,-3.6358,-3.6358,-3.6358,-3.6358,-3.6358,-3.6358,-3.6358,-3.6358,-3.6358,-3.6358,-3.6358,-3.6358,-3.6433,-3.6483,-3.6383,-3.6433,-3.6634,-3.696,-3.7487,-3.804,-3.8617,-3.8793,-3.8919,-3.9019,-3.8542,-3.8015,-3.7563,-3.7412,-3.7111,-3.6558,-3.6508,-3.6483,-3.6358,-3.6408,-3.7286,-3.9181,-3.7845,-3.7045,-3.7023,-3.7023,-3.7072,-3.7072,-3.7095,-3.5681,-3.2972,-2.9758,-2.8324,0.0,0.0,0.0,0.0,-3.9094,0.0,0.0,0.0,-3.7563,-3.6634,0.0,0.0,0.0,0.0,0.0,0.0,0.0,0.0,0.0,0.0,0.0,0.0,0.0,0.0,0.0,-3.7462,-3.6056,-3.4901,-3.4299,-3.3269,-3.1562,-3.1411,-3.0909,-2.9829,-2.9804,-2.9804,-2.9804,-2.9804,-2.9804,-2.9804,-2.9804,-2.9804,-2.9804,-2.9804,-2.9804,-2.9804,-2.9804,-3.0266,-3.1022,-3.0751,-3.1164,-3.2008,-3.3028,-3.3477,-3.3652,-3.4906,-3.4706,-3.391,-3.4492,-3.4598,-3.455,-3.4675,-3.5378,-3.6207,-3.6332,-3.6358,-3.6358,-3.6358,-3.6358,-3.6358,-3.6358,-3.6358,-3.6358,-3.6358,-3.6358,-3.6358,-3.6358,-3.6734,-3.6935,-3.6458,-3.6759,-3.696,-3.6533,-3.691,-3.7462,-3.8015,-3.8542,-3.9044,-3.9546,-3.912,-3.8743,-3.8693,-3.8216,-3.7688,-3.7136,-3.7086,-3.6885,-3.6383,-3.6443,-3.6768,-3.7724,-3.8779,-3.9312,-3.9363,-3.9363,-3.9295,-3.9347,-3.9372,-3.8132,-3.5797,-3.0721,-2.8271,0.0,0.0,0.0,0.0,0.0,0.0,-3.8316,0.0,-3.7965,0.0,0.0,0.0,0.0,0.0,0.0,0.0,-3.7613,0.0,0.0,0.0,0.0,0.0,0.0,0.0,0.0,0.0,0.0,0.0,-3.4022,-3.3169,-3.1486,-3.111,-3.0583,-2.9804,-2.9804,-2.9804,-2.9804,-2.9804,-2.9804,-2.9804,-2.9804,-2.9804,-2.9804,-2.9804,-2.9804,-2.9804,-2.9804,-3.0188,-3.0855,-3.0666,-3.0998,-3.1755,-3.2462,-3.2725,-3.2882,-3.3913,-3.3936,-3.3392,-3.3623,-3.4005,-3.4349,-3.5002,-3.573,-3.6358,-3.6358,-3.6358,-3.6358,-3.6358,-3.6358,-3.6358,-3.6358,-3.6358,-3.6358,-3.6358,-3.6609,-3.6759,-3.6433,-3.7036,-3.7487,-3.6935,-3.7036,-3.7211,-3.7287,-3.7513,-3.7739,-3.7965,-3.8768,-3.9421,-3.9672,-3.9496,-3.922,-3.8894,-3.8642,-3.814,-3.7262,-3.7186,-3.7086,-3.686,-3.6992,-3.7319,-3.8115,-3.9094,-3.9701,-3.9677,-3.9674,-3.9719,-3.971,-3.626,-3.4129,-3.3131,-2.9802,-2.829,-3.9697,0.0,0.0,0.0,0.0,0.0,0.0,0.0,0.0,0.0,0.0,0.0,0.0,0.0,0.0,-3.6626,0.0,-3.7092,0.0,0.0,0.0,0.0,0.0,0.0,0.0,0.0,0.0,-3.3439,-3.3192,-3.2574,-3.126,-3.0809,-3.0357,-2.9804,-2.9804,-2.9804,-2.9804,-2.9804,-2.9804,-2.9804,-2.9804,-2.9804,-2.9804,-2.9804,-2.9804,-2.9804,-2.9804,-3.003,-3.0407,-3.0708,-3.106,-3.1461,-3.2164,-3.2541,-3.2726,-3.3302,-3.3469,-3.3294,-3.3294,-3.3771,-3.45,-3.5454,-3.6031,-3.6358,-3.6358,-3.6358,-3.6358,-3.6358,-3.6358,-3.6358,-3.6358,-3.6358,-3.6358,-3.6358,-3.6784,-3.7086,-3.6684,-3.7462,-3.809,-3.7513,-3.7538,-3.7713,-3.7965,-3.7764,-3.7713,-3.8165,-3.8818,-3.9346,-3.9647,-3.9697,-3.9546,-3.9145,-3.9094,-3.8693,-3.7739,-3.7638,-3.7588,-3.7412,-3.7741,-3.8091,-3.8617,-3.9323,-3.9726,-3.969,-3.9724,-3.8873,-3.7247,-3.3023,-3.0863,-3.088,-2.9311,-2.8496,0.0,0.0,0.0,-3.9697,0.0,0.0,0.0,0.0,-3.8693,0.0,0.0,0.0,0.0,-3.7965,-3.737,-3.5617,-3.68,0.0,0.0,0.0,0.0,0.0,0.0,0.0,0.0,0.0,0.0,-3.192,-3.1418,-3.0927,-3.0653,-3.0633,-3.0357,-2.9804,-2.9804,-2.9804,-2.9804,-2.9804,-2.9804,-2.9804,-2.9804,-2.9804,-2.9804,-2.9804,-2.9804,-2.9804,-2.9804,-2.9804,-2.9905,-3.0934,-3.1361,-3.1486,-3.2616,-3.337,-3.3771,-3.333,-3.3395,-3.3872,-3.3872,-3.4575,-3.5579,-3.6157,-3.6332,-3.6358,-3.6358,-3.6358,-3.6358,-3.6358,-3.6358,-3.6358,-3.6358,-3.6358,-3.6358,-3.6358,-3.6784,-3.7186,-3.7161,-3.804,-3.8668,-3.809,-3.8442,-3.8642,-3.809,-3.7111,-3.696,-3.8592,-3.8391,-3.8442,-3.9546,-3.9697,-3.9697,-3.9672,-3.9672,-3.9446,-3.8868,-3.8818,-3.8567,-3.8015,-3.8517,-3.8818,-3.8642,-3.9346,-3.9715,-3.966,-3.9685,-3.6851,-3.1144,-3.099,-3.0917,-3.0883,-3.0028,-2.9115,0.0,0.0,-3.9697,-3.9697,0.0,0.0,0.0,0.0,0.0,0.0,0.0,0.0,0.0,0.0,0.0,-3.4037,-3.4055,-3.3707,0.0,0.0,0.0,0.0,0.0,0.0,0.0,0.0,0.0,-3.0377,-3.085,-3.0744,-2.9537,-2.9836,-2.998,-2.9804,-2.9804,-2.9804,-2.9804,-2.9804,-2.9804,-2.9804,-2.9804,-2.9804,-2.9804,-2.9804,-2.9804,-2.9804,-3.0181,-3.0532,-3.0909,-3.1637,-3.2164,-3.2591,-3.3319,-3.3746,-3.3872,-3.3696,-3.3972,-3.45,-3.4876,-3.5228,-3.5629,-3.6182,-3.6358,-3.6358,-3.6358,-3.6358,-3.6358,-3.6358,-3.6358,-3.6358,-3.6358,-3.6358,-3.6358,-3.6358,-3.6784,-3.7186,-3.7186,-3.8065,-3.8818,-3.8617,-3.8743,-3.8919,-3.9094,-3.8191,-3.7789,-3.8718,-3.9019,-3.927,-3.9647,-3.9697,-3.9697,-3.9697,-3.9697,-3.9471,-3.8919,-3.8868,-3.8793,-3.8592,-3.9094,-3.9396,-3.9371,-3.9572,-3.9715,-3.9685,-3.5825,-3.4869,-3.668,-3.2851,-3.0912,-3.0809,-2.9458,-2.8545,-3.8728,-3.8773,0.0,-3.8921,-3.8477,0.0,-3.9465,0.0,-3.8921,0.0,0.0,0.0,0.0,0.0,0.0,-3.2619,-3.2339,-3.1984,0.0,-3.0101,0.0,0.0,0.0,0.0,0.0,-3.0636,-3.0392,-2.9148,-2.9863,-2.9977,0.0,0.0,-2.9804,-2.9804,-2.9804,-2.9804,-2.9804,-2.9804,-2.9804,-2.9804,-2.9804,-2.9804,-2.9804,-2.9804,-2.9804,-2.9829,-3.0382,-3.0809,-3.1185,-3.2139,-3.2742,-3.3144,-3.3897,-3.4299,-3.4449,-3.4248,-3.455,-3.5102,-3.5655,-3.583,-3.5881,-3.6232,-3.6358,-3.6358,-3.6358,-3.6358,-3.6408,-3.6609,-3.6508,-3.6408,-3.6609,-3.6508,-3.6358,-3.6358,-3.6784,-3.7236,-3.7437,-3.8216,-3.8919,-3.912,-3.917,-3.927,-3.9647,-3.9094,-3.8743,-3.912,-3.9295,-3.9471,-3.9672,-3.9697,-3.9697,-3.9697,-3.9697,-3.9546,-3.9195,-3.917,-3.917,-3.917,-3.9496,-3.9697,-3.9697,-3.8951,-3.903,-3.9721,-3.3923,-3.2769,-3.6563,-3.2715,-3.0943,-3.081,-2.9754,-2.8933]},{"header":{"parameterUnit":"m.s-1","parameterCategory":1,"la1":30.6,"la2":29.2853,"lo1":-89.7004,"lo2":-87.6739,"dy":0.0162,"dx":0.0183,"nx":112,"ny":82,"refTime":"2023-06-24T12:00:00:Z","depth":0,"parameterNumber":3,"parameterNumberName":"V-component_of_WINDS"},"data":[0.0,0.0,0.0,0.0,0.0,0.0,0.0,0.0,0.0,0.0,0.0,0.0,0.0,0.0,0.0,0.0,0.0,0.0,0.0,0.0,0.0,0.0,0.0,0.0,0.0,0.0,0.0,0.0,0.0,0.0,0.0,0.0,0.0,0.0,0.0,0.0,0.0,0.0,0.0,0.0,0.0,0.0,0.0,0.0,0.0,0.0,0.0,0.0,0.0,0.0,0.0,0.0,0.0,0.0,0.0,0.0,0.0,0.0,0.0,0.0,0.0,0.0,0.0,0.0,0.0,0.0,0.0,0.0,0.0,0.0,0.0,0.0,0.0,0.0,0.0,0.0,0.0,0.0,0.0,0.0,0.0,0.0,0.0,0.0,0.0,0.0,0.0,0.0,0.0,0.0,-3.7639,-3.7749,-3.9841,-4.169,-4.2785,-4.2887,-4.1299,-3.7588,0.0,0.0,0.0,0.0,0.0,0.0,0.0,0.0,0.0,0.0,0.0,0.0,0.0,0.0,0.0,0.0,0.0,0.0,0.0,0.0,0.0,0.0,0.0,0.0,0.0,0.0,0.0,0.0,0.0,0.0,0.0,0.0,0.0,0.0,0.0,0.0,0.0,0.0,0.0,0.0,0.0,0.0,0.0,0.0,0.0,0.0,0.0,0.0,0.0,0.0,0.0,0.0,0.0,0.0,0.0,0.0,0.0,0.0,0.0,0.0,0.0,0.0,0.0,0.0,0.0,0.0,0.0,0.0,0.0,0.0,0.0,0.0,0.0,0.0,0.0,0.0,0.0,0.0,0.0,0.0,0.0,0.0,0.0,0.0,0.0,0.0,0.0,0.0,0.0,0.0,0.0,0.0,0.0,0.0,0.0,0.0,0.0,0.0,0.0,0.0,0.0,0.0,0.0,0.0,-3.7316,-3.8486,-4.021,-4.1639,-4.2227,-4.236,-4.1028,-3.8063,0.0,0.0,0.0,0.0,0.0,0.0,0.0,0.0,0.0,0.0,0.0,0.0,0.0,0.0,0.0,0.0,0.0,0.0,0.0,0.0,0.0,0.0,0.0,0.0,0.0,0.0,0.0,0.0,0.0,0.0,0.0,0.0,0.0,0.0,0.0,0.0,0.0,0.0,0.0,0.0,0.0,0.0,0.0,0.0,0.0,0.0,0.0,0.0,0.0,0.0,0.0,0.0,0.0,0.0,0.0,0.0,0.0,0.0,0.0,0.0,0.0,0.0,0.0,0.0,0.0,0.0,0.0,0.0,0.0,0.0,0.0,0.0,0.0,0.0,0.0,0.0,0.0,0.0,0.0,0.0,0.0,0.0,0.0,0.0,0.0,0.0,0.0,0.0,0.0,0.0,0.0,0.0,0.0,0.0,0.0,0.0,0.0,0.0,0.0,0.0,0.0,0.0,0.0,-3.7021,-3.7584,-3.8741,-4.0592,-4.2185,-4.2972,-4.3057,-4.1798,-3.8635,-3.7169,0.0,0.0,0.0,0.0,0.0,0.0,0.0,0.0,0.0,0.0,0.0,0.0,0.0,0.0,0.0,0.0,0.0,0.0,0.0,0.0,0.0,0.0,0.0,0.0,0.0,0.0,0.0,0.0,0.0,0.0,0.0,0.0,0.0,0.0,0.0,0.0,0.0,0.0,0.0,0.0,0.0,0.0,0.0,0.0,0.0,0.0,0.0,0.0,0.0,0.0,0.0,0.0,0.0,0.0,0.0,0.0,0.0,0.0,0.0,0.0,0.0,0.0,0.0,0.0,0.0,0.0,0.0,0.0,0.0,0.0,0.0,0.0,0.0,0.0,0.0,0.0,0.0,0.0,0.0,0.0,0.0,0.0,0.0,0.0,0.0,0.0,0.0,0.0,0.0,0.0,0.0,0.0,0.0,0.0,0.0,0.0,0.0,0.0,0.0,0.0,0.0,0.0,-3.7461,-3.8164,-3.8995,-4.1018,-4.2823,-4.3753,-4.3399,-4.2042,-3.9239,-3.7182,0.0,0.0,0.0,0.0,0.0,0.0,0.0,0.0,0.0,0.0,0.0,0.0,0.0,0.0,0.0,0.0,0.0,0.0,0.0,0.0,0.0,0.0,0.0,0.0,0.0,0.0,0.0,0.0,0.0,0.0,0.0,0.0,0.0,0.0,0.0,0.0,0.0,0.0,0.0,0.0,0.0,0.0,0.0,0.0,0.0,0.0,0.0,0.0,0.0,0.0,0.0,0.0,0.0,0.0,0.0,0.0,0.0,0.0,0.0,0.0,0.0,0.0,0.0,0.0,0.0,0.0,0.0,0.0,0.0,0.0,0.0,0.0,0.0,0.0,0.0,0.0,0.0,0.0,0.0,0.0,0.0,0.0,0.0,0.0,0.0,0.0,0.0,0.0,0.0,0.0,0.0,0.0,0.0,0.0,0.0,0.0,0.0,0.0,0.0,0.0,0.0,0.0,-3.7913,-3.8915,-3.9585,-4.162,-4.3237,-4.372,-4.2424,-4.0968,-3.9716,-3.6579,0.0,0.0,0.0,0.0,0.0,0.0,0.0,0.0,0.0,0.0,0.0,0.0,0.0,0.0,0.0,0.0,0.0,0.0,0.0,0.0,0.0,0.0,0.0,0.0,0.0,0.0,0.0,0.0,0.0,0.0,0.0,0.0,0.0,0.0,0.0,0.0,0.0,0.0,0.0,0.0,0.0,0.0,0.0,0.0,0.0,0.0,0.0,0.0,0.0,0.0,0.0,0.0,0.0,0.0,0.0,0.0,0.0,0.0,0.0,0.0,0.0,0.0,0.0,0.0,0.0,0.0,0.0,0.0,0.0,0.0,0.0,0.0,0.0,0.0,0.0,0.0,0.0,0.0,0.0,0.0,0.0,0.0,0.0,0.0,0.0,0.0,0.0,0.0,0.0,0.0,0.0,0.0,0.0,0.0,0.0,0.0,0.0,0.0,0.0,0.0,0.0,0.0,-3.7242,-3.8291,-3.9985,-4.1632,-4.2945,-4.4157,-4.3723,-4.2266,-3.9799,0.0,0.0,0.0,0.0,0.0,0.0,0.0,0.0,0.0,0.0,0.0,0.0,0.0,0.0,0.0,0.0,0.0,0.0,0.0,0.0,0.0,0.0,0.0,0.0,0.0,0.0,0.0,0.0,0.0,0.0,0.0,0.0,0.0,0.0,0.0,0.0,0.0,0.0,0.0,0.0,0.0,0.0,0.0,0.0,0.0,0.0,0.0,0.0,0.0,0.0,0.0,0.0,0.0,0.0,0.0,0.0,0.0,0.0,0.0,0.0,0.0,0.0,0.0,0.0,0.0,0.0,0.0,0.0,0.0,0.0,0.0,0.0,0.0,0.0,0.0,0.0,0.0,0.0,0.0,0.0,0.0,0.0,0.0,0.0,0.0,0.0,0.0,0.0,0.0,0.0,0.0,0.0,0.0,0.0,0.0,0.0,0.0,0.0,0.0,0.0,0.0,0.0,-3.6767,-3.7017,-3.7965,-4.0489,-4.1719,-4.2999,-4.4302,-4.372,-4.2312,-4.0034,0.0,0.0,0.0,0.0,0.0,0.0,0.0,0.0,0.0,0.0,0.0,0.0,0.0,0.0,0.0,0.0,0.0,0.0,0.0,0.0,0.0,0.0,0.0,0.0,0.0,0.0,0.0,0.0,0.0,0.0,0.0,0.0,0.0,0.0,0.0,0.0,0.0,0.0,0.0,0.0,0.0,0.0,0.0,0.0,0.0,0.0,0.0,0.0,0.0,0.0,0.0,0.0,0.0,0.0,0.0,0.0,0.0,0.0,0.0,0.0,0.0,0.0,0.0,0.0,0.0,0.0,0.0,0.0,0.0,0.0,0.0,0.0,0.0,0.0,0.0,0.0,0.0,0.0,0.0,0.0,0.0,0.0,0.0,0.0,0.0,0.0,0.0,0.0,0.0,0.0,0.0,0.0,0.0,0.0,0.0,0.0,0.0,0.0,0.0,0.0,0.0,0.0,-3.7284,-3.7338,-3.8216,-4.0981,-4.2323,-4.3174,-4.3736,-4.1729,-4.0505,0.0,0.0,0.0,0.0,0.0,0.0,0.0,0.0,0.0,0.0,0.0,0.0,0.0,0.0,0.0,0.0,0.0,0.0,0.0,0.0,0.0,0.0,0.0,0.0,0.0,0.0,0.0,0.0,0.0,0.0,0.0,0.0,0.0,0.0,0.0,0.0,0.0,0.0,0.0,0.0,0.0,0.0,0.0,0.0,0.0,0.0,0.0,0.0,0.0,0.0,0.0,0.0,0.0,0.0,0.0,0.0,0.0,0.0,0.0,0.0,0.0,0.0,0.0,0.0,0.0,0.0,0.0,0.0,0.0,0.0,0.0,0.0,0.0,0.0,0.0,0.0,0.0,0.0,0.0,0.0,0.0,0.0,0.0,0.0,0.0,0.0,0.0,0.0,0.0,0.0,0.0,0.0,0.0,0.0,0.0,0.0,0.0,0.0,0.0,0.0,0.0,0.0,0.0,-3.6326,-3.661,-3.7839,-4.0971,-4.1547,-4.2343,-4.3685,-4.246,-4.1335,-4.0439,0.0,0.0,0.0,0.0,0.0,0.0,0.0,0.0,0.0,0.0,0.0,0.0,0.0,0.0,0.0,0.0,0.0,0.0,0.0,0.0,0.0,0.0,0.0,0.0,0.0,0.0,0.0,0.0,0.0,0.0,0.0,0.0,0.0,0.0,0.0,0.0,0.0,0.0,0.0,0.0,0.0,0.0,0.0,0.0,0.0,0.0,0.0,0.0,0.0,0.0,0.0,0.0,0.0,0.0,0.0,0.0,0.0,0.0,0.0,0.0,0.0,0.0,0.0,0.0,0.0,0.0,0.0,0.0,0.0,0.0,0.0,0.0,0.0,0.0,0.0,0.0,0.0,0.0,0.0,0.0,0.0,0.0,0.0,0.0,0.0,0.0,0.0,0.0,0.0,0.0,0.0,0.0,0.0,0.0,0.0,0.0,0.0,0.0,0.0,0.0,0.0,0.0,-3.6588,-3.6884,-3.81,-4.0978,-4.1839,-4.2699,-4.41,-4.3755,-4.2932,-4.1647,0.0,0.0,0.0,0.0,0.0,0.0,0.0,0.0,0.0,0.0,0.0,0.0,0.0,0.0,0.0,0.0,0.0,0.0,0.0,0.0,0.0,0.0,0.0,0.0,0.0,0.0,0.0,0.0,0.0,0.0,0.0,0.0,0.0,0.0,0.0,0.0,0.0,0.0,0.0,0.0,0.0,0.0,0.0,0.0,0.0,0.0,0.0,0.0,0.0,0.0,0.0,0.0,0.0,0.0,0.0,0.0,0.0,0.0,0.0,0.0,0.0,0.0,0.0,0.0,0.0,0.0,0.0,0.0,0.0,0.0,0.0,0.0,0.0,0.0,0.0,0.0,0.0,0.0,0.0,0.0,0.0,0.0,0.0,0.0,0.0,0.0,0.0,0.0,0.0,0.0,0.0,0.0,0.0,0.0,0.0,0.0,0.0,0.0,0.0,0.0,0.0,0.0,-3.751,-3.7979,-3.9181,-4.1377,-4.284,-4.4013,-4.5076,-4.528,-4.4774,-4.3489,0.0,0.0,0.0,0.0,0.0,0.0,0.0,0.0,0.0,0.0,0.0,0.0,0.0,0.0,0.0,0.0,0.0,0.0,0.0,0.0,0.0,0.0,0.0,0.0,0.0,0.0,0.0,0.0,0.0,0.0,0.0,0.0,0.0,0.0,0.0,0.0,0.0,0.0,0.0,0.0,0.0,0.0,0.0,0.0,0.0,0.0,0.0,0.0,0.0,0.0,0.0,0.0,0.0,0.0,0.0,0.0,0.0,0.0,0.0,0.0,-3.7453,0.0,0.0,0.0,0.0,0.0,0.0,0.0,0.0,0.0,0.0,0.0,0.0,0.0,0.0,0.0,0.0,0.0,0.0,0.0,0.0,0.0,0.0,0.0,0.0,0.0,0.0,0.0,0.0,0.0,0.0,0.0,0.0,0.0,0.0,0.0,0.0,0.0,0.0,0.0,0.0,0.0,-3.7786,-3.9267,-4.1333,-4.4176,-4.4702,-4.5367,-4.6517,-4.5863,-4.4958,-4.403,-4.2175,0.0,0.0,0.0,0.0,0.0,0.0,0.0,0.0,0.0,0.0,0.0,0.0,0.0,0.0,0.0,0.0,0.0,0.0,0.0,0.0,0.0,0.0,0.0,0.0,0.0,0.0,0.0,0.0,0.0,0.0,0.0,0.0,0.0,0.0,0.0,0.0,0.0,0.0,0.0,0.0,0.0,0.0,0.0,0.0,0.0,0.0,0.0,0.0,0.0,0.0,0.0,0.0,0.0,0.0,0.0,0.0,0.0,0.0,0.0,0.0,-3.8402,0.0,0.0,0.0,0.0,0.0,0.0,0.0,0.0,0.0,0.0,0.0,0.0,0.0,0.0,0.0,0.0,0.0,0.0,0.0,0.0,0.0,0.0,0.0,0.0,0.0,0.0,0.0,0.0,0.0,0.0,0.0,0.0,0.0,0.0,0.0,0.0,0.0,0.0,0.0,0.0,-3.9053,-4.0604,-4.2452,-4.4581,-4.544,-4.622,-4.7052,-4.6897,-4.6276,-4.5279,-4.3661,0.0,0.0,0.0,0.0,0.0,0.0,0.0,0.0,0.0,0.0,0.0,0.0,0.0,0.0,0.0,0.0,0.0,0.0,0.0,0.0,0.0,0.0,0.0,0.0,0.0,0.0,0.0,0.0,0.0,0.0,0.0,0.0,0.0,0.0,0.0,0.0,0.0,0.0,0.0,0.0,0.0,0.0,0.0,0.0,0.0,0.0,0.0,0.0,0.0,0.0,0.0,0.0,0.0,-4.6111,-4.6052,-4.4002,-4.4759,-4.4703,-4.374,-4.1806,-4.04,-3.9396,-3.8718,0.0,0.0,0.0,0.0,0.0,0.0,0.0,0.0,0.0,0.0,0.0,0.0,0.0,0.0,0.0,0.0,0.0,0.0,0.0,0.0,0.0,0.0,0.0,0.0,-4.3479,-4.4018,0.0,0.0,0.0,0.0,0.0,0.0,0.0,0.0,0.0,0.0,0.0,0.0,-4.0699,-4.2129,-4.3572,-4.4836,-4.606,-4.6969,-4.7514,-4.7984,-4.7818,-4.6515,-4.5208,-4.3675,0.0,0.0,0.0,0.0,0.0,0.0,0.0,0.0,0.0,0.0,0.0,0.0,0.0,0.0,0.0,0.0,0.0,0.0,0.0,0.0,0.0,0.0,0.0,0.0,0.0,0.0,0.0,0.0,0.0,0.0,0.0,0.0,-4.1023,-4.2073,0.0,0.0,0.0,0.0,0.0,0.0,0.0,0.0,0.0,0.0,0.0,0.0,0.0,-4.3567,-4.36,-4.6131,-4.642,-4.4494,-4.6875,-4.709,-4.5304,-4.6339,-4.695,-4.7205,-4.6476,0.0,-4.163,-4.0601,0.0,0.0,0.0,0.0,0.0,0.0,0.0,0.0,0.0,0.0,0.0,0.0,0.0,0.0,0.0,0.0,0.0,0.0,0.0,0.0,0.0,0.0,-4.6232,-4.5065,-4.5873,-4.6471,0.0,-4.324,-4.1713,-4.0397,-3.9679,0.0,0.0,0.0,0.0,0.0,0.0,0.0,-4.2067,-4.4251,-4.6278,-4.7644,-4.7911,-4.8358,-4.9014,-4.8626,-4.8001,-4.7256,-4.5873,-4.4793,-4.3935,-4.1579,0.0,0.0,0.0,0.0,0.0,0.0,0.0,0.0,0.0,0.0,0.0,0.0,0.0,0.0,0.0,0.0,0.0,0.0,0.0,0.0,0.0,0.0,0.0,0.0,0.0,0.0,0.0,0.0,0.0,-3.9282,-3.9869,-3.9283,-3.9001,-3.8493,0.0,0.0,0.0,0.0,0.0,0.0,0.0,0.0,0.0,-4.4326,-4.5288,-4.5952,-4.6328,-4.8618,-4.9173,-4.8041,-4.9808,-4.9961,-4.8761,-4.9238,-4.9414,-4.9314,-4.9088,-4.7807,-4.5723,-4.3664,-4.1831,-4.0174,0.0,0.0,0.0,0.0,-4.0748,-4.216,-4.4617,-4.5782,0.0,-4.6022,0.0,0.0,0.0,0.0,0.0,0.0,0.0,0.0,0.0,0.0,-4.7249,-4.704,-4.7997,-4.8476,-4.68,-4.6322,-4.5514,0.0,-4.2372,-4.1594,-3.9828,0.0,0.0,0.0,0.0,-4.2312,-4.3329,-4.5155,-4.6681,-4.7638,-4.7728,-4.7848,-4.8147,-4.7938,-4.7583,-4.7317,-4.6401,-4.5572,-4.4852,-4.3064,-4.1537,0.0,0.0,0.0,0.0,0.0,0.0,0.0,0.0,0.0,0.0,0.0,0.0,0.0,0.0,0.0,0.0,0.0,0.0,0.0,0.0,0.0,0.0,0.0,0.0,0.0,0.0,0.0,0.0,-3.902,-3.9482,-3.7922,-3.902,-3.92,0.0,0.0,0.0,0.0,0.0,0.0,-4.4128,-4.3777,-4.4533,-4.67,-4.7518,-4.8236,-4.8888,-5.0709,-5.1349,-5.0861,-5.1972,-5.2102,-5.1272,-5.1272,-5.1046,-5.0619,-5.0318,-4.9816,-4.8987,-4.6351,-4.4292,-4.2635,-4.1128,-4.0099,-3.9701,-4.0993,-4.2181,-4.3533,-4.6633,-4.8056,-4.8504,-4.8566,0.0,-4.5963,-4.4167,0.0,0.0,0.0,0.0,-4.5304,-4.6322,-4.7309,-4.8087,-4.8237,-4.9284,-4.9733,-4.7938,-4.8327,-4.8177,0.0,-4.4676,-4.3898,-4.1773,0.0,0.0,0.0,0.0,-4.3449,-4.4436,-4.5753,-4.677,-4.7249,-4.7309,-4.7309,-4.7309,-4.7309,-4.7309,-4.7309,-4.6867,-4.631,-4.5841,-4.4327,-4.286,-4.1428,0.0,0.0,0.0,0.0,0.0,0.0,0.0,0.0,0.0,0.0,0.0,0.0,0.0,0.0,0.0,0.0,0.0,0.0,0.0,0.0,0.0,0.0,0.0,0.0,0.0,0.0,0.0,0.0,0.0,-4.1145,-4.2851,0.0,0.0,0.0,0.0,-4.303,-4.3668,-4.484,-4.6641,-4.6718,-4.7461,-4.9226,-5.0325,-5.0898,-5.0664,-5.1944,-5.2128,-5.128,-5.1859,-5.1884,-5.1272,-5.1272,-5.1272,-5.1172,-5.0092,-4.9891,-5.0167,-4.7933,-4.6024,-4.4392,-4.3263,-4.2158,-4.1386,-4.3204,-4.4019,-4.4516,-4.78,-4.8948,-4.9328,-5.1327,-5.0661,-4.8805,-4.7459,-4.6172,0.0,0.0,-4.6621,-4.716,-4.7249,-4.8656,-4.9793,-4.8566,-4.9284,-4.9883,-4.8536,-4.8297,-4.7908,0.0,-4.5693,-4.5005,-4.4257,0.0,-4.318,-4.318,-4.4317,-4.5185,-4.5244,-4.6411,-4.7279,-4.7309,-4.7309,-4.7309,-4.7309,-4.7309,-4.7309,-4.7309,-4.7279,-4.7249,-4.7163,-4.5286,-4.4196,-4.4146,-4.095,0.0,0.0,0.0,0.0,0.0,0.0,0.0,0.0,0.0,0.0,0.0,0.0,0.0,0.0,0.0,0.0,0.0,0.0,0.0,0.0,0.0,0.0,0.0,0.0,0.0,0.0,0.0,0.0,-4.2701,-4.4766,0.0,-4.4377,-4.4494,-4.4937,-4.5576,-4.5944,-4.7191,-4.957,-4.9555,-5.0155,-5.139,-5.1842,-5.1924,-5.1634,-5.1685,-5.1753,-5.18,-5.1649,-5.1473,-5.1272,-5.1272,-5.1071,-5.0695,-4.9916,-4.9715,-4.9791,-4.8661,-4.7431,-4.6175,-4.5422,-4.4443,-4.3576,-4.5265,-4.6732,-4.8133,-5.0246,-5.135,-5.1571,-5.1071,-5.0182,-4.9105,-4.8207,-4.7908,-4.7818,-4.7638,-4.8356,-4.9105,-4.8686,-4.9404,-4.9912,-4.8596,-4.8955,-4.9254,-4.7938,-4.7997,-4.8027,-4.713,-4.677,-4.6232,-4.5125,-4.5125,-4.4975,-4.4107,-4.5095,-4.5963,-4.5963,-4.6741,-4.7309,-4.7309,-4.7309,-4.7309,-4.7309,-4.7309,-4.713,-4.6711,-4.6706,-4.6476,-4.6046,-4.4908,-4.4082,-4.3648,-4.1311,-3.9461,0.0,0.0,0.0,0.0,0.0,0.0,0.0,0.0,0.0,0.0,0.0,0.0,0.0,0.0,0.0,0.0,0.0,0.0,0.0,0.0,0.0,0.0,0.0,0.0,0.0,0.0,-4.4496,-4.4047,-4.6531,-4.7938,-4.704,-4.7497,-4.8195,-4.9123,-4.9118,-4.9881,-5.162,-5.1615,-5.1695,-5.1845,-5.2078,-5.1946,-5.1523,-5.1373,-5.1473,-5.1825,-5.1448,-5.1272,-5.1272,-5.1071,-5.077,-5.0393,-4.9841,-4.959,-4.9565,-4.9012,-4.8234,-4.7355,-4.6979,-4.6276,-4.5565,-4.6908,-4.8284,-4.9666,-5.1413,-5.2528,-5.2935,-5.1409,-5.0451,-4.9853,-4.9404,-4.9434,-4.9553,-4.9344,-4.9733,-5.0152,-4.9703,-5.0092,-5.0242,-4.8925,-4.8955,-4.8955,-4.7878,-4.7818,-4.7818,-4.7399,-4.7309,-4.701,-4.6112,-4.6352,-4.6352,-4.5454,-4.6082,-4.6651,-4.6651,-4.704,-4.7309,-4.7309,-4.7309,-4.7309,-4.7309,-4.71,-4.68,-4.6352,-4.592,-4.54,-4.4988,-4.4373,-4.3773,-4.328,-4.14,-3.9713,-3.8412,0.0,0.0,0.0,0.0,0.0,0.0,0.0,0.0,0.0,0.0,0.0,0.0,0.0,0.0,0.0,0.0,0.0,0.0,0.0,0.0,0.0,0.0,0.0,-4.1713,-4.3808,-4.5484,-4.5544,-4.8328,-5.0299,-5.0329,-5.112,-5.2223,-5.3452,-5.3212,-5.289,-5.2555,-5.2533,-5.1948,-5.0444,-5.0996,-5.1021,-5.0444,-5.0971,-5.1247,-5.1247,-5.1247,-5.1222,-5.1222,-5.0645,-5.0393,-5.0368,-4.9816,-4.9565,-4.9565,-4.8987,-4.8435,-4.7933,-4.7908,-4.7556,-4.7151,-4.8186,-4.8532,-4.8973,-5.1236,-5.2528,-5.3054,-5.2396,-5.1738,-5.1229,-5.1229,-5.078,-5.0391,-5.105,-5.075,-5.0272,-5.0212,-5.069,-5.084,-4.9523,-4.9194,-4.9045,-4.8386,-4.7758,-4.7309,-4.7309,-4.7309,-4.7309,-4.7309,-4.7309,-4.7309,-4.7309,-4.7309,0.0,-4.7309,-4.7309,-4.7309,-4.7309,-4.7309,-4.7309,-4.7309,-4.6711,-4.6292,-4.6262,-4.5011,-4.4268,-4.4288,-4.3617,-4.3299,-4.322,-4.137,-3.9747,-3.8419,0.0,0.0,0.0,0.0,0.0,0.0,0.0,0.0,0.0,0.0,0.0,0.0,0.0,0.0,0.0,0.0,0.0,0.0,0.0,0.0,0.0,0.0,-4.5364,-4.5005,-4.7219,-4.9404,-5.084,-5.163,-5.2281,-5.2746,-5.2182,-5.1961,-5.2311,-5.2376,-5.2126,-5.1656,-5.2419,-5.2253,-5.1071,-5.1599,-5.1599,-5.1046,-5.0795,-5.0645,-5.0645,-5.0243,-5.0067,-5.0042,-4.9891,-4.9816,-4.9791,-4.9238,-4.9213,-4.9515,-4.8535,-4.8309,-4.846,-4.7657,-4.7004,-4.6622,-4.8029,-4.9603,-5.1208,-5.2398,-5.2702,-5.2366,-5.1708,-5.1379,-5.1229,-5.1229,-5.1079,-5.099,-5.1169,-5.1079,-5.072,-4.9793,-4.9673,-4.9464,-4.8147,-4.7848,-4.7788,-4.7608,-4.7429,-4.7309,-4.7309,-4.7309,-4.7309,-4.7309,-4.7309,-4.7309,-4.7309,-4.7309,0.0,-4.7309,-4.7309,-4.7309,-4.7309,-4.7309,-4.7309,-4.7309,-4.6711,-4.5903,-4.4915,-4.4098,-4.3349,-4.2965,-4.2724,-4.2402,-4.1892,-4.095,-3.9757,0.0,0.0,0.0,0.0,0.0,0.0,0.0,0.0,0.0,0.0,0.0,0.0,0.0,0.0,0.0,0.0,0.0,0.0,0.0,0.0,0.0,0.0,-4.5334,-4.7519,-4.8626,-5.0092,-5.1488,-5.2564,-5.2775,-5.2959,-5.327,-5.2388,-5.197,-5.2207,-5.1944,-5.1624,-5.1297,-5.19,-5.1825,-5.0946,-5.1222,-5.1122,-5.0569,-5.0243,-5.0067,-5.0067,-4.9741,-4.959,-4.959,-4.959,-4.959,0.0,-4.9264,-4.9289,-4.9515,-4.8385,-4.8109,0.0,0.0,0.0,0.0,0.0,-5.1468,-5.2909,-5.3089,-5.2755,-5.2097,-5.1439,-5.1229,-5.1229,-5.1229,-5.1229,-5.1229,-5.1229,-5.1229,-5.099,-4.9942,-4.9673,-4.9344,-4.8027,-4.7728,-4.7638,-4.7369,-4.7309,-4.7309,-4.7309,-4.7309,0.0,-4.7309,-4.7309,-4.7309,-4.7309,-4.7309,-4.7309,-4.7309,-4.7309,-4.7309,-4.7309,-4.7309,-4.7309,-4.7309,-4.6441,0.0,0.0,0.0,-4.2192,-4.158,-4.1863,0.0,0.0,0.0,-4.0698,-3.9631,0.0,0.0,0.0,-3.859,-3.8567,0.0,0.0,0.0,0.0,0.0,0.0,0.0,0.0,0.0,0.0,0.0,0.0,0.0,0.0,0.0,0.0,-4.7309,-4.9583,-5.2067,-5.2486,-5.2447,-5.2116,-5.2464,-5.2509,-5.2283,-5.1803,-5.18,-5.2428,-5.1739,-5.1197,-5.1197,0.0,0.0,0.0,0.0,-5.0142,-4.9615,-4.959,-4.959,-4.959,-4.959,-4.959,-4.959,-4.959,-4.959,-4.959,-4.959,-4.959,-4.9515,-4.8385,-4.7957,-4.8027,-4.8651,-4.9035,-4.9542,-5.1815,-5.3186,-5.3784,-5.3384,0.0,0.0,-5.1409,-5.1229,-5.1229,-5.1229,-5.1229,-5.1199,-5.1139,-5.1109,-5.093,-5.0212,-5.0032,-4.9703,-4.8476,-4.8177,-4.8027,-4.7429,-4.7309,-4.7309,-4.7309,-4.7309,-4.7309,-4.7309,-4.7309,-4.7309,-4.7309,-4.7309,-4.7309,-4.7309,-4.7309,-4.7309,-4.7309,0.0,0.0,-4.7309,-4.6082,-4.5274,-4.5185,-4.2899,-4.1235,-4.062,-4.1222,-4.1568,-4.1498,-4.2138,-4.2065,-4.1377,-4.1385,-4.1428,-4.1504,-3.9565,-3.94,0.0,0.0,0.0,0.0,0.0,0.0,0.0,0.0,0.0,0.0,0.0,0.0,0.0,0.0,0.0,-4.6651,-4.9464,-5.2007,-5.3593,-5.4281,-5.4167,-5.2972,-5.223,-5.1536,-5.0762,-4.9832,-4.9825,-5.0839,-5.0625,-5.0569,-5.0569,-5.1021,-5.082,-4.9791,-5.0193,-5.0142,-4.9615,-4.959,-4.959,-4.959,0.0,0.0,-4.959,-4.959,-4.959,-4.959,-4.959,-4.959,-4.9515,-4.8385,-4.809,-4.829,-4.7291,-4.7571,-4.8895,-5.0546,-5.1343,-5.1773,-5.2812,-5.2396,-5.1379,-5.1259,-5.1229,-5.1229,-5.1229,-5.1229,0.0,-5.0571,-5.0421,-5.0152,-4.8955,-4.8656,-4.8476,-4.7668,-4.7489,-4.7459,-4.7339,-4.7309,-4.7309,-4.7309,-4.7309,-4.7309,-4.7309,-4.7309,-4.7309,-4.7309,-4.7309,-4.7309,-4.7309,-4.7309,-4.7309,-4.7309,-4.7309,-4.7309,-4.7309,-4.6082,-4.5065,-4.4526,-4.3012,-4.218,-4.2035,-4.2609,-4.2713,-4.2228,-4.2317,-4.2049,-4.1351,-4.1391,-4.1676,-4.2179,-4.1262,-4.092,0.0,0.0,0.0,0.0,0.0,0.0,0.0,0.0,0.0,0.0,0.0,-4.2073,0.0,0.0,-4.6471,-4.8446,-5.0421,-5.2067,-5.3054,-5.3118,-5.2791,-5.1966,-5.1711,-5.0987,-4.9256,-4.8632,-4.8812,-4.9916,-4.9741,-4.9715,-4.9992,-5.0293,-5.0167,-4.9615,-4.9866,-4.9866,-4.959,-4.959,-4.959,-4.959,-4.959,-4.959,-4.959,-4.959,-4.959,-4.959,-4.959,-4.959,-4.9515,-4.8385,-4.7897,-4.7709,-4.6642,-4.8094,-5.074,-5.0713,-5.1456,-5.2599,-5.2247,-5.1483,-5.0728,-5.113,-5.0698,-5.0287,-5.1011,-5.099,-5.0661,-5.0331,-5.0002,-4.9523,-4.8536,-4.8297,-4.8117,-4.7459,-4.7309,-4.7309,-4.7309,-4.7309,-4.7309,-4.7309,-4.7309,-4.7309,-4.7309,-4.7309,-4.7309,-4.7309,-4.7309,-4.7309,-4.7309,-4.7309,-4.7309,-4.7309,-4.7309,-4.716,-4.683,-4.5574,-4.4377,-4.3389,-4.2749,-4.2289,-4.1923,-4.2788,-4.2999,-4.2396,-4.3021,-4.3021,-4.2396,-4.2396,-4.2485,-4.2823,-4.2503,-4.2372,0.0,0.0,0.0,0.0,0.0,0.0,0.0,0.0,-4.2176,-4.2485,-4.315,-4.4197,-4.5783,-4.6741,-4.8057,-5.0421,-5.1379,-5.2037,-5.2695,-5.2258,-5.1575,-5.0823,-5.0821,-4.9997,-4.7929,-4.7657,-4.8058,-4.9188,-4.8862,-4.8837,-4.9414,-4.954,-4.959,-4.959,-4.959,-4.959,-4.959,-4.959,-4.959,-4.959,-4.959,-4.959,-4.959,-4.959,-4.959,-4.959,-4.959,-4.954,-4.9364,-4.8335,-4.7606,-4.7079,-4.6527,-4.8647,-5.1972,-5.0713,-5.1761,-5.3473,-5.1292,-5.0252,-4.9825,-5.0618,-5.0095,-4.9455,-5.0793,-5.075,-5.0212,-5.0092,-4.9583,-4.8925,-4.8267,-4.8087,-4.7967,-4.7429,-4.7309,-4.7309,-4.7309,-4.7309,-4.7309,-4.7309,-4.7309,-4.7309,-4.7309,-4.7309,-4.7309,-4.7309,-4.7309,-4.7309,-4.7309,-4.7309,-4.7309,-4.7309,-4.7309,-4.704,-4.6381,-4.5095,-4.3928,-4.3,-4.2674,-4.2376,-4.197,-4.2821,-4.3061,-4.26,-4.3599,-4.3818,-4.3329,-4.3329,-4.3329,-4.3329,-4.3329,-4.3329,-4.1487,-4.1096,-4.1948,-4.4553,-4.4823,-4.5135,0.0,0.0,-4.7082,-4.6743,-4.7638,-4.8566,-4.8775,-4.9823,-5.1139,-5.2606,-5.3414,-5.4102,-5.476,-5.4809,-5.3788,-5.1016,-4.9216,-4.7858,-4.7227,-4.6778,-4.6928,-4.8008,-4.8033,-4.8259,-4.8837,-4.9339,-4.959,-4.959,-4.959,-4.959,-4.959,-4.959,-4.959,-4.959,-4.959,-4.959,-4.959,-4.959,-4.959,-4.959,-4.959,-4.9314,-4.8812,-4.8184,-4.7606,-4.7079,-4.6527,-4.7416,-4.8965,-4.8877,-5.0244,-5.1926,-4.9883,-4.8714,-4.8311,-4.9165,-4.9357,-4.9455,-5.0793,-5.075,-5.0122,-4.9523,-4.8895,-4.8237,-4.7578,-4.7429,-4.7399,-4.7309,-4.7309,-4.7309,-4.7309,-4.7309,-4.7309,-4.7309,-4.7309,-4.7309,-4.7309,-4.7309,-4.7309,-4.7309,-4.7309,-4.7309,-4.7309,-4.7309,-4.7309,-4.7309,-4.7309,-4.704,-4.6381,-4.5095,-4.4496,-4.4945,-4.3817,-4.3468,-4.3946,-4.3528,-4.3294,-4.3227,-4.3382,-4.3359,-4.3329,-4.3329,-4.3329,-4.3329,-4.3329,-4.3329,-4.2544,-4.3049,0.0,0.0,-4.6109,-4.7497,-4.8646,-4.816,-4.7688,-4.8583,-4.9008,-4.9374,-4.9763,-5.09,-5.1977,0.0,-5.3503,-5.4162,-5.4042,-5.368,-5.2791,-5.1031,-4.9035,-4.7586,-4.7151,-4.6627,-4.6753,-4.7832,-4.7908,-4.8159,-4.8736,-4.9289,-4.9741,-5.0067,-4.9766,-4.9741,-5.0067,-4.9766,-4.959,-4.959,-4.959,-4.959,-4.959,-4.959,-4.959,-4.9565,-4.9264,-4.8987,-4.8711,-4.7832,-4.733,-4.7079,-4.6527,-4.7205,-4.8416,-4.7534,-4.8706,-5.05,-4.8355,-4.7244,-4.6973,-4.7699,-4.801,-4.8154,-4.9117,-4.9597,-4.9433,-4.7992,-4.7134,-4.6398,-4.5384,-4.5689,-4.6166,-4.6166,-4.6726,-4.7309,-4.7309,-4.7309,-4.7189,-4.68,-4.704,-4.7189,-4.68,-4.704,-4.7309,-4.7309,-4.7309,-4.7309,-4.7309,-4.7309,-4.7309,-4.7309,-4.6591,-4.6022,-4.5753,-4.4855,-4.4257,-4.4167,-4.3629,-4.3419,-4.3728,-4.3788,-4.3698,-4.3284,-4.3328,-4.3145,-4.2788,-4.2809,-4.2753,-4.2809,-4.315,-4.3329,-4.2962,0.0,0.0,-4.4925,-4.6955,-4.8971,-4.8894,-4.8382,-4.8314,-4.9781,-4.963,-4.9583,-5.0601,-5.1409,-5.2127,-5.2665,-5.3563,-5.4042,-5.3533,-5.3006,-5.2297,-5.1148,-4.9224,-4.7819,-4.7248,-4.6667,-4.6627,-4.7405,-4.7732,-4.8083,-4.851,-4.9213,-4.9766,-5.0167,-4.9791,-4.9791,-5.0193,-4.9791,-4.959,-4.959,-4.959,-4.959,-4.959,-4.959,-4.9515,-4.9339,-4.8937,-4.8686,-4.846,-4.7531,-4.7129,-4.7079,-4.6527,-4.6891,-4.751,-4.6408,-4.7482,-4.8953,-4.6678,-4.5735,-4.5485,-4.6272,-4.6365,-4.6456,-4.7447,-4.7854,-4.7717,-4.6268,-4.5417,-4.4627,-4.3787,-4.4163,-4.4932,-4.5298,-4.6077,-4.6844,-4.7222,-4.716,-4.695,-4.6651,-4.683,-4.695,-4.6651,-4.698,-4.7309,-4.7309,-4.716,-4.71,-4.7279,-4.7309,-4.7309,-4.7309,-4.6112,-4.5364,-4.5574,-4.4646,-4.3988,-4.3898,-4.3539,-4.3369,-4.3558,-4.3828,-4.3788,-4.3329,-4.3329,-4.3055,-4.2602,-4.2634,-4.2671,-4.2659,-4.309,-4.3329,-4.2067,0.0,-4.3842,-4.5297,-4.7361,-4.9106,-4.9554,-4.9904,-5.0216,-5.0683,-4.9965,-4.9853,-5.1798,-5.1648,-5.1887,-5.3832,-5.4192,-5.4192,-5.4192,-5.4192,-5.3325,-5.1279,-4.9687,-4.8518,0.0,-4.6754,-4.6326,-4.6351,-4.733,-4.7908,-4.7933,-4.8987,-4.9615,-4.9615,-4.9615,-4.9615,-4.9615,-4.9615,-4.959,-4.959,-4.959,-4.959,-4.959,-4.959,-4.9314,-4.8786,-4.8786,-4.846,-4.7883,-4.7355,-4.7129,-4.7079,-4.6527,-4.5974,-4.5641,-4.5497,-4.6476,-4.7389,-4.4738,-4.3929,-4.4029,-4.4826,-4.4652,-4.4518,-4.5907,-4.5579,-4.4608,-4.4608,-4.4069,-4.3598,-4.3504,-4.3504,-4.3882,-4.5115,-4.5389,-4.5779,-4.7019,-4.68,-4.6531,-4.716,-4.677,-4.6561,-4.716,-4.7309,-4.7309,-4.7309,-4.677,-4.6591,-4.7219,-4.7309,-4.7309,-4.7309,-4.6112,-4.5574,-4.6232,-4.4496,-4.3898,-4.5155,-4.4047,-4.3588,-4.4205,-4.3647,-4.3359,-4.3329,-4.3329,-4.3299,-4.3269,-4.3304,-4.3257,-4.3299,-4.3329,-4.3329,-4.2502,0.0,-4.4553,-4.6041,-4.7733,-4.9328,-5.0456,-5.0644,-5.0552,-5.0406,-4.9315,-4.8408,-4.8923,-4.9494,-5.0272,-5.1379,-5.3054,-5.4221,-5.4221,-5.4581,-5.4082,-5.1984,-5.1655,0.0,0.0,0.0,0.0,-4.6803,-4.7506,-4.8083,-4.846,-4.9188,-4.9766,-5.0117,-4.9791,-4.9766,-5.0142,-4.9766,-4.959,-4.959,-4.959,-4.959,-4.959,-4.959,-4.9289,-4.8761,-4.836,-4.7883,-4.733,-4.6426,-4.605,-4.5974,-4.5422,-4.507,-4.4869,-4.4493,-4.4687,-4.4954,-4.4143,-4.3313,-4.2771,-4.3008,-4.3384,-4.3647,-4.3761,-4.4031,-4.4208,-4.2949,-4.2413,-4.2084,-4.1219,-4.1591,-4.2544,-4.3882,-4.4407,-4.5167,-4.6929,-4.6411,-4.5843,-4.6531,-4.6471,-4.6381,-4.6621,-4.701,-4.716,-4.6711,-4.6471,-4.6232,-4.5992,-4.5574,-4.5484,-4.5933,-4.5185,-4.4736,-4.4975,-4.4377,-4.3988,-4.3988,-4.3569,-4.3399,-4.3617,-4.3429,-4.3329,-4.3329,-4.2932,-4.2514,-4.2043,-4.2491,-4.2462,-4.2073,-4.294,-4.3329,-4.2843,-4.3802,-4.4925,-4.6413,-4.7699,-4.8984,-5.0473,-5.0393,-4.9954,-4.9865,-4.8403,-4.6985,-4.6941,-4.7638,-4.8416,-4.9075,-5.102,-5.2606,-5.3084,-5.3503,-5.3473,-5.2636,-5.2602,-5.2043,0.0,0.0,0.0,-4.6778,-4.7707,-4.8209,-4.8184,-4.9088,-4.9665,-4.9816,-4.9665,-4.9766,-5.0117,-4.9766,-4.959,-4.959,-4.9389,-4.9289,-4.9289,-4.9088,-4.8686,-4.8159,-4.7581,-4.7029,-4.6476,-4.5547,-4.5171,-4.5146,-4.4769,-4.4493,-4.4267,-4.3714,-4.3388,-4.3237,-4.3438,-4.2911,-4.2158,-4.2158,-4.2251,-4.2268,-4.1905,-4.2229,-4.2564,-4.1224,-4.0945,-4.0743,-3.9878,-4.0262,-4.1167,-4.2274,-4.3148,-4.4195,-4.5933,-4.5798,-4.5514,-4.6202,-4.6322,-4.6322,-4.6322,-4.6681,-4.6651,-4.5753,-4.5603,-4.5544,-4.5334,-4.4915,-4.4825,-4.5244,-4.4706,-4.4317,-4.4317,-4.4107,-4.3778,-4.3359,-4.3329,-4.3329,-4.3329,-4.3329,-4.3329,-4.3329,-4.2962,-4.2544,-4.2073,-4.2491,-4.2491,-4.2102,-4.294,-4.3329,-4.3166,-4.3939,-4.4925,-4.638,-4.7293,-4.824,-4.9661,-4.9324,-4.8748,-4.9116,-4.7347,-4.5819,0.0,0.0,-4.6441,-4.713,-4.8446,-4.9823,-5.1139,-5.1349,-5.1828,0.0,0.0,0.0,0.0,0.0,0.0,-4.6617,0.0,-4.8309,-4.7305,-4.8736,-4.9364,-4.8837,-4.9314,-4.959,-4.959,-4.959,-4.959,-4.954,-4.9012,-4.8761,-4.8711,-4.8159,-4.7606,-4.7054,-4.6552,-4.5974,-4.5397,-4.4819,-4.4593,-4.4593,-4.4543,-4.4192,-4.3664,-4.3137,-4.2585,-4.2183,-4.271,-4.2534,-4.2057,-4.2057,-4.1354,-4.0475,-4.0475,-4.0099,-3.9697,-3.9697,-3.9697,-3.9697,-3.9697,-3.9697,-3.9854,-4.0638,-4.1585,-4.2777,-4.4317,-4.4961,-4.543,-4.6232,-4.6381,-4.6352,-4.6292,-4.6292,-4.5873,-4.4526,-4.4317,-4.4526,-4.5125,-4.5185,-4.5185,-4.5185,-4.4646,-4.4257,-4.4257,-4.3688,-4.3329,-4.3329,-4.3329,-4.3329,-4.3329,-4.3329,-4.3329,-4.3329,-4.3329,-4.325,-4.322,-4.3257,-4.3257,-4.3269,-4.3329,-4.3329,-4.3865,-4.4316,-4.479,-4.5737,-4.6549,-4.7327,-4.8274,-4.9102,-4.9389,-4.8191,-4.7134,-4.5837,0.0,0.0,0.0,-4.6466,-4.8895,0.0,-5.2486,-5.3114,0.0,-5.3204,0.0,-5.3994,-5.3069,-5.2721,0.0,0.0,-4.86,-4.8385,-4.8937,-4.9364,-4.954,-4.9389,-4.9515,-4.959,-4.959,-4.959,-4.9389,-4.8987,-4.8837,-4.8535,-4.8134,-4.7983,-4.7405,-4.6527,-4.6376,-4.5748,-4.4794,-4.4242,-4.4016,-4.3966,-4.3564,-4.3062,-4.2559,-4.2409,-4.2007,-4.1555,-4.1706,-4.1404,-4.0927,-4.0927,-4.0475,-3.9898,-3.9898,-3.9798,-3.9697,-3.9697,-3.9697,-3.9697,-3.9697,-3.9697,-3.9955,-4.1136,-4.1232,-4.1883,-4.459,-4.4559,-4.4528,-4.6629,-4.707,-4.6741,-4.5723,-4.5992,-4.5873,-4.4526,-4.4317,-4.4197,-4.3868,-4.3838,-4.3838,-4.3838,-4.3688,-4.3569,-4.3569,-4.3419,-4.3329,-4.3329,-4.3329,-4.3329,-4.3329,-4.3329,-4.3329,-4.3329,-4.3329,-4.3051,-4.2624,-4.306,-4.3097,-4.2611,-4.312,-4.3329,-4.3872,-4.4218,-4.4823,-4.5906,-4.6481,-4.6921,-4.7327,-4.8071,-4.8164,-4.6482,-4.5596,0.0,-4.2583,-4.3828,0.0,0.0,0.0,0.0,-5.2067,-5.2665,-5.3294,0.0,-5.5149,0.0,-5.5272,-5.4612,-5.3668,0.0,-5.0289,-4.9161,-4.8837,-4.9088,-4.9238,-4.9238,-4.9238,-4.9339,-4.959,-4.9364,-4.9088,-4.8761,-4.8284,-4.7883,-4.7556,-4.733,-4.6753,-4.5924,0.0,-4.507,-4.4217,-4.3664,-4.3288,-4.3037,-4.2735,-4.2283,-4.1781,-4.153,-4.1229,-4.0953,-4.0701,-4.0425,-4.0199,-4.0425,-4.0149,-3.9697,-3.9697,-3.9697,-3.9697,-3.9697,-3.9521,-3.9396,-3.9622,-3.9521,-3.9525,-4.0282,-4.0984,-4.1951,-4.3778,-4.4409,-4.5226,-4.6927,-4.707,-4.6621,-4.5873,-4.5813,-4.5514,-4.4466,-4.4077,-4.3748,-4.3389,-4.3329,-4.3329,-4.3329,-4.3329,-4.3329,-4.3329,-4.3329,-4.3329,-4.3329,-4.3329,-4.3329,-4.3329,-4.3329,-4.3329,-4.3329,-4.3329,-4.316,-4.2793,-4.316,-4.315,-4.2791,-4.315,-4.3329,-4.3973,-4.435,-4.5196,-4.6481,-4.6853,-4.6887,-4.6684,-4.6718,-4.6338,-4.4655,0.0,-4.2997,-4.1946,-4.3169,-4.4174,-4.3668,0.0,-4.8297,-5.1079,-5.1468,-5.2606,-5.5688,-5.6047,-5.6526,-5.7752,-5.5879,-5.454,-5.4173,-5.2044,-5.0019,-4.8158,-4.856,-4.8887,-4.8887,-4.8887,-4.9113,-4.959,-4.9063,-4.8736,-4.8636,-4.7631,-4.7104,-4.7004,-4.6527,-4.5974,-4.5347,-4.4844,0.0,-4.3664,-4.3162,-4.266,-4.2158,-4.2158,-4.1781,-4.1178,-4.0701,-4.0475,-4.035,-3.9848,-3.9697,-3.9772,-4.0249,-4.0074,-3.9697,-3.9697,-3.9697,-3.9697,-3.9697,-3.9295,-3.8994,-3.9546,-3.927,-3.8894,-3.8969,-4.0586,-4.2261,-4.273,-4.4671,-4.6591,-4.707,-4.68,-4.6411,-4.6232,-4.5753,-4.5185,-4.4436,-4.3838,-4.3419,-4.3329,-4.3329,-4.3329,-4.3329,-4.3329,-4.3329,-4.3329,-4.3329,-4.3329,-4.3329,-4.3329,-4.3329,-4.3329,-4.3329,-4.3329,-4.3329,-4.3329,-4.3329,-4.3329,-4.3329,-4.3329,-4.3329,-4.3329,-4.3329,-4.593,-4.6312,-4.6481,-4.6718,-4.7259,-4.7394,-4.6177,-4.6346,0.0,0.0,-4.3898,-4.3019,-4.2109,-4.2573,-4.3407,-4.4749,-4.6262,-4.8596,-5.2306,-5.2845,-5.3473,0.0,-5.5359,-5.5658,-5.6436,-5.4562,0.0,0.0,0.0,-4.9343,-4.8687,-4.9138,-4.9464,-4.9464,-4.9464,-4.949,-4.959,-4.9063,-4.8535,-4.8058,-4.7431,-4.6903,-4.6451,-4.6351,-4.5748,-4.4769,-4.4669,0.0,-4.3112,-4.3011,-4.266,-4.2158,-4.2158,-4.153,-4.0651,-4.0551,-4.0224,-3.9823,-3.9722,-3.9697,-3.9722,-3.9798,-3.9772,-3.9697,-3.9697,-3.9697,-3.9697,-3.9697,-3.9295,-3.8994,-3.9546,-3.927,-3.8994,-3.9446,-3.9829,-4.0789,-4.2863,-4.5335,-4.701,-4.6591,-4.683,-4.677,-4.5663,-4.5843,-4.5723,-4.4496,-4.4227,-4.3958,-4.3389,-4.3329,-4.3329,-4.3329,-4.3329,-4.3329,-4.3329,-4.3329,-4.3329,-4.3329,-4.3329,-4.3329,-4.3329,-4.3329,-4.3329,-4.3329,-4.3329,-4.3329,-4.3329,-4.3329,-4.3329,-4.3329,-4.3329,-4.3329,-4.6989,-4.7361,-4.7564,-4.8308,-4.8477,-4.8003,-4.6143,0.0,0.0,-4.3775,-4.3022,-4.2589,-4.2109,-4.2359,0.0,-4.3668,-4.5185,-4.7519,-5.1139,-5.1947,0.0,-5.5418,-5.5388,-5.5568,0.0,-5.5101,0.0,0.0,0.0,-4.9864,-4.8385,-4.856,-4.8586,-4.8335,-4.8586,-4.8711,-4.8711,-4.8184,-4.7782,-4.7506,-4.6954,-4.6577,-4.6301,-4.6024,-4.5422,-4.4593,-4.4317,0.0,-4.2585,-4.2861,-4.2484,-4.1731,-4.1731,-4.1229,-4.0475,-4.0199,-3.9923,-3.9697,-3.9697,-3.9697,-3.9697,-3.9697,-3.9496,-3.932,-3.9597,-3.9496,-3.932,-3.9622,-3.9295,-3.8994,-3.9546,-3.927,-3.9019,-3.9572,-4.016,-4.1419,-4.3975,-4.5479,-4.6462,-4.6718,-4.71,-4.71,-4.6441,-4.6322,-4.6112,-4.5454,-4.4766,-4.4197,-4.3898,-4.3539,-4.3329,-4.3329,-4.3329,-4.3329,-4.3329,-4.3329,-4.3329,-4.3329,-4.3329,-4.3329,-4.3329,-4.3329,-4.3329,-4.3329,-4.3329,-4.3329,-4.3329,-4.3329,-4.3329,-4.3329,-4.3329,-4.3329,-4.8037,-4.8511,-4.8917,-5.0033,-4.9796,-4.8646,-4.6447,-4.5805,-4.5094,-4.2963,-4.2209,-4.1922,-4.1981,0.0,-4.2096,0.0,-4.3778,-4.6082,-4.9553,-5.072,-5.2336,0.0,-5.5418,0.0,-5.6406,0.0,0.0,0.0,0.0,0.0,-4.7982,-4.7807,-4.7606,-4.7305,-4.7682,-4.7908,-4.7908,-4.738,-4.7129,-4.7129,-4.6577,-4.625,-4.6125,-4.5673,-4.5045,-4.4242,-4.3815,0.0,0.0,-4.2585,-4.2233,-4.1329,-4.1329,-4.1003,-4.045,-3.9898,-3.9697,-3.9697,-3.9697,-3.9697,-3.9697,-3.9697,-3.9396,-3.912,-3.9572,-3.9396,-3.9145,-3.9572,-3.9295,-3.8994,-3.9546,-3.927,-3.9019,-3.9572,-4.0642,-4.2279,-4.4535,-4.5207,-4.5779,-4.7019,-4.7309,-4.7309,-4.7309,-4.686,-4.6501,-4.6352,-4.5424,-4.4646,-4.4347,-4.3988,-4.3688,-4.3569,-4.3419,-4.3389,-4.3539,-4.3419,-4.3329,-4.3329,-4.3329,-4.3329,-4.3329,-4.3329,-4.3329,-4.3329,-4.3329,-4.3329,-4.3329,-4.3329,-4.3329,-4.3329,-4.3329,-4.3329,-4.9661,-5.0405,-5.0947,-5.1082,-5.0541,-4.9424,-4.7192,-4.6177,-4.5263,-4.3639,-4.2078,-4.1244,-4.1853,0.0,0.0,0.0,0.0,-4.4885,-4.8805,-5.0421,-5.2007,-5.4132,0.0,0.0,-5.4521,0.0,0.0,0.0,0.0,0.0,-4.7807,-4.7456,-4.7405,-4.7832,-4.7883,-4.7908,-4.7908,-4.738,-4.7129,-4.7129,-4.6577,-4.605,-4.5573,-4.5522,-4.4618,-4.3112,-4.3062,0.0,0.0,-4.2007,-4.1882,-4.1329,-4.1329,-4.1003,-4.045,-3.9898,-3.9697,-3.9697,-3.9697,-3.9697,-3.9697,-3.9697,-3.9672,-3.9622,-3.9672,-3.9672,-3.9622,-3.9672,-3.9295,-3.8994,-3.9546,-3.927,-3.9019,-3.9572,-4.0642,-4.1985,-4.3409,-4.4535,-4.5779,-4.7019,-4.7309,-4.7309,-4.7309,-4.7249,-4.701,-4.6411,-4.6232,-4.5693,-4.4466,-4.4796,-4.4885,-4.4287,-4.3688,-4.3569,-4.4167,-4.3688,-4.3329,-4.3329,-4.3329,-4.3329,-4.3329,-4.3329,-4.3329,-4.3329,-4.3329,-4.3329,-4.3329,-4.3329,-4.3329,-4.3329,-4.3329,-4.3329,-5.0202,-5.1657,-5.2539,-5.2294,-5.1464,-5.0015,-4.7079,-4.6001,-4.4976,-4.244,-4.1746,-4.147,-4.1299,-4.0239,0.0,0.0,0.0,0.0,-4.6441,-4.7698,-4.9434,-5.2636,-5.2875,0.0,0.0,0.0,0.0,0.0,0.0,0.0,-4.5899,-4.6075,-4.6075,-4.5949,-4.6276,-4.6451,-4.6451,-4.625,-4.6301,-4.6627,-4.6075,-4.5698,-4.5472,-4.4769,-4.3915,-4.2961,-4.2635,0.0,0.0,-4.143,-4.1354,-4.0852,-4.0852,-4.0701,-4.045,-3.9898,-3.9697,-3.9697,-3.9697,-3.9697,-3.9697,-3.9697,-3.9697,-3.9697,-3.9697,-3.922,-3.8818,-3.9496,-3.9295,-3.8919,-3.9145,-3.8768,-3.8492,-3.9069,-3.9576,-4.043,-4.2003,-4.3409,-4.4514,-4.5374,-4.646,-4.7189,-4.677,-4.704,-4.7219,-4.695,-4.6591,-4.6142,-4.5603,-4.5394,-4.5364,-4.5514,-4.4915,-4.4466,-4.4317,-4.4077,-4.3748,-4.3359,-4.3329,-4.3329,-4.3329,-4.3329,-4.3329,-4.3329,-4.3329,-4.3329,-4.3329,-4.3329,-4.3329,-4.3329,-4.3329,-4.3329,-4.9459,-5.1258,-5.2582,-5.2515,-5.1361,-4.9655,0.0,-4.5962,-4.4731,-4.2077,-4.1882,-4.2027,-4.1448,-4.0416,-3.9858,0.0,0.0,-4.2162,-4.4407,-4.5663,-4.7489,0.0,0.0,0.0,0.0,0.0,0.0,0.0,0.0,0.0,-4.4367,-4.4769,-4.4869,-4.4644,-4.502,-4.5221,-4.5221,-4.5221,-4.5422,-4.5799,-4.5422,-4.5146,-4.4945,-4.3991,-4.3162,-4.2459,-4.1907,0.0,0.0,-4.0877,-4.0877,-4.0526,-4.0526,-4.0526,-4.045,-3.9898,-3.9697,-3.9697,-3.9697,-3.9697,-3.9697,-3.9697,-3.9471,-3.9245,-3.9597,-3.9145,-3.8642,-3.927,-3.9044,-3.8642,-3.8818,-3.8567,-3.8391,-3.8969,-3.8994,-3.9398,-4.1188,-4.2215,-4.3078,-4.4424,-4.5756,-4.6695,-4.6595,-4.701,-4.7309,-4.7309,-4.692,-4.6531,-4.6352,-4.6082,-4.5992,-4.6292,-4.6052,-4.5544,-4.4676,-4.4436,-4.4018,-4.3359,-4.3329,-4.3329,-4.3329,-4.3329,-4.3329,-4.3329,-4.3329,-4.3329,-4.3329,-4.3329,-4.3329,-4.3329,-4.3329,-4.3329,-4.7355,-4.8871,-5.0589,-5.1261,-4.9853,-4.8125,0.0,0.0,-4.4733,-4.3259,-4.2868,-4.2664,-4.2664,-4.145,-4.0397,-4.0397,-4.0935,-4.1863,-4.321,-4.5095,0.0,0.0,0.0,0.0,0.0,0.0,0.0,0.0,0.0,0.0,-4.379,-4.3815,-4.4066,-4.4593,-4.4644,-4.4644,-4.4644,-4.4644,-4.4644,-4.4644,-4.4644,-4.4342,-4.379,-4.3237,-4.2384,0.0,0.0,0.0,0.0,-4.03,-4.0526,-4.0526,-4.0526,-4.0526,-4.045,-3.9898,-3.9697,-3.9697,-3.9697,-3.9697,-3.9697,-3.9697,-3.8944,-3.8241,-3.9346,-3.9697,-3.9572,-3.9019,-3.8467,-3.814,-3.8718,-3.8868,-3.8994,-3.9546,-3.927,-3.9398,-4.1188,-4.1142,-4.1746,-4.479,-4.5389,-4.5779,-4.7106,-4.7309,-4.7309,-4.7309,-4.7309,-4.707,-4.6411,-4.689,-4.704,-4.6381,-4.689,-4.6741,-4.5394,-4.4676,-4.4018,-4.3359,-4.3329,-4.3329,-4.3329,-4.3329,-4.3329,-4.3329,-4.3329,-4.3329,-4.3329,-4.3329,-4.3329,-4.3329,-4.3329,-4.3329,-4.5548,-4.7187,-4.8381,-4.8355,-4.7616,-4.6621,-4.5511,0.0,-4.3876,-4.2232,-4.2325,-4.2479,-4.1923,-4.143,-4.1205,-4.1654,-4.1923,-4.2372,-4.324,0.0,0.0,0.0,0.0,0.0,0.0,0.0,0.0,0.0,0.0,0.0,-4.2685,-4.2685,-4.2936,-4.3489,-4.3865,-4.4066,-4.4066,-4.4066,-4.4242,-4.4618,-4.4242,-4.3765,-4.3212,-4.266,-4.1806,0.0,0.0,0.0,0.0,-3.9873,-3.9948,-3.9948,-3.9948,-3.9948,-3.9923,-3.9747,-3.9697,-3.9697,-3.9697,-3.9697,-3.9697,-3.9697,-3.9446,-3.922,-3.9597,-3.9145,-3.8492,-3.8341,-3.7864,-3.7487,-3.7663,-3.7713,-3.7965,-3.8919,-3.8994,-3.9398,-4.1188,-4.1796,-4.2461,-4.4338,-4.5405,-4.6162,-4.6535,-4.701,-4.7309,-4.7309,-4.7309,-4.7219,-4.701,-4.7189,-4.7219,-4.701,-4.7189,-4.677,-4.5394,-4.5095,-4.4496,-4.3389,-4.3329,-4.3329,-4.3329,-4.3329,-4.3329,-4.3329,-4.3329,-4.3329,-4.3329,-4.3329,-4.3329,-4.3329,-4.3329,-4.3329,0.0,-4.4642,-4.5966,-4.6265,-4.5696,0.0,0.0,0.0,0.0,0.0,0.0,0.0,-4.2179,-4.1923,-4.1893,-4.2282,-4.2372,-4.2581,-4.324,0.0,0.0,0.0,0.0,0.0,0.0,0.0,0.0,0.0,0.0,0.0,-4.2183,-4.2158,-4.2208,-4.2359,-4.2685,-4.2886,-4.2886,-4.2886,-4.3037,-4.3388,-4.3037,-4.2685,-4.2333,-4.1781,-4.1153,0.0,0.0,0.0,0.0,-3.9697,-3.9697,-3.9697,-3.9697,-3.9697,-3.9697,-3.9697,-3.9697,-3.9672,-3.9446,-3.9371,-3.9346,-3.912,-3.9069,-3.9019,-3.8818,-3.8391,-3.7965,-3.7764,-3.7287,-3.691,-3.7136,-3.7186,-3.7462,-3.8592,-3.8718,-3.8894,-4.0304,-4.1116,-4.189,-4.3082,-4.4588,-4.575,-4.6237,-4.686,-4.7309,-4.7309,-4.7309,-4.7309,-4.7309,-4.7309,-4.7309,-4.7309,-4.7309,-4.686,-4.5783,-4.5454,-4.4877,-4.3708,-4.3419,-4.3329,-4.3329,-4.3329,-4.3329,-4.3329,-4.3329,-4.3329,-4.3329,-4.3329,-4.3329,-4.3329,-4.3329,-4.3329,0.0,-4.1624,-4.3359,-4.4676,-4.4107,0.0,0.0,0.0,0.0,0.0,0.0,0.0,0.0,-4.288,-4.2462,-4.2491,-4.2491,-4.2701,-4.3329,-4.3394,0.0,0.0,0.0,0.0,0.0,0.0,0.0,0.0,0.0,0.0,-4.2057,-4.2032,-4.1781,-4.1254,-4.1229,-4.1254,-4.1329,-4.1329,-4.1329,-4.1329,-4.1329,-4.1329,-4.1254,-4.0752,-4.0501,0.0,0.0,0.0,0.0,-3.9697,-3.9697,-3.9697,-3.9697,-3.9672,-3.9647,-3.9647,-3.9622,-3.9496,-3.8994,-3.8818,-3.8718,-3.8191,-3.8015,-3.7889,-3.7337,-3.7538,-3.7839,-3.7337,-3.6784,-3.6483,-3.7036,-3.7186,-3.7462,-3.8542,-3.8391,-3.8239,-3.8994,-3.9498,-4.0294,-4.1763,-4.3385,-4.488,-4.6181,-4.689,-4.7309,-4.7309,-4.7309,-4.7309,-4.7309,-4.7309,-4.7309,-4.7309,-4.7279,-4.698,-4.6381,-4.5693,-4.4967,-4.4308,-4.3698,-4.3329,-4.3329,-4.3329,-4.3329,-4.3329,-4.3329,-4.3329,-4.3329,-4.3329,-4.3329,-4.3329,-4.3329,-4.3329,-3.8781,0.0,-4.0666,-4.1983,-4.2073,-4.2132,0.0,0.0,0.0,0.0,0.0,0.0,0.0,0.0,-4.3269,-4.3778,-4.3838,-4.3898,-4.4077,0.0,0.0,0.0,0.0,0.0,0.0,0.0,0.0,0.0,0.0,-4.1932,-4.0953,-4.0902,-4.0651,-4.0099,-4.0074,-4.0475,-4.1329,-4.1329,-4.1329,-4.1329,-4.1329,-4.1128,-4.0701,-4.0576,-4.03,0.0,0.0,0.0,-3.9697,-3.9697,-3.9697,-3.9697,-3.9697,-3.9446,-3.9069,-3.9069,-3.8793,-3.8391,-3.8266,-3.8216,-3.8191,-3.804,-3.8015,-3.7889,-3.7337,-3.7287,-3.7337,-3.7211,-3.6784,-3.6483,-3.7036,-3.7186,-3.7362,-3.804,-3.809,-3.8605,-4.0602,-4.0794,-4.1446,-4.4588,-4.5161,-4.5505,-4.6804,-4.7219,-4.7309,-4.7309,-4.7309,-4.7309,-4.7309,-4.7309,-4.7309,-4.7309,-4.686,-4.6501,-4.6322,-4.5693,-4.4967,-4.4308,-4.3698,-4.3329,-4.3329,-4.3329,-4.3329,-4.3329,-4.3329,-4.3329,-4.3329,-4.3329,-4.3329,-4.3329,-4.3329,-4.3329,-3.8871,-3.9349,-4.0127,-4.1115,-4.1624,-4.2102,0.0,0.0,0.0,0.0,0.0,0.0,0.0,0.0,0.0,-4.4257,-4.4556,-4.4531,0.0,0.0,0.0,0.0,0.0,0.0,0.0,0.0,0.0,0.0,0.0,-4.1681,-4.0576,-4.0526,-4.0249,-3.9722,-3.9697,-3.9973,-4.0576,-4.0576,-4.0576,-4.0576,-4.0576,-4.0425,-4.0124,-3.9873,-3.9597,0.0,0.0,0.0,-3.9346,-3.9597,-3.9546,-3.932,-3.932,-3.8969,-3.8467,-3.8467,-3.8266,-3.7965,-3.7713,-3.7462,-3.7262,-3.7262,-3.7262,-3.7186,-3.6885,-3.681,-3.681,-3.681,-3.6584,-3.6433,-3.6734,-3.681,-3.6935,-3.7487,-3.7638,-3.8003,-3.9386,-4.0177,-4.1235,-4.2998,-4.4428,-4.5514,-4.6262,-4.689,-4.7219,-4.689,-4.686,-4.686,-4.686,-4.6591,-4.6621,-4.7249,-4.6441,-4.5992,-4.6292,-4.5371,-4.4654,-4.4317,-4.3688,-4.3329,-4.3329,-4.3329,-4.3329,-4.3329,-4.3329,-4.3329,-4.3329,-4.3329,-4.3329,-4.3329,-4.3329,-4.3329,-3.9529,-4.0187,-4.0935,-4.1294,-4.1863,-4.2521,-4.318,0.0,0.0,0.0,0.0,0.0,0.0,0.0,0.0,0.0,0.0,0.0,0.0,0.0,0.0,0.0,0.0,0.0,0.0,0.0,0.0,0.0,0.0,-4.1555,-4.045,-4.04,-4.0174,-3.9697,-3.9697,-3.9697,-3.9697,-3.9697,-3.9697,-3.9697,-3.9697,-3.9647,-3.9546,-3.9094,-3.8818,-3.8743,0.0,0.0,-3.8768,-3.9245,-3.917,-3.8743,-3.8743,-3.8391,-3.7889,-3.7889,-3.7839,-3.7688,-3.7211,-3.6759,-3.6358,-3.6358,-3.6358,-3.6358,-3.6358,-3.6358,-3.6358,-3.6358,-3.6358,-3.6358,-3.6358,-3.6358,-3.6483,-3.6935,-3.7061,-3.7157,-3.7515,-3.9215,-4.0581,-4.0541,-4.3076,-4.5185,-4.5274,-4.6232,-4.68,-4.6262,-4.6172,-4.6172,-4.6172,-4.5663,-4.5783,-4.701,-4.6052,-4.5544,-4.6112,-4.4982,-4.4244,-4.4169,-4.3588,-4.3329,-4.3329,-4.3329,-4.3329,-4.3329,-4.3329,-4.3329,-4.3329,-4.3329,-4.3329,-4.3329,-4.3329,-4.3329,-4.0098,-4.1534,-4.2641,-4.1624,-4.1863,-4.2521,-4.318,0.0,0.0,0.0,0.0,0.0,0.0,0.0,0.0,0.0,0.0,0.0,0.0,0.0,0.0,0.0,0.0,0.0,0.0,0.0,0.0,0.0,0.0,-4.0978,-3.9873,-3.9823,-3.9798,-3.9697,-3.9697,-3.9697,-3.9697,-3.9697,-3.9697,-3.9697,-3.9697,-3.9446,-3.8994,-3.8919,-3.8592,-3.814,0.0,-3.814,-3.814,-3.8241,-3.8216,-3.814,-3.814,-3.7789,-3.7312,-3.7312,-3.701,-3.6609,-3.6508,-3.6433,-3.6358,-3.6358,-3.6358,-3.6358,-3.6358,-3.6358,-3.6358,-3.6358,-3.6358,-3.6358,-3.6358,-3.6358,-3.6383,-3.6458,-3.6483,-3.7117,-3.9051,-3.976,-4.077,-4.3201,-4.4072,-4.4646,-4.5185,-4.5454,-4.5574,-4.5454,-4.5454,-4.5454,-4.5454,-4.5364,-4.5603,-4.6381,-4.5753,-4.5334,-4.5454,-4.4719,-4.4028,-4.3489,-4.3339,-4.3329,-4.3329,-4.3329,-4.3329,-4.3329,-4.3329,-4.3329,-4.3329,-4.3329,-4.3329,-4.3329,-4.3329,-4.3329,-3.9798,-4.1055,-4.2222,-4.1983,-4.321,-4.4496,-4.4407,0.0,0.0,0.0,0.0,0.0,0.0,0.0,0.0,0.0,0.0,0.0,0.0,0.0,0.0,0.0,0.0,0.0,0.0,0.0,0.0,0.0,0.0,0.0,-4.0174,-3.9848,-3.9697,-3.9697,-3.9697,-3.9697,-3.9697,-3.9697,-3.9697,-3.9697,-3.9396,-3.912,-3.8843,-3.8241,-3.7814,-3.7563,0.0,-3.7563,-3.7588,-3.7889,-3.7839,-3.7563,-3.7563,-3.7236,-3.6734,-3.6734,-3.6383,-3.5956,-3.6257,-3.6182,-3.5981,-3.6257,-3.6358,-3.6358,-3.6358,-3.6358,-3.6358,-3.6358,-3.6358,-3.6358,-3.6358,-3.6358,-3.6358,-3.6358,-3.6358,-3.6896,-3.8559,-3.9448,-4.0488,-4.249,-4.3612,-4.4407,-4.4706,-4.5065,-4.5185,-4.4825,-4.4766,-4.4766,-4.4766,-4.4766,-4.5035,-4.5693,-4.5155,-4.4766,-4.4766,-4.4128,-4.3618,-4.3359,-4.3329,-4.3329,-4.3329,-4.3329,-4.3329,-4.3329,-4.3329,-4.3329,-4.3329,-4.3329,-4.3329,-4.3329,-4.3329,-4.3329,-3.9619,-4.0726,-4.1953,-4.2462,0.0,-4.5454,-4.5693,0.0,0.0,0.0,0.0,0.0,0.0,0.0,0.0,0.0,0.0,0.0,0.0,0.0,0.0,0.0,0.0,0.0,0.0,0.0,0.0,0.0,0.0,0.0,-4.0551,-3.9998,-3.9697,-3.9697,-3.9697,-3.9697,-3.9697,-3.9572,-3.9496,-3.9496,-3.9069,-3.8743,-3.8442,-3.7588,-3.7111,-3.6985,-3.6985,-3.6985,-3.7036,-3.7437,-3.7362,-3.6985,-3.6985,-3.6734,-3.6332,-3.6207,-3.5981,-3.578,-3.6081,-3.5906,-3.5629,-3.6031,-3.6081,-3.5981,-3.5981,-3.5981,-3.6006,-3.6132,-3.6182,-3.6207,-3.6332,-3.6358,-3.6358,-3.6358,-3.6358,-3.6709,-3.7861,-3.9094,-4.0232,-4.142,-4.3078,-4.4257,-4.4107,-4.4766,-4.5035,-4.4197,-4.4227,-4.4257,-4.4107,-4.4077,-4.4347,-4.5005,-4.4616,-4.4347,-4.4325,-4.3668,-4.3329,-4.3329,-4.3329,-4.3329,-4.3329,-4.3329,-4.3329,-4.3329,-4.3329,-4.3329,-4.3329,-4.3329,-4.3329,-4.3329,-4.3329,-4.3329,-4.0157,-4.1743,-4.321,-4.324,-4.297,0.0,-4.6471,-4.6202,0.0,0.0,0.0,0.0,0.0,0.0,0.0,0.0,0.0,0.0,0.0,0.0,0.0,0.0,0.0,0.0,0.0,0.0,0.0,0.0,0.0,0.0,-4.0551,-3.9998,-3.9697,-3.9697,-3.9697,-3.9697,-3.9697,-3.9195,-3.8919,-3.8919,-3.8894,-3.8316,-3.7312,-3.7211,-3.691,-3.6408,-3.6408,-3.6408,-3.6433,-3.6458,-3.6458,-3.6408,-3.6408,-3.6383,-3.6307,-3.578,-3.5906,-3.6232,-3.5755,-3.5579,-3.5554,-3.5579,-3.5253,-3.4851,-3.4851,-3.4851,-3.4951,-3.5454,-3.5604,-3.573,-3.6232,-3.6358,-3.6358,-3.6358,-3.6358,-3.6709,-3.7861,-3.9094,-4.0232,-4.142,-4.3078,-4.4107,-4.3509,-4.4466,-4.4855,-4.3599,-4.3928,-4.4107,-4.3479,-4.3389,-4.3658,-4.4317,-4.4347,-4.4325,-4.4317,-4.3677,-4.3329,-4.3329,-4.3329,-4.3329,-4.3329,-4.3329,-4.3329,-4.3329,-4.3329,-4.3329,-4.3329,-4.3329,-4.3329,-4.3329,-4.3329,-4.3329,-3.9738,-4.1235,-4.2731,-4.2731,0.0,0.0,0.0,0.0,0.0,0.0,0.0,0.0,0.0,0.0,0.0,0.0,0.0,0.0,0.0,0.0,0.0,0.0,0.0,0.0,0.0,0.0,0.0,0.0,0.0,0.0,-4.4033,-4.1673,-4.059,-4.1464,-4.0363,-3.9905,-4.0227,-3.9347,-3.8891,-3.8929,-3.818,-3.7588,-3.7186,-3.6835,-3.6558,-3.6358,-3.6358,-3.6358,-3.6358,-3.6358,-3.6358,-3.6358,-3.6358,-3.5956,-3.5353,-3.5504,-3.5253,-3.4851,-3.4977,-3.4801,-3.4575,-3.4926,-3.4901,-3.4726,-3.4726,-3.4951,-3.5278,-3.5386,-3.578,-3.6107,-3.6307,-3.6358,-3.6358,-3.6358,-3.6989,-3.7769,-3.8917,-4.0118,-4.1253,-4.2467,-4.3515,-4.4227,-4.3988,-4.4347,-4.4526,-4.4018,-4.3808,-4.3629,-4.3359,-4.3688,-4.3898,-4.3718,-4.3718,-4.3668,-4.3677,-4.3459,-4.3329,-4.3329,-4.3329,-4.3329,-4.3329,-4.3329,-4.3329,-4.3329,-4.3329,-4.3329,-4.3329,-4.3329,-4.3329,-4.3329,-4.3329,-4.3329,-3.9798,-4.1025,-4.2402,0.0,0.0,0.0,0.0,0.0,0.0,0.0,0.0,0.0,0.0,0.0,0.0,0.0,0.0,0.0,0.0,0.0,0.0,0.0,0.0,0.0,0.0,0.0,0.0,0.0,0.0,0.0,0.0,-4.311,-4.1896,-4.2869,-4.1345,-4.0749,-4.1202,-4.0088,-3.932,-3.8885,-3.78,-3.7013,-3.6659,-3.6458,-3.6282,-3.6107,-3.6282,-3.6358,-3.6358,-3.6358,-3.6257,-3.6081,-3.5906,-3.5378,-3.4751,-3.4951,-3.465,-3.4198,-3.4399,-3.4223,-3.3972,-3.4349,-3.4349,-3.4198,-3.4198,-3.4474,-3.4801,-3.4977,-3.5429,-3.5881,-3.6056,-3.6232,-3.6358,-3.6358,-3.7243,-3.8289,-3.9183,-4.0575,-4.1864,-4.2629,-4.3596,-4.4257,-4.4047,-4.4347,-4.4496,-4.4077,-4.3808,-4.3569,-4.3359,-4.3718,-4.3838,-4.3389,-4.3329,-4.3329,-4.3329,-4.3329,-4.3329,-4.3329,-4.3329,-4.3329,-4.3329,-4.3329,-4.3329,-4.3329,-4.3329,-4.3329,-4.3329,-4.3329,-4.3329,-4.3329,-4.3329,-4.3329,-4.0576,-4.1354,-4.2521,0.0,0.0,0.0,0.0,0.0,0.0,0.0,0.0,0.0,0.0,0.0,0.0,0.0,0.0,0.0,0.0,0.0,0.0,0.0,0.0,0.0,0.0,0.0,0.0,0.0,0.0,0.0,0.0,-4.4166,-4.3504,-4.3504,-4.283,-4.2499,-4.2499,-4.1259,-4.0114,-3.8952,-3.7791,-3.6664,-3.5554,-3.6107,-3.6056,-3.5579,-3.6107,-3.6358,-3.6358,-3.6358,-3.6031,-3.5386,-3.4926,-3.4726,-3.465,-3.4098,-3.4248,-3.4625,-3.4073,-3.3897,-3.3897,-3.3897,-3.352,-3.3068,-3.3068,-3.3068,-3.3194,-3.3746,-3.4299,-3.4851,-3.5403,-3.5956,-3.6358,-3.6358,-3.7243,-3.8107,-3.8107,-3.9944,-4.1587,-4.1587,-4.3078,-4.4107,-4.3449,-4.4436,-4.4855,-4.3539,-4.3898,-4.4077,-4.3419,-4.3329,-4.3329,-4.3329,-4.3329,-4.3329,-4.3329,-4.3329,-4.3329,-4.3329,-4.3329,-4.3329,-4.3329,-4.3329,-4.3329,-4.3329,-4.3329,-4.3329,-4.3329,-4.3329,-4.3329,-4.3329,-4.3329,-4.3329,-4.0576,-4.1354,0.0,0.0,0.0,0.0,0.0,0.0,0.0,0.0,0.0,0.0,0.0,0.0,0.0,0.0,0.0,0.0,0.0,0.0,0.0,0.0,0.0,0.0,0.0,0.0,0.0,0.0,0.0,0.0,0.0,-4.5543,-4.4327,-4.484,-4.3296,-4.2453,-4.2389,-4.129,-4.0503,-4.0069,-3.8189,-3.6664,-3.5554,-3.573,-3.5705,-3.5554,-3.573,-3.6006,-3.6332,-3.5956,-3.5228,-3.4399,-3.4625,-3.4248,-3.3596,-3.3822,-3.3746,-3.3545,-3.337,-3.3319,-3.3319,-3.3319,-3.3219,-3.3068,-3.3068,-3.3345,-3.3696,-3.3847,-3.4575,-3.5328,-3.5504,-3.5956,-3.6358,-3.6358,-3.7952,-3.936,-3.936,-4.1169,-4.282,-4.282,-4.3596,-4.4257,-4.4047,-4.4347,-4.4466,-4.4077,-4.3808,-4.3539,-4.3359,-4.3329,-4.3329,-4.3329,-4.3329,-4.3329,-4.3329,-4.3329,-4.3329,-4.3329,-4.3329,-4.3329,-4.3329,-4.3329,-4.3329,-4.3329,-4.3329,-4.3329,-4.3329,-4.3329,-4.3329,-4.3329,-4.3329,-4.3329,-4.1983,0.0,0.0,0.0,0.0,0.0,0.0,0.0,0.0,0.0,0.0,0.0,0.0,0.0,0.0,0.0,0.0,0.0,0.0,0.0,0.0,0.0,0.0,0.0,0.0,0.0,0.0,0.0,0.0,0.0,0.0,-4.6446,-4.5326,-4.5697,-4.4062,-4.3228,-4.3157,-4.2194,-4.1394,-4.0555,-3.9034,-3.7284,-3.5481,-3.5284,-3.5102,-3.4901,-3.5127,-3.5403,-3.568,-3.5127,-3.45,-3.3897,-3.4022,-3.3671,-3.3119,-3.3445,-3.337,-3.3068,-3.3068,-3.3068,-3.3068,-3.3068,-3.3068,-3.3119,-3.3345,-3.3646,-3.3947,-3.4173,-3.4876,-3.5554,-3.5554,-3.5956,-3.6358,-3.6358,-3.8225,-3.9913,-3.9913,-4.1699,-4.3329,-4.3329,-4.3658,-4.3928,-4.3928,-4.3928,-4.3928,-4.3928,-4.3599,-4.3329,-4.3329,-4.3329,-4.3329,-4.3329,-4.3329,-4.3329,-4.3329,-4.3329,-4.3329,-4.3329,-4.3329,-4.3329,-4.3329,-4.3329,-4.3329,-4.3329,-4.3329,-4.3329,-4.3329,-4.3329,-4.3329,-4.3329,-4.3329,-4.3329,-4.4137,0.0,0.0,0.0,0.0,0.0,0.0,0.0,0.0,0.0,0.0,0.0,0.0,0.0,0.0,0.0,0.0,0.0,0.0,0.0,0.0,0.0,0.0,0.0,0.0,0.0,0.0,0.0,0.0,0.0,0.0,-4.698,-4.6262,-4.6142,-4.4945,-4.4257,-4.4137,-4.3599,-4.2435,-4.0545,-4.0054,-3.8355,-3.5721,-3.5058,-3.4463,-3.3922,-3.4424,-3.46,-3.4449,-3.3947,-3.3746,-3.3696,-3.3194,-3.3043,-3.3068,-3.3068,-3.3068,-3.3068,-3.3068,-3.3068,-3.3068,-3.3068,-3.3068,-3.3194,-3.3746,-3.3897,-3.4022,-3.4575,-3.5127,-3.5554,-3.5554,-3.5956,-3.6452,-3.6546,-3.8315,-3.9913,-3.9913,-4.1699,-4.3329,-4.3329,-4.3329,-4.3329,-4.3329,-4.3329,-4.3329,-4.3329,-4.3329,-4.3329,-4.3329,-4.3329,-4.3329,-4.3329,-4.3329,-4.3329,-4.3329,-4.3329,-4.3329,-4.3329,-4.3329,-4.3329,-4.3329,-4.3329,-4.3329,-4.3329,-4.3329,-4.3329,-4.3329,-4.3329,-4.3329,-4.3329,-4.3329,-4.3329,0.0,-4.5095,0.0,0.0,0.0,0.0,0.0,0.0,0.0,0.0,0.0,0.0,0.0,0.0,0.0,0.0,0.0,0.0,0.0,0.0,0.0,0.0,0.0,0.0,0.0,0.0,0.0,0.0,0.0,0.0,-4.677,-4.6471,-4.5843,-4.4766,-4.4466,-4.3808,-4.2791,-4.315,-4.2306,0.0,-4.0042,-3.8953,-3.7247,-3.5945,-3.4822,-3.3897,-3.4022,-3.3571,-3.2742,-3.2616,-3.2566,-3.2566,-3.2441,-3.2667,-3.3068,-3.3068,-3.3068,-3.3068,-3.3068,-3.3068,-3.3068,-3.3068,-3.3068,-3.3194,-3.3746,-3.3897,-3.4022,-3.4575,-3.5127,-3.5554,-3.5554,-3.5956,-3.6615,-3.7494,-3.8827,-3.9913,-3.9913,-4.1699,-4.3329,-4.3329,-4.3329,-4.3329,-4.3329,-4.3329,-4.3329,-4.3329,-4.3329,-4.3329,-4.3329,-4.3329,-4.3329,-4.3329,-4.3329,-4.3329,-4.3329,-4.3329,-4.3329,-4.3329,-4.3329,-4.3329,-4.3329,-4.3329,-4.3329,-4.3329,-4.3329,-4.3329,-4.3329,-4.3329,-4.3329,-4.3329,-4.3329,-4.3329,0.0,0.0,0.0,0.0,0.0,0.0,0.0,0.0,0.0,0.0,0.0,0.0,0.0,0.0,0.0,0.0,0.0,0.0,0.0,0.0,0.0,0.0,0.0,0.0,0.0,0.0,0.0,0.0,0.0,-4.6681,-4.6352,-4.5723,-4.5035,-4.4347,-4.3718,-4.321,-4.2821,-4.2551,-4.1893,-4.0876,-4.0317,-3.9255,-3.7767,-3.5927,-3.4406,-3.3093,-3.3093,-3.2616,-3.1813,-3.1813,-3.1813,-3.1838,-3.2114,-3.239,-3.2692,-3.2968,-3.3068,-3.3068,-3.3068,-3.3068,-3.3068,-3.3068,-3.3068,-3.3244,-3.4048,-3.4299,-3.4474,-3.5278,-3.5705,-3.5931,-3.5931,-3.6132,-3.6709,-3.7861,-3.9006,-4.0059,-4.0575,-4.2029,-4.3329,-4.3329,-4.3329,-4.3329,-4.3329,-4.3329,-4.3329,-4.3329,-4.3329,-4.3329,-4.3329,-4.3329,-4.3329,-4.3329,-4.3329,-4.3329,-4.3329,-4.3329,-4.3329,-4.3329,-4.3329,-4.3329,-4.3329,-4.3329,-4.3329,-4.3329,-4.3329,-4.3329,-4.3329,-4.3329,-4.3329,-4.3329,-4.3329,-4.3329,0.0,0.0,0.0,0.0,0.0,0.0,0.0,0.0,0.0,0.0,0.0,0.0,0.0,0.0,0.0,0.0,0.0,0.0,0.0,0.0,0.0,0.0,0.0,0.0,0.0,0.0,0.0,0.0,0.0,-4.6262,-4.6142,-4.4975,-4.4197,-4.3988,-4.294,-4.2521,-4.2821,-4.1863,-4.1265,-4.1025,-4.0487,-3.9372,-3.7738,-3.5732,-3.3927,-3.244,-3.2198,-3.1763,-3.126,-3.116,-3.116,-3.1311,-3.1763,-3.1989,-3.2139,-3.2717,-3.2918,-3.2943,-3.3043,-3.3068,-3.3068,-3.3068,-3.3068,-3.3269,-3.4274,-3.465,-3.4926,-3.5931,-3.6282,-3.6358,-3.6358,-3.6358,-3.6709,-3.8107,-3.9183,-4.0232,-4.1337,-4.2467,-4.3329,-4.3329,-4.3329,-4.3329,-4.3329,-4.3329,-4.3329,-4.3329,-4.3329,-4.3329,-4.3329,-4.3329,-4.3329,-4.3329,-4.3329,-4.3329,-4.3329,-4.3329,-4.3329,-4.3329,-4.3329,-4.3329,-4.3329,-4.3329,-4.3329,-4.3329,-4.3329,-4.3329,-4.3329,-4.3329,-4.3329,-4.3329,-4.3329,-4.3329,0.0,0.0,0.0,0.0,0.0,0.0,0.0,0.0,0.0,0.0,0.0,0.0,0.0,0.0,0.0,0.0,0.0,0.0,0.0,0.0,0.0,0.0,0.0,0.0,0.0,0.0,0.0,0.0,-4.6681,-4.6052,-4.5454,-4.4736,-4.3778,-4.2671,-4.2462,-4.1863,-4.0816,-4.1175,-4.0816,-3.9679,-3.9589,-3.8929,-3.7738,-3.6102,-3.4708,-3.3485,-3.2097,-3.121,-3.0683,-3.0206,-3.0281,-3.0733,-3.0809,-3.111,-3.1562,-3.2114,-3.2315,-3.239,-3.2893,-3.3068,-3.3068,-3.3068,-3.3068,-3.3194,-3.3822,-3.4349,-3.4851,-3.5479,-3.6006,-3.6358,-3.6358,-3.6358,-3.6989,-3.9094,-3.9798,-4.0232,-4.1337,-4.2467,-4.3329,-4.3329,-4.3329,-4.3329,-4.3329,-4.3329,-4.3329,-4.3329,-4.3329,-4.3329,-4.3329,-4.3329,-4.3329,-4.3329,-4.3329,-4.3329,-4.3329,-4.3329,-4.3329,-4.3329,-4.3329,-4.3329,-4.3329,-4.3329,-4.3329,-4.3329,-4.3329,-4.3329,-4.3329,-4.3329,-4.3329,-4.3329,-4.3329,-4.3329,-4.5933,0.0,0.0,0.0,0.0,0.0,0.0,0.0,0.0,0.0,0.0,0.0,0.0,0.0,0.0,0.0,0.0,0.0,0.0,0.0,0.0,0.0,0.0,0.0,0.0,0.0,0.0,0.0,-4.6142,-4.5454,-4.4796,-4.3778,-4.297,-4.2372,-4.1654,-4.1175,-4.0935,-4.0516,-3.9798,-3.8841,-3.923,-3.8775,-3.7533,-3.6613,-3.5134,-3.3278,-3.1643,-3.0658,-3.0131,-2.9905,-2.993,-3.0181,-3.0482,-3.0758,-3.106,-3.1913,-3.2014,-3.1888,-3.2767,-3.2867,-3.2641,-3.2968,-3.3068,-3.3244,-3.4098,-3.4525,-3.4901,-3.5755,-3.6182,-3.6546,-3.715,-3.7335,-3.7926,-4.029,-4.0831,-4.1169,-4.2304,-4.2981,-4.3329,-4.3329,-4.3329,-4.3329,-4.3329,-4.3329,-4.3329,-4.3329,-4.3329,-4.3329,-4.3329,-4.3329,-4.3329,-4.3329,-4.3329,-4.3329,-4.3329,-4.3329,-4.3329,-4.3329,-4.3329,-4.3329,-4.3329,-4.3329,-4.3329,-4.3329,-4.3329,-4.3329,-4.3329,-4.3329,-4.3329,-4.3329,-4.3329,-4.3329,0.0,0.0,0.0,0.0,0.0,0.0,0.0,0.0,0.0,0.0,0.0,0.0,0.0,0.0,0.0,0.0,0.0,0.0,0.0,0.0,0.0,0.0,0.0,0.0,0.0,0.0,0.0,0.0,-4.5514,-4.4825,-4.4347,-4.306,-4.2282,-4.2102,-4.0995,-4.0546,-4.0876,-3.9738,-3.8811,-3.8153,-3.8661,-3.8392,-3.7336,-3.6691,-3.5134,-3.3058,-3.1603,-3.0517,-2.9804,-2.9804,-2.9804,-2.9829,-3.0256,-3.0407,-3.0507,-3.1461,-3.1637,-3.1537,-3.2516,-3.2667,-3.2516,-3.2943,-3.3068,-3.3244,-3.4048,-3.45,-3.4901,-3.5705,-3.6413,-3.7057,-3.7834,-3.8289,-3.9067,-4.1056,-4.1587,-4.1947,-4.3061,-4.3329,-4.3329,-4.3329,-4.3329,-4.3329,-4.3329,-4.3329,-4.3329,-4.3329,-4.3329,-4.3329,-4.3329,-4.3329,-4.3329,-4.3329,-4.3329,-4.3329,-4.3329,-4.3329,-4.3329,-4.3329,-4.3329,-4.3329,-4.3329,-4.3329,-4.3329,-4.3329,-4.3329,-4.3329,-4.3329,-4.3329,-4.3329,-4.3329,-4.3329,-4.3329,0.0,0.0,0.0,0.0,0.0,0.0,0.0,0.0,0.0,0.0,0.0,0.0,0.0,0.0,0.0,0.0,0.0,0.0,0.0,0.0,0.0,0.0,0.0,0.0,0.0,0.0,0.0,0.0,-4.5095,-4.4347,-4.4317,-4.306,-4.2073,-4.1444,-4.0756,-4.0127,-3.9529,-3.8811,-3.8123,-3.7464,-3.7494,-3.7494,-3.7306,-3.5828,-3.4526,-3.3487,-3.2417,-3.1164,-2.9804,-2.9804,-2.9804,-2.9804,-2.9829,-2.9829,-2.9905,-3.0482,-3.0984,-3.1461,-3.2064,-3.2591,-3.3043,-3.3068,-3.3068,-3.3093,-3.3144,-3.3897,-3.4726,-3.4801,-3.6328,-3.8017,-3.8107,-3.8917,-4.0145,-4.1337,-4.1587,-4.1947,-4.3061,-4.3329,-4.3329,-4.3329,-4.3329,-4.3329,-4.3329,-4.3329,-4.3329,-4.3329,-4.3329,-4.3329,-4.3329,-4.3329,-4.3329,-4.3329,-4.3329,-4.3329,-4.3329,-4.3329,-4.3329,-4.3329,-4.3329,-4.3329,-4.3329,-4.3329,-4.3329,-4.3329,-4.3329,-4.3329,-4.3329,-4.3329,-4.3329,-4.3329,-4.3329,-4.3329,0.0,0.0,0.0,0.0,0.0,0.0,0.0,0.0,0.0,0.0,0.0,0.0,0.0,0.0,0.0,0.0,0.0,0.0,0.0,0.0,0.0,0.0,0.0,0.0,0.0,0.0,0.0,0.0,0.0,-4.3958,-4.309,-4.2222,-4.1444,-4.0756,-3.9679,-3.8781,-3.8123,-3.7883,-3.7434,-3.6836,-3.7225,-3.6985,-3.6207,-3.6022,-3.4831,-3.2925,-3.2563,-3.1378,-2.9804,-2.9804,-2.9804,-2.9804,-2.9804,-2.9804,-2.9905,-3.0783,-3.1009,-3.1085,-3.234,-3.2667,-3.2591,-3.2943,-3.3068,-3.3219,-3.3922,-3.4399,-3.5032,-3.6418,-3.7456,-3.8469,-3.9944,-4.0632,-4.1253,-4.2386,-4.271,-4.282,-4.325,-4.3329,-4.3329,-4.3329,-4.3329,-4.3329,-4.3329,-4.3329,-4.3329,-4.3329,-4.3329,-4.3329,-4.3329,-4.3329,-4.3329,-4.3329,-4.3329,-4.3329,-4.3329,-4.3329,-4.3329,-4.3329,-4.3329,-4.3329,-4.3329,-4.3329,-4.3329,-4.3329,-4.3329,-4.3329,-4.3329,-4.3329,-4.3329,-4.3329,-4.3329,-4.3615,-4.4676,0.0,0.0,0.0,0.0,0.0,0.0,0.0,0.0,0.0,0.0,0.0,0.0,0.0,0.0,0.0,0.0,0.0,0.0,0.0,0.0,0.0,0.0,0.0,0.0,0.0,0.0,0.0,0.0,0.0,-4.2479,-4.1534,-4.0636,-3.9768,-3.8631,-3.7734,-3.7105,-3.7105,-3.6776,-3.6178,-3.6567,-3.6327,-3.5519,-3.5968,-3.5019,-3.3017,-3.2735,-3.1536,-2.9804,-2.9804,-2.9804,-2.9804,-2.9804,-2.9905,-3.0156,-3.0859,-3.1135,-3.1311,-3.2416,-3.2667,-3.2566,-3.2943,-3.3068,-3.333,-3.459,-3.5149,-3.5749,-3.7821,-3.8816,-3.9596,-4.1253,-4.1864,-4.2386,-4.317,-4.3329,-4.3329,-4.3329,-4.3329,-4.3329,-4.3329,-4.3329,-4.3389,-4.3629,-4.3479,-4.3419,-4.3629,-4.3479,-4.3329,-4.3329,-4.3329,-4.3329,-4.3329,-4.3329,-4.3329,-4.3329,-4.3329,-4.3329,-4.3329,-4.3329,-4.3329,-4.3329,-4.3329,-4.3329,-4.3329,-4.3329,-4.3329,-4.3329,-4.3329,-4.3329,-4.3329,-4.3633,-4.4493,0.0,0.0,0.0,0.0,0.0,0.0,0.0,0.0,0.0,0.0,0.0,0.0,0.0,0.0,0.0,0.0,0.0,0.0,0.0,0.0,0.0,0.0,0.0,0.0,0.0,0.0,0.0,0.0,-4.312,-4.2372,-4.2342,-4.1055,-3.9738,-3.8392,-3.7734,-3.7075,-3.6477,-3.6447,-3.6148,-3.5519,-3.5519,-3.5519,-3.5519,-3.5519,-3.4971,-3.3945,-3.3017,-3.1563,-2.9856,-2.9804,-2.9804,-2.9804,-2.9804,-3.0131,-3.0608,-3.0633,-3.1286,-3.219,-3.2215,-3.2616,-3.3068,-3.3154,-3.3154,-3.3427,-3.5136,-3.6114,-3.693,-3.8638,-4.0266,-4.1587,-4.167,-4.2467,-4.3329,-4.3329,-4.3329,-4.3329,-4.3329,-4.3329,-4.3329,-4.3329,-4.3329,-4.3539,-4.4197,-4.3778,-4.3569,-4.4227,-4.3778,-4.3359,-4.3329,-4.3329,-4.3329,-4.3329,-4.3329,-4.3329,-4.3329,-4.3329,-4.3329,-4.3329,-4.3329,-4.3329,-4.3329,-4.3329,-4.3329,-4.3329,-4.3329,-4.3329,-4.3329,-4.3329,-4.3329,-4.3379,-4.4414,-4.5872,-4.3569,0.0,0.0,0.0,0.0,0.0,0.0,0.0,0.0,0.0,0.0,0.0,0.0,0.0,0.0,0.0,0.0,0.0,0.0,0.0,0.0,0.0,0.0,0.0,0.0,0.0,0.0,0.0,-4.3269,-4.2641,-4.1713,-3.9948,-3.8571,-3.7704,-3.7075,-3.6417,-3.5789,-3.5789,-3.5699,-3.5519,-3.5519,-3.5519,-3.5519,-3.5519,-3.4971,-3.3945,-3.3017,-3.1901,-3.0771,-3.0062,-2.9804,-2.9804,-2.9804,-2.988,-3.0105,-3.0884,-3.1361,-3.1738,-3.2566,-3.2943,-3.324,-3.4037,-3.4262,-3.4612,-3.6739,-3.7508,-3.8143,-4.0265,-4.1194,-4.1753,-4.2629,-4.3061,-4.3329,-4.3329,-4.3329,-4.3329,-4.3329,-4.3329,-4.3329,-4.3329,-4.3329,-4.3539,-4.4197,-4.4167,-4.4107,-4.4287,-4.4167,-4.3868,-4.3389,-4.3329,-4.3329,-4.3329,-4.3329,-4.3329,-4.3329,-4.3329,-4.3329,-4.3329,-4.3329,-4.3329,-4.3329,-4.3329,-4.3329,-4.3329,-4.3329,-4.3329,-4.3329,-4.3329,-4.3684,-4.4393,-4.6057,-4.7106,0.0,0.0,0.0,0.0,0.0,0.0,-4.5633,-4.5903,0.0,0.0,0.0,0.0,0.0,0.0,0.0,0.0,0.0,0.0,0.0,0.0,0.0,0.0,0.0,0.0,0.0,-4.5214,-4.4556,-4.3808,-4.324,-4.2222,-4.0636,-3.8931,-3.7674,-3.7045,-3.6417,-3.5908,-3.5519,-3.5519,-3.5519,-3.5519,-3.5519,-3.5519,-3.5519,-3.5519,-3.5198,-3.4543,-3.3602,-3.2876,-3.2236,-3.0921,-3.0139,-2.9804,-2.9804,-3.0055,-3.0532,-3.116,-3.199,-3.2885,-3.3553,-3.4011,-3.4538,-3.541,-3.5736,-3.6198,-3.8557,-3.9196,-3.9669,-4.1738,-4.2275,-4.2467,-4.317,-4.3329,-4.3329,-4.3329,-4.3329,-4.3329,-4.3329,-4.3329,-4.3329,-4.3329,-4.3329,-4.3629,-4.4556,-4.4496,-4.4496,-4.5065,-4.4676,-4.4167,-4.3778,-4.3509,-4.3329,-4.3329,-4.3329,-4.3329,-4.3329,-4.3329,-4.3329,-4.3329,-4.3329,-4.3329,-4.3329,-4.3329,-4.3329,-4.3329,-4.3329,-4.3329,-4.3329,-4.3329,-4.4006,-4.5373,-4.6513,-4.7441,0.0,0.0,0.0,0.0,-4.4377,0.0,-4.5603,-4.5125,-4.4646,0.0,0.0,0.0,0.0,0.0,0.0,0.0,0.0,0.0,0.0,0.0,0.0,0.0,0.0,0.0,-4.6322,-4.5155,-4.4377,-4.4317,-4.303,-4.1414,-3.9529,-3.8153,-3.7135,-3.6507,-3.5848,-3.5519,-3.5519,-3.5519,-3.5519,-3.5519,-3.5519,-3.5519,-3.5519,-3.5519,-3.5519,-3.5424,-3.4476,-3.3945,-3.3739,-3.2019,-3.0846,-2.9934,-2.9856,-3.0382,-3.1235,-3.1361,-3.2731,-3.4492,-3.4624,-3.5413,-3.6405,-3.7118,-3.7449,-3.7942,-4.0291,-4.0989,-4.1295,-4.2882,-4.3329,-4.3329,-4.3329,-4.3329,-4.3329,-4.3329,-4.3329,-4.3329,-4.3329,-4.3329,-4.3329,-4.3329,-4.3329,-4.3718,-4.4975,-4.4766,-4.4825,-4.6022,-4.5244,-4.4496,-4.4436,-4.3838,-4.3449,-4.3449,-4.3389,-4.3329,-4.3329,-4.3329,-4.3329,-4.3329,-4.3359,-4.3389,-4.3329,-4.3359,-4.3389,-4.3329,-4.3329,-4.3329,-4.3329,-4.3389,-4.4432,-4.618,-4.6318,-4.7308,0.0,0.0,0.0,0.0,-4.4706,0.0,-4.4077,-4.4137,-4.4377,0.0,0.0,0.0,0.0,0.0,0.0,0.0,0.0,0.0,0.0,0.0,0.0,0.0,0.0,0.0,-4.6381,-4.5574,-4.4885,-4.4347,-4.2611,-4.0935,-3.9499,-3.8153,-3.7135,-3.6507,-3.5848,-3.5519,-3.5519,-3.5519,-3.5519,-3.5519,-3.5519,-3.5519,-3.5519,-3.5519,-3.5519,-3.5424,-3.4476,-3.3602,-3.2806,-3.2451,-3.1756,-3.082,-3.0062,-2.993,-3.0206,-3.106,-3.2217,-3.3489,-3.4334,-3.5683,-3.7146,-3.8161,-3.8875,-3.9657,-4.1528,-4.2108,-4.2227,-4.3071,-4.3329,-4.3329,-4.3329,-4.3329,-4.3329,-4.3329,-4.3329,-4.3329,-4.3329,-4.3329,-4.3329,-4.3329,-4.3329,-4.3569,-4.4377,-4.4825,-4.5185,-4.5454,-4.5753,-4.5723,-4.5185,-4.4526,-4.4107,-4.4107,-4.3658,-4.3329,-4.3329,-4.3329,-4.3329,-4.3329,-4.3788,-4.3818,-4.3359,-4.3788,-4.3818,-4.3329,-4.3329,-4.3329,-4.3329,-4.4127,-4.5094,-4.6185,-4.6979,-4.791,0.0,0.0,0.0,-4.4885,-4.4796,0.0,0.0,-4.3838,-4.3928,-4.4257,0.0,0.0,0.0,0.0,0.0,0.0,0.0,0.0,0.0,0.0,0.0,0.0,0.0,0.0,-4.6381,-4.5693,-4.4766,-4.3449,-4.2132,-4.0666,-3.899,-3.7943,-3.6985,-3.6028,-3.5669,-3.5519,-3.5519,-3.5519,-3.5519,-3.5519,-3.5519,-3.5519,-3.5519,-3.5519,-3.5519,-3.5424,-3.5001,-3.4476,-3.3973,-3.3533,-3.3017,-3.2451,-3.1044,-3.1109,-3.2117,-3.2175,-3.3515,-3.5515,-3.6046,-3.7169,-3.8496,-3.97,-4.0371,-4.089,-4.2365,-4.2851,-4.291,-4.324,-4.3329,-4.3329,-4.3329,-4.3329,-4.3329,-4.3329,-4.3329,-4.3329,-4.3329,-4.3329,-4.3329,-4.3329,-4.3329,-4.3539,-4.4197,-4.4855,-4.5394,-4.5753,-4.6112,-4.6202,-4.5843,-4.5214,-4.4676,-4.4347,-4.4018,-4.3688,-4.3359,-4.3329,-4.3329,-4.3329,-4.3588,-4.3617,-4.3319,-4.3907,-4.4327,-4.4327,-4.4327,-4.4327,-4.4327,-4.4959,-4.5587,-4.6212,-4.6649,-4.7637,0.0,0.0,0.0,0.0,0.0,-4.4796,0.0,0.0,0.0,0.0,0.0,0.0,0.0,0.0,0.0,0.0,0.0,0.0,0.0,0.0,0.0,0.0,0.0,0.0,0.0,-4.5484,-4.4167,-4.2312,-4.1564,-4.0307,-3.8302,-3.7704,-3.6836,-3.5549,-3.5519,-3.5519,-3.5519,-3.5519,-3.5519,-3.5519,-3.5519,-3.5519,-3.5519,-3.5519,-3.5519,-3.5519,-3.5519,-3.5359,-3.5133,-3.466,-3.4351,-3.398,-3.2355,-3.2705,-3.4176,-3.3688,-3.5245,-3.767,-3.7785,-3.8692,-3.9978,-4.1025,-4.1564,-4.1953,-4.3,-4.3329,-4.3329,-4.3329,-4.3329,-4.3329,-4.3329,-4.3329,-4.3329,-4.3329,-4.3329,-4.3329,-4.3329,-4.3419,-4.3479,-4.3359,-4.3419,-4.3658,-4.4047,-4.4676,-4.5334,-4.6022,-4.6232,-4.6381,-4.6501,-4.5933,-4.5304,-4.4766,-4.4586,-4.4227,-4.3569,-4.3509,-4.3479,-4.3329,-4.3389,-4.3464,-4.3515,-4.4116,-4.474,-4.5314,-4.5314,-4.5374,-4.5576,-4.5809,-4.6082,-4.6438,-4.6486,-4.7373,0.0,0.0,0.0,0.0,-4.6591,0.0,0.0,0.0,-4.4766,-4.3658,0.0,0.0,0.0,0.0,0.0,0.0,0.0,0.0,0.0,0.0,0.0,0.0,0.0,0.0,0.0,-4.4646,-4.297,-4.1594,-4.0876,-3.9649,-3.7614,-3.7434,-3.6836,-3.5549,-3.5519,-3.5519,-3.5519,-3.5519,-3.5519,-3.5519,-3.5519,-3.5519,-3.5519,-3.5519,-3.5519,-3.5519,-3.5519,-3.4971,-3.4303,-3.5688,-3.5692,-3.4778,-3.3756,-3.3477,-3.3799,-3.4754,-3.5939,-3.7168,-3.7641,-3.9279,-4.1175,-4.1324,-4.2162,-4.315,-4.3299,-4.3329,-4.3329,-4.3329,-4.3329,-4.3329,-4.3329,-4.3329,-4.3329,-4.3329,-4.3329,-4.3329,-4.3329,-4.3778,-4.4018,-4.3449,-4.3808,-4.4047,-4.3539,-4.3988,-4.4646,-4.5304,-4.5933,-4.6531,-4.713,-4.6621,-4.6172,-4.6112,-4.5544,-4.4915,-4.4257,-4.4197,-4.3958,-4.3359,-4.3818,-4.4208,-4.4169,-4.4807,-4.5224,-4.5282,-4.5282,-4.5806,-4.6685,-4.6715,-4.6879,-4.7076,-4.7306,-4.7995,0.0,0.0,0.0,0.0,0.0,0.0,-4.5663,0.0,-4.5244,0.0,0.0,0.0,0.0,0.0,0.0,0.0,-4.4825,0.0,0.0,0.0,0.0,0.0,0.0,0.0,0.0,0.0,0.0,0.0,-4.0546,-3.9529,-3.7524,-3.7075,-3.6447,-3.5519,-3.5519,-3.5519,-3.5519,-3.5519,-3.5519,-3.5519,-3.5519,-3.5519,-3.5519,-3.5519,-3.5519,-3.5519,-3.5519,-3.5502,-3.5495,-3.6224,-3.6454,-3.6369,-3.637,-3.6344,-3.636,-3.6368,-3.7197,-3.8413,-3.8679,-3.9639,-4.0935,-4.1713,-4.2581,-4.3329,-4.3329,-4.3329,-4.3329,-4.3329,-4.3329,-4.3329,-4.3329,-4.3329,-4.3329,-4.3329,-4.3629,-4.3808,-4.3419,-4.4137,-4.4676,-4.4018,-4.4137,-4.4347,-4.4436,-4.4706,-4.4975,-4.5244,-4.6202,-4.698,-4.7279,-4.707,-4.6741,-4.6352,-4.6052,-4.5454,-4.4407,-4.4317,-4.4197,-4.3928,-4.4479,-4.5071,-4.5424,-4.5773,-4.6075,-4.6456,-4.7073,-4.7546,-4.7959,-4.878,-4.8968,-4.8659,-4.8396,-4.8754,-4.7309,0.0,0.0,0.0,0.0,0.0,0.0,0.0,0.0,0.0,0.0,0.0,0.0,0.0,0.0,-4.4629,0.0,-4.4599,0.0,0.0,0.0,0.0,0.0,0.0,0.0,0.0,0.0,-4.0928,-4.0625,-3.9516,-3.7255,-3.6716,-3.6178,-3.5519,-3.5519,-3.5519,-3.5519,-3.5519,-3.5519,-3.5519,-3.5519,-3.5519,-3.5519,-3.5519,-3.5519,-3.5519,-3.5519,-3.5789,-3.6237,-3.6596,-3.7015,-3.7494,-3.8332,-3.8781,-3.8829,-3.7974,-3.8502,-3.9679,-3.9679,-4.0247,-4.1115,-4.2252,-4.294,-4.3329,-4.3329,-4.3329,-4.3329,-4.3329,-4.3329,-4.3329,-4.3329,-4.3329,-4.3329,-4.3329,-4.3838,-4.4197,-4.3718,-4.4646,-4.5394,-4.4706,-4.4736,-4.4945,-4.5244,-4.5005,-4.4945,-4.5484,-4.6262,-4.689,-4.7249,-4.7309,-4.713,-4.6651,-4.6591,-4.6112,-4.4975,-4.4855,-4.4796,-4.4586,-4.5177,-4.58,-4.6226,-4.645,-4.6927,-4.7722,-4.8404,-4.909,-4.9653,-5.0609,-5.086,-5.0392,-4.9513,-4.9357,0.0,0.0,0.0,-4.7309,0.0,0.0,0.0,0.0,-4.6112,0.0,0.0,0.0,0.0,-4.5244,-4.5333,-4.5588,-4.5445,0.0,0.0,0.0,0.0,0.0,0.0,0.0,0.0,0.0,0.0,-4.1977,-4.1131,-3.9585,-3.6693,-3.6507,-3.6178,-3.5519,-3.5519,-3.5519,-3.5519,-3.5519,-3.5519,-3.5519,-3.5519,-3.5519,-3.5519,-3.5519,-3.5519,-3.5519,-3.5519,-3.5519,-3.5639,-3.6866,-3.7375,-3.7524,-3.8871,-3.9768,-4.0247,-3.9546,-3.9798,-4.0367,-4.0367,-4.1205,-4.2402,-4.309,-4.3299,-4.3329,-4.3329,-4.3329,-4.3329,-4.3329,-4.3329,-4.3329,-4.3329,-4.3329,-4.3329,-4.3329,-4.3838,-4.4317,-4.4287,-4.5334,-4.6082,-4.5394,-4.5813,-4.6052,-4.5394,-4.4227,-4.4047,-4.5992,-4.5753,-4.5813,-4.713,-4.7309,-4.7309,-4.7279,-4.7279,-4.701,-4.6322,-4.6262,-4.5963,-4.5304,-4.5903,-4.6262,-4.6256,-4.689,-4.7752,-4.8758,-4.8789,-4.9801,-5.1832,-5.1832,-5.1967,-5.2169,-5.0723,-4.9675,0.0,0.0,-4.7309,-4.7309,0.0,0.0,0.0,0.0,0.0,0.0,0.0,0.0,0.0,0.0,0.0,-4.6634,-4.6233,-4.5761,0.0,0.0,0.0,0.0,0.0,0.0,0.0,0.0,0.0,-4.2002,-3.9843,-3.8135,-3.7299,-3.6356,-3.5729,-3.5519,-3.5519,-3.5519,-3.5519,-3.5519,-3.5519,-3.5519,-3.5519,-3.5519,-3.5519,-3.5519,-3.5519,-3.5519,-3.5968,-3.6387,-3.6836,-3.7704,-3.8332,-3.8841,-3.9709,-4.0217,-4.0367,-4.0157,-4.0487,-4.1115,-4.1564,-4.1983,-4.2462,-4.312,-4.3329,-4.3329,-4.3329,-4.3329,-4.3329,-4.3329,-4.3329,-4.3329,-4.3329,-4.3329,-4.3329,-4.3329,-4.3838,-4.4317,-4.4317,-4.5364,-4.6262,-4.6022,-4.6172,-4.6381,-4.6591,-4.5514,-4.5035,-4.6142,-4.6501,-4.68,-4.7249,-4.7309,-4.7309,-4.7309,-4.7309,-4.704,-4.6381,-4.6322,-4.6232,-4.5992,-4.6591,-4.695,-4.692,-4.716,-4.7752,-4.8789,-4.9536,-5.0498,-5.1901,-5.2572,-5.2741,-5.2303,-5.1282,-5.0453,-4.7401,-4.7667,0.0,-4.7849,-4.8157,0.0,-4.7452,0.0,-4.7849,0.0,0.0,0.0,0.0,0.0,0.0,-4.7684,-4.6834,-4.5891,0.0,-4.5049,0.0,0.0,0.0,0.0,0.0,-4.5206,-4.381,-4.1821,-3.981,-3.8196,0.0,0.0,-3.5519,-3.5519,-3.5519,-3.5519,-3.5519,-3.5519,-3.5519,-3.5519,-3.5519,-3.5519,-3.5519,-3.5519,-3.5519,-3.5549,-3.6207,-3.6716,-3.7165,-3.8302,-3.902,-3.9499,-4.0397,-4.0876,-4.1055,-4.0816,-4.1175,-4.1833,-4.2491,-4.2701,-4.2761,-4.318,-4.3329,-4.3329,-4.3329,-4.3329,-4.3389,-4.3629,-4.3509,-4.3389,-4.3629,-4.3509,-4.3329,-4.3329,-4.3838,-4.4377,-4.4616,-4.5544,-4.6381,-4.6621,-4.6681,-4.68,-4.7249,-4.6591,-4.6172,-4.6621,-4.683,-4.704,-4.7279,-4.7309,-4.7309,-4.7309,-4.7309,-4.713,-4.6711,-4.6681,-4.6681,-4.6681,-4.707,-4.7309,-4.7309,-4.7673,-4.8414,-4.9713,-5.0293,-5.1191,-5.2461,-5.2611,-5.227,-5.1531,-5.102,-5.0367]}]]